Time,TemperatureF,DewpointF,PressureIn,WindDirection,WindDirectionDegrees,WindSpeedMPH,WindSpeedGustMPH,Humidity,HourlyPrecipIn,Conditions,Clouds,dailyrainin,SolarRadiationWatts/m^2,SoftwareType,DateUTC
2013-05-31 00:00:00,71.3,70.2,30.19,ESE,119,0.0,0.0,96,0.00,,,0.00,0.00,VWS V14.01,2013-05-31 04:00:00,
2013-05-31 00:01:00,71.3,70.2,30.19,ESE,119,0.0,0.0,96,0.00,,,0.00,0.00,VWS V14.01,2013-05-31 04:01:00,
2013-05-31 00:02:00,71.3,70.2,30.19,ESE,119,0.0,0.0,96,0.00,,,0.00,0.00,VWS V14.01,2013-05-31 04:02:00,
2013-05-31 00:03:00,71.3,70.2,30.19,ESE,119,0.0,0.0,96,0.00,,,0.00,0.00,VWS V14.01,2013-05-31 04:03:00,
2013-05-31 00:04:00,71.2,70.1,30.19,ESE,119,0.0,0.0,96,0.00,,,0.00,0.00,VWS V14.01,2013-05-31 04:04:00,
2013-05-31 00:05:00,71.2,70.0,30.19,ESE,119,0.0,0.0,96,0.00,,,0.00,0.00,VWS V14.01,2013-05-31 04:05:00,
2013-05-31 00:06:00,71.1,69.9,30.19,ESE,119,0.0,0.0,96,0.00,,,0.00,0.00,VWS V14.01,2013-05-31 04:06:00,
2013-05-31 00:07:00,71.1,69.9,30.19,ESE,119,0.0,0.0,96,0.00,,,0.00,0.00,VWS V14.01,2013-05-31 04:07:00,
2013-05-31 00:08:00,71.1,69.9,30.19,ESE,119,0.0,0.0,96,0.00,,,0.00,0.00,VWS V14.01,2013-05-31 04:08:00,
2013-05-31 00:09:00,70.9,69.8,30.19,ESE,119,0.0,0.0,96,0.00,,,0.00,0.00,VWS V14.01,2013-05-31 04:09:00,
2013-05-31 00:10:00,70.9,69.8,30.19,ESE,119,0.0,0.0,96,0.00,,,0.00,0.00,VWS V14.01,2013-05-31 04:10:00,
2013-05-31 00:11:00,70.8,69.7,30.19,ESE,119,0.0,0.0,96,0.00,,,0.00,0.00,VWS V14.01,2013-05-31 04:11:00,
2013-05-31 00:12:00,70.9,69.8,30.19,ESE,119,0.0,0.0,96,0.00,,,0.00,0.00,VWS V14.01,2013-05-31 04:12:00,
2013-05-31 00:13:00,70.9,69.8,30.19,ESE,119,0.0,0.0,96,0.00,,,0.00,0.00,VWS V14.01,2013-05-31 04:13:00,
2013-05-31 00:14:00,70.8,69.7,30.19,ESE,119,0.0,0.0,96,0.00,,,0.00,0.00,VWS V14.01,2013-05-31 04:14:00,
2013-05-31 00:15:00,70.9,69.8,30.19,ESE,119,0.0,0.0,96,0.00,,,0.00,0.00,VWS V14.01,2013-05-31 04:15:00,
2013-05-31 00:16:00,70.8,69.7,30.19,ESE,119,0.0,0.0,96,0.00,,,0.00,0.00,VWS V14.01,2013-05-31 04:16:00,
2013-05-31 00:17:00,70.8,69.7,30.19,ESE,119,0.0,0.0,96,0.00,,,0.00,0.00,VWS V14.01,2013-05-31 04:17:00,
2013-05-31 00:18:00,70.8,69.7,30.19,ESE,119,0.0,0.0,96,0.00,,,0.00,0.00,VWS V14.01,2013-05-31 04:18:00,
2013-05-31 00:19:00,70.8,69.6,30.19,ESE,119,0.0,0.0,96,0.00,,,0.00,0.00,VWS V14.01,2013-05-31 04:19:00,
2013-05-31 00:20:00,70.8,69.7,30.19,ESE,119,0.0,0.0,96,0.00,,,0.00,0.00,VWS V14.01,2013-05-31 04:20:00,
2013-05-31 00:21:00,70.8,69.6,30.19,ESE,119,0.0,0.0,96,0.00,,,0.00,0.00,VWS V14.01,2013-05-31 04:21:00,
2013-05-31 00:22:00,70.8,69.6,30.19,ESE,119,0.0,0.0,96,0.00,,,0.00,0.00,VWS V14.01,2013-05-31 04:22:00,
2013-05-31 00:23:00,70.7,69.5,30.19,ESE,119,0.0,0.0,96,0.00,,,0.00,0.00,VWS V14.01,2013-05-31 04:23:00,
2013-05-31 00:24:00,70.7,69.5,30.19,ESE,119,0.0,0.0,96,0.00,,,0.00,0.00,VWS V14.01,2013-05-31 04:24:00,
2013-05-31 00:25:00,70.7,69.5,30.19,ESE,119,0.0,0.0,96,0.00,,,0.00,0.00,VWS V14.01,2013-05-31 04:25:00,
2013-05-31 00:26:00,70.7,69.5,30.19,ESE,119,0.0,0.0,96,0.00,,,0.00,0.00,VWS V14.01,2013-05-31 04:26:00,
2013-05-31 00:27:00,70.6,69.4,30.19,ESE,119,0.0,0.0,96,0.00,,,0.00,0.00,VWS V14.01,2013-05-31 04:27:00,
2013-05-31 00:28:00,70.6,69.4,30.19,ESE,119,0.0,0.0,96,0.00,,,0.00,0.00,VWS V14.01,2013-05-31 04:28:00,
2013-05-31 00:29:00,70.4,69.3,30.19,ESE,119,0.0,0.0,96,0.00,,,0.00,0.00,VWS V14.01,2013-05-31 04:29:00,
2013-05-31 00:30:00,70.6,69.7,30.19,ESE,119,0.0,0.0,97,0.00,,,0.00,0.00,VWS V14.01,2013-05-31 04:30:00,
2013-05-31 00:31:00,70.6,69.7,30.19,ESE,119,0.0,0.0,97,0.00,,,0.00,0.00,VWS V14.01,2013-05-31 04:31:00,
2013-05-31 00:32:00,70.6,69.7,30.19,ESE,119,0.0,0.0,97,0.00,,,0.00,0.00,VWS V14.01,2013-05-31 04:32:00,
2013-05-31 00:33:00,70.6,69.7,30.19,ESE,119,0.0,0.0,97,0.00,,,0.00,0.00,VWS V14.01,2013-05-31 04:33:00,
2013-05-31 00:34:00,70.6,69.7,30.19,ESE,119,0.0,0.0,97,0.00,,,0.00,0.00,VWS V14.01,2013-05-31 04:34:00,
2013-05-31 00:35:00,70.6,69.7,30.19,ESE,119,0.0,0.0,97,0.00,,,0.00,0.00,VWS V14.01,2013-05-31 04:35:00,
2013-05-31 00:36:00,70.4,69.6,30.19,ESE,119,0.0,0.0,97,0.00,,,0.00,0.00,VWS V14.01,2013-05-31 04:36:00,
2013-05-31 00:37:00,70.4,69.6,30.19,ESE,119,0.0,0.0,97,0.00,,,0.00,0.00,VWS V14.01,2013-05-31 04:37:00,
2013-05-31 00:38:00,70.4,69.6,30.19,ESE,119,0.0,0.0,97,0.00,,,0.00,0.00,VWS V14.01,2013-05-31 04:38:00,
2013-05-31 00:39:00,70.4,69.6,30.19,ESE,119,0.0,0.0,97,0.00,,,0.00,0.00,VWS V14.01,2013-05-31 04:39:00,
2013-05-31 00:40:00,70.4,69.6,30.19,ESE,119,0.0,0.0,97,0.00,,,0.00,0.00,VWS V14.01,2013-05-31 04:40:00,
2013-05-31 00:41:00,70.3,69.2,30.19,ESE,119,0.0,0.0,96,0.00,,,0.00,0.00,VWS V14.01,2013-05-31 04:41:00,
2013-05-31 00:42:00,70.3,69.2,30.19,ESE,119,0.0,0.0,96,0.00,,,0.00,0.00,VWS V14.01,2013-05-31 04:42:00,
2013-05-31 00:43:00,70.3,69.2,30.19,ESE,119,0.0,0.0,96,0.00,,,0.00,0.00,VWS V14.01,2013-05-31 04:43:00,
2013-05-31 00:44:00,70.3,69.5,30.19,ESE,119,0.0,0.0,97,0.00,,,0.00,0.00,VWS V14.01,2013-05-31 04:44:00,
2013-05-31 00:45:00,70.3,69.5,30.19,ESE,119,0.0,0.0,97,0.00,,,0.00,0.00,VWS V14.01,2013-05-31 04:45:00,
2013-05-31 00:46:00,70.3,69.5,30.19,ESE,119,0.0,0.0,97,0.00,,,0.00,0.00,VWS V14.01,2013-05-31 04:46:00,
2013-05-31 00:47:00,70.3,69.5,30.19,ESE,119,0.0,0.0,97,0.00,,,0.00,0.00,VWS V14.01,2013-05-31 04:47:00,
2013-05-31 00:48:00,70.3,69.5,30.19,ESE,119,0.0,0.0,97,0.00,,,0.00,0.00,VWS V14.01,2013-05-31 04:48:00,
2013-05-31 00:49:00,70.3,69.5,30.19,ESE,119,0.0,0.0,97,0.00,,,0.00,0.00,VWS V14.01,2013-05-31 04:49:00,
2013-05-31 00:50:00,70.3,69.5,30.19,ESE,119,0.0,0.0,97,0.00,,,0.00,0.00,VWS V14.01,2013-05-31 04:50:00,
2013-05-31 00:51:00,70.3,69.5,30.19,ESE,119,0.0,0.0,97,0.00,,,0.00,0.00,VWS V14.01,2013-05-31 04:51:00,
2013-05-31 00:52:00,70.3,69.5,30.19,ESE,119,0.0,0.0,97,0.00,,,0.00,0.00,VWS V14.01,2013-05-31 04:52:00,
2013-05-31 00:53:00,70.3,69.5,30.19,ESE,119,0.0,0.0,97,0.00,,,0.00,0.00,VWS V14.01,2013-05-31 04:53:00,
2013-05-31 00:54:00,70.3,69.5,30.19,ESE,119,0.0,0.0,97,0.00,,,0.00,0.00,VWS V14.01,2013-05-31 04:54:00,
2013-05-31 00:55:00,70.3,69.5,30.19,ESE,119,0.0,0.0,97,0.00,,,0.00,0.00,VWS V14.01,2013-05-31 04:55:00,
2013-05-31 00:56:00,70.3,69.5,30.19,ESE,119,0.0,0.0,97,0.00,,,0.00,0.00,VWS V14.01,2013-05-31 04:56:00,
2013-05-31 00:57:00,70.2,69.4,30.19,ESE,119,0.0,0.0,97,0.00,,,0.00,0.00,VWS V14.01,2013-05-31 04:57:00,
2013-05-31 00:58:00,70.2,69.4,30.19,ESE,119,0.0,0.0,97,0.00,,,0.00,0.00,VWS V14.01,2013-05-31 04:58:00,
2013-05-31 00:59:00,70.2,69.4,30.19,ESE,119,0.0,0.0,97,0.00,,,0.00,0.00,VWS V14.01,2013-05-31 04:59:00,
2013-05-31 01:00:00,70.2,69.3,30.19,ESE,119,0.0,0.0,97,0.00,,,0.00,0.00,VWS V14.01,2013-05-31 05:00:00,
2013-05-31 01:01:00,70.2,69.3,30.19,ESE,119,0.0,0.0,97,0.00,,,0.00,0.00,VWS V14.01,2013-05-31 05:01:00,
2013-05-31 01:02:00,70.2,69.3,30.19,ESE,119,0.0,0.0,97,0.00,,,0.00,0.00,VWS V14.01,2013-05-31 05:02:00,
2013-05-31 01:03:00,70.1,69.2,30.19,ESE,119,0.0,0.0,97,0.00,,,0.00,0.00,VWS V14.01,2013-05-31 05:03:00,
2013-05-31 01:04:00,70.1,69.2,30.19,ESE,119,0.0,0.0,97,0.00,,,0.00,0.00,VWS V14.01,2013-05-31 05:04:00,
2013-05-31 01:05:00,70.1,69.2,30.19,ESE,119,0.0,0.0,97,0.00,,,0.00,0.00,VWS V14.01,2013-05-31 05:05:00,
2013-05-31 01:06:00,70.1,69.2,30.19,ESE,119,0.0,0.0,97,0.00,,,0.00,0.00,VWS V14.01,2013-05-31 05:06:00,
2013-05-31 01:07:00,70.1,69.2,30.19,ESE,119,0.0,0.0,97,0.00,,,0.00,0.00,VWS V14.01,2013-05-31 05:07:00,
2013-05-31 01:08:00,70.2,69.3,30.19,ESE,119,0.0,0.0,97,0.00,,,0.00,0.00,VWS V14.01,2013-05-31 05:08:00,
2013-05-31 01:09:00,70.1,69.2,30.19,ESE,119,0.0,0.0,97,0.00,,,0.00,0.00,VWS V14.01,2013-05-31 05:09:00,
2013-05-31 01:10:00,70.1,69.2,30.19,ESE,119,0.0,0.0,97,0.00,,,0.00,0.00,VWS V14.01,2013-05-31 05:10:00,
2013-05-31 01:11:00,69.9,69.1,30.19,ESE,119,0.0,0.0,97,0.00,,,0.00,0.00,VWS V14.01,2013-05-31 05:11:00,
2013-05-31 01:12:00,69.9,69.1,30.19,ESE,119,0.0,0.0,97,0.00,,,0.00,0.00,VWS V14.01,2013-05-31 05:12:00,
2013-05-31 01:13:00,69.8,69.0,30.19,ESE,119,0.0,0.0,97,0.00,,,0.00,0.00,VWS V14.01,2013-05-31 05:13:00,
2013-05-31 01:14:00,69.8,68.9,30.19,ESE,119,0.0,0.0,97,0.00,,,0.00,0.00,VWS V14.01,2013-05-31 05:14:00,
2013-05-31 01:15:00,69.8,68.9,30.19,ESE,119,0.0,0.0,97,0.00,,,0.00,0.00,VWS V14.01,2013-05-31 05:15:00,
2013-05-31 01:16:00,69.8,68.9,30.19,ESE,119,0.0,0.0,97,0.00,,,0.00,0.00,VWS V14.01,2013-05-31 05:16:00,
2013-05-31 01:17:00,69.8,68.9,30.19,ESE,119,0.0,0.0,97,0.00,,,0.00,0.00,VWS V14.01,2013-05-31 05:17:00,
2013-05-31 01:18:00,69.8,69.0,30.19,ESE,119,0.0,0.0,97,0.00,,,0.00,0.00,VWS V14.01,2013-05-31 05:18:00,
2013-05-31 01:19:00,69.8,69.0,30.19,ESE,119,0.0,0.0,97,0.00,,,0.00,0.00,VWS V14.01,2013-05-31 05:19:00,
2013-05-31 01:20:00,69.8,69.0,30.19,ESE,119,0.0,0.0,97,0.00,,,0.00,0.00,VWS V14.01,2013-05-31 05:20:00,
2013-05-31 01:21:00,69.8,69.0,30.18,ESE,119,0.0,0.0,97,0.00,,,0.00,0.00,VWS V14.01,2013-05-31 05:21:00,
2013-05-31 01:22:00,69.8,69.0,30.18,ESE,119,0.0,0.0,97,0.00,,,0.00,0.00,VWS V14.01,2013-05-31 05:22:00,
2013-05-31 01:23:00,69.8,69.0,30.18,ESE,119,0.0,0.0,97,0.00,,,0.00,0.00,VWS V14.01,2013-05-31 05:23:00,
2013-05-31 01:24:00,69.8,68.9,30.18,ESE,119,0.0,0.0,97,0.00,,,0.00,0.00,VWS V14.01,2013-05-31 05:24:00,
2013-05-31 01:25:00,69.8,68.9,30.18,ESE,119,0.0,0.0,97,0.00,,,0.00,0.00,VWS V14.01,2013-05-31 05:25:00,
2013-05-31 01:26:00,69.8,68.9,30.18,ESE,119,0.0,0.0,97,0.00,,,0.00,0.00,VWS V14.01,2013-05-31 05:26:00,
2013-05-31 01:27:00,69.7,68.8,30.18,ESE,119,0.0,0.0,97,0.00,,,0.00,0.00,VWS V14.01,2013-05-31 05:27:00,
2013-05-31 01:28:00,69.6,68.7,30.18,ESE,119,0.0,0.0,97,0.00,,,0.00,0.00,VWS V14.01,2013-05-31 05:28:00,
2013-05-31 01:29:00,69.4,68.6,30.18,ESE,119,0.0,0.0,97,0.00,,,0.00,0.00,VWS V14.01,2013-05-31 05:29:00,
2013-05-31 01:30:00,69.3,68.5,30.18,ESE,119,0.0,0.0,97,0.00,,,0.00,0.00,VWS V14.01,2013-05-31 05:30:00,
2013-05-31 01:31:00,69.2,68.4,30.18,ESE,119,0.0,0.0,97,0.00,,,0.00,0.00,VWS V14.01,2013-05-31 05:31:00,
2013-05-31 01:32:00,69.2,68.4,30.18,ESE,119,0.0,0.0,97,0.00,,,0.00,0.00,VWS V14.01,2013-05-31 05:32:00,
2013-05-31 01:33:00,69.2,68.4,30.18,ESE,119,0.0,0.0,97,0.00,,,0.00,0.00,VWS V14.01,2013-05-31 05:33:00,
2013-05-31 01:34:00,69.2,68.4,30.18,ESE,119,0.0,0.0,97,0.00,,,0.00,0.00,VWS V14.01,2013-05-31 05:34:00,
2013-05-31 01:35:00,69.2,68.4,30.18,ESE,119,0.0,0.0,97,0.00,,,0.00,0.00,VWS V14.01,2013-05-31 05:35:00,
2013-05-31 01:36:00,69.3,68.5,30.18,ESE,119,0.0,0.0,97,0.00,,,0.00,0.00,VWS V14.01,2013-05-31 05:36:00,
2013-05-31 01:37:00,69.3,68.5,30.18,ESE,119,0.0,0.0,97,0.00,,,0.00,0.00,VWS V14.01,2013-05-31 05:37:00,
2013-05-31 01:38:00,69.4,68.6,30.18,ESE,119,0.0,0.0,97,0.00,,,0.00,0.00,VWS V14.01,2013-05-31 05:38:00,
2013-05-31 01:39:00,69.4,68.6,30.18,ESE,119,0.0,0.0,97,0.00,,,0.00,0.00,VWS V14.01,2013-05-31 05:39:00,
2013-05-31 01:40:00,69.4,68.6,30.18,ESE,119,0.0,0.0,97,0.00,,,0.00,0.00,VWS V14.01,2013-05-31 05:40:00,
2013-05-31 01:41:00,69.4,68.6,30.18,ESE,119,0.0,0.0,97,0.00,,,0.00,0.00,VWS V14.01,2013-05-31 05:41:00,
2013-05-31 01:42:00,69.3,68.5,30.18,ESE,119,0.0,0.0,97,0.00,,,0.00,0.00,VWS V14.01,2013-05-31 05:42:00,
2013-05-31 01:43:00,69.3,68.5,30.18,ESE,119,0.0,0.0,97,0.00,,,0.00,0.00,VWS V14.01,2013-05-31 05:43:00,
2013-05-31 01:44:00,69.2,68.4,30.18,ESE,119,0.0,0.0,97,0.00,,,0.00,0.00,VWS V14.01,2013-05-31 05:44:00,
2013-05-31 01:45:00,69.2,68.4,30.18,ESE,119,0.0,0.0,97,0.00,,,0.00,0.00,VWS V14.01,2013-05-31 05:45:00,
2013-05-31 01:46:00,69.2,68.3,30.18,ESE,119,0.0,0.0,97,0.00,,,0.00,0.00,VWS V14.01,2013-05-31 05:46:00,
2013-05-31 01:47:00,69.2,68.4,30.18,ESE,119,0.0,0.0,97,0.00,,,0.00,0.00,VWS V14.01,2013-05-31 05:47:00,
2013-05-31 01:48:00,69.2,68.4,30.18,ESE,119,0.0,0.0,97,0.00,,,0.00,0.00,VWS V14.01,2013-05-31 05:48:00,
2013-05-31 01:49:00,69.2,68.4,30.18,ESE,119,0.0,0.0,97,0.00,,,0.00,0.00,VWS V14.01,2013-05-31 05:49:00,
2013-05-31 01:50:00,69.2,68.3,30.18,ESE,119,0.0,0.0,97,0.00,,,0.00,0.00,VWS V14.01,2013-05-31 05:50:00,
2013-05-31 01:51:00,69.1,68.2,30.18,ESE,119,0.0,0.0,97,0.00,,,0.00,0.00,VWS V14.01,2013-05-31 05:51:00,
2013-05-31 01:52:00,68.9,68.1,30.18,ESE,119,0.0,0.0,97,0.00,,,0.00,0.00,VWS V14.01,2013-05-31 05:52:00,
2013-05-31 01:53:00,68.8,68.0,30.18,ESE,119,0.0,0.0,97,0.00,,,0.00,0.00,VWS V14.01,2013-05-31 05:53:00,
2013-05-31 01:54:00,68.9,68.1,30.18,ESE,119,0.0,0.0,97,0.00,,,0.00,0.00,VWS V14.01,2013-05-31 05:54:00,
2013-05-31 01:55:00,68.9,68.1,30.18,ESE,119,0.0,0.0,97,0.00,,,0.00,0.00,VWS V14.01,2013-05-31 05:55:00,
2013-05-31 01:56:00,69.1,68.2,30.18,ESE,119,0.0,0.0,97,0.00,,,0.00,0.00,VWS V14.01,2013-05-31 05:56:00,
2013-05-31 01:57:00,69.1,68.2,30.18,ESE,119,0.0,0.0,97,0.00,,,0.00,0.00,VWS V14.01,2013-05-31 05:57:00,
2013-05-31 01:58:00,68.9,68.1,30.18,ESE,119,0.0,0.0,97,0.00,,,0.00,0.00,VWS V14.01,2013-05-31 05:58:00,
2013-05-31 01:59:00,68.8,68.0,30.18,ESE,119,0.0,0.0,97,0.00,,,0.00,0.00,VWS V14.01,2013-05-31 05:59:00,
2013-05-31 02:00:00,68.8,68.0,30.18,ESE,119,0.0,0.0,97,0.00,,,0.00,0.00,VWS V14.01,2013-05-31 06:00:00,
2013-05-31 02:01:00,68.8,67.9,30.18,ESE,119,0.0,0.0,97,0.00,,,0.00,0.00,VWS V14.01,2013-05-31 06:01:00,
2013-05-31 02:02:00,68.8,67.9,30.18,ESE,119,0.0,0.0,97,0.00,,,0.00,0.00,VWS V14.01,2013-05-31 06:02:00,
2013-05-31 02:03:00,68.8,67.9,30.18,ESE,119,0.0,0.0,97,0.00,,,0.00,0.00,VWS V14.01,2013-05-31 06:03:00,
2013-05-31 02:04:00,68.8,67.9,30.18,ESE,119,0.0,0.0,97,0.00,,,0.00,0.00,VWS V14.01,2013-05-31 06:04:00,
2013-05-31 02:05:00,68.8,67.9,30.18,ESE,119,0.0,0.0,97,0.00,,,0.00,0.00,VWS V14.01,2013-05-31 06:05:00,
2013-05-31 02:06:00,68.7,67.8,30.17,ESE,119,0.0,0.0,97,0.00,,,0.00,0.00,VWS V14.01,2013-05-31 06:06:00,
2013-05-31 02:07:00,68.7,67.8,30.17,ESE,119,0.0,0.0,97,0.00,,,0.00,0.00,VWS V14.01,2013-05-31 06:07:00,
2013-05-31 02:08:00,68.7,67.8,30.17,ESE,119,0.0,0.0,97,0.00,,,0.00,0.00,VWS V14.01,2013-05-31 06:08:00,
2013-05-31 02:09:00,68.7,67.8,30.17,ESE,119,0.0,0.0,97,0.00,,,0.00,0.00,VWS V14.01,2013-05-31 06:09:00,
2013-05-31 02:10:00,68.7,67.8,30.17,ESE,119,0.0,0.0,97,0.00,,,0.00,0.00,VWS V14.01,2013-05-31 06:10:00,
2013-05-31 02:11:00,68.8,67.9,30.17,ESE,119,0.0,0.0,97,0.00,,,0.00,0.00,VWS V14.01,2013-05-31 06:11:00,
2013-05-31 02:12:00,68.8,67.9,30.17,ESE,119,0.0,0.0,97,0.00,,,0.00,0.00,VWS V14.01,2013-05-31 06:12:00,
2013-05-31 02:13:00,68.8,68.0,30.17,ESE,119,0.0,0.0,97,0.00,,,0.00,0.00,VWS V14.01,2013-05-31 06:13:00,
2013-05-31 02:14:00,68.8,68.0,30.17,ESE,119,0.0,0.0,97,0.00,,,0.00,0.00,VWS V14.01,2013-05-31 06:14:00,
2013-05-31 02:15:00,68.8,68.0,30.17,ESE,119,0.0,0.0,97,0.00,,,0.00,0.00,VWS V14.01,2013-05-31 06:15:00,
2013-05-31 02:16:00,68.8,67.9,30.18,ESE,119,0.0,0.0,97,0.00,,,0.00,0.00,VWS V14.01,2013-05-31 06:16:00,
2013-05-31 02:17:00,68.7,67.8,30.18,ESE,119,0.0,0.0,97,0.00,,,0.00,0.00,VWS V14.01,2013-05-31 06:17:00,
2013-05-31 02:18:00,68.7,67.8,30.18,ESE,119,0.0,0.0,97,0.00,,,0.00,0.00,VWS V14.01,2013-05-31 06:18:00,
2013-05-31 02:19:00,68.7,67.8,30.18,ESE,119,0.0,0.0,97,0.00,,,0.00,0.00,VWS V14.01,2013-05-31 06:19:00,
2013-05-31 02:20:00,68.7,67.8,30.18,ESE,119,0.0,0.0,97,0.00,,,0.00,0.00,VWS V14.01,2013-05-31 06:20:00,
2013-05-31 02:21:00,68.7,67.8,30.18,ESE,119,0.0,0.0,97,0.00,,,0.00,0.00,VWS V14.01,2013-05-31 06:21:00,
2013-05-31 02:22:00,68.7,67.8,30.18,ESE,119,0.0,0.0,97,0.00,,,0.00,0.00,VWS V14.01,2013-05-31 06:22:00,
2013-05-31 02:23:00,68.7,67.8,30.17,ESE,119,0.0,0.0,97,0.00,,,0.00,0.00,VWS V14.01,2013-05-31 06:23:00,
2013-05-31 02:24:00,68.6,67.7,30.18,ESE,119,0.0,0.0,97,0.00,,,0.00,0.00,VWS V14.01,2013-05-31 06:24:00,
2013-05-31 02:25:00,68.6,67.7,30.18,ESE,119,0.0,0.0,97,0.00,,,0.00,0.00,VWS V14.01,2013-05-31 06:25:00,
2013-05-31 02:26:00,68.3,67.5,30.18,ESE,119,0.0,0.0,97,0.00,,,0.00,0.00,VWS V14.01,2013-05-31 06:26:00,
2013-05-31 02:27:00,68.3,67.5,30.18,ESE,119,0.0,0.0,97,0.00,,,0.00,0.00,VWS V14.01,2013-05-31 06:27:00,
2013-05-31 02:28:00,68.2,67.4,30.17,ESE,119,0.0,0.0,97,0.00,,,0.00,0.00,VWS V14.01,2013-05-31 06:28:00,
2013-05-31 02:29:00,68.2,67.4,30.18,ESE,119,0.0,0.0,97,0.00,,,0.00,0.00,VWS V14.01,2013-05-31 06:29:00,
2013-05-31 02:30:00,68.3,67.5,30.18,ESE,119,0.0,0.0,97,0.00,,,0.00,0.00,VWS V14.01,2013-05-31 06:30:00,
2013-05-31 02:31:00,68.4,67.6,30.18,ESE,119,0.0,0.0,97,0.00,,,0.00,0.00,VWS V14.01,2013-05-31 06:31:00,
2013-05-31 02:32:00,68.4,67.6,30.18,ESE,119,0.0,0.0,97,0.00,,,0.00,0.00,VWS V14.01,2013-05-31 06:32:00,
2013-05-31 02:33:00,68.4,67.6,30.18,ESE,119,0.0,0.0,97,0.00,,,0.00,0.00,VWS V14.01,2013-05-31 06:33:00,
2013-05-31 02:34:00,68.4,67.6,30.18,ESE,119,0.0,0.0,97,0.00,,,0.00,0.00,VWS V14.01,2013-05-31 06:34:00,
2013-05-31 02:35:00,68.3,67.5,30.17,ESE,119,0.0,0.0,97,0.00,,,0.00,0.00,VWS V14.01,2013-05-31 06:35:00,
2013-05-31 02:36:00,68.2,67.4,30.17,ESE,119,0.0,0.0,97,0.00,,,0.00,0.00,VWS V14.01,2013-05-31 06:36:00,
2013-05-31 02:37:00,68.2,67.4,30.17,ESE,119,0.0,0.0,97,0.00,,,0.00,0.00,VWS V14.01,2013-05-31 06:37:00,
2013-05-31 02:38:00,68.2,67.4,30.17,ESE,119,0.0,0.0,97,0.00,,,0.00,0.00,VWS V14.01,2013-05-31 06:38:00,
2013-05-31 02:39:00,68.2,67.4,30.17,ESE,119,0.0,0.0,97,0.00,,,0.00,0.00,VWS V14.01,2013-05-31 06:39:00,
2013-05-31 02:40:00,68.2,67.4,30.18,ESE,119,0.0,0.0,97,0.00,,,0.00,0.00,VWS V14.01,2013-05-31 06:40:00,
2013-05-31 02:41:00,68.2,67.4,30.18,ESE,119,0.0,0.0,97,0.00,,,0.00,0.00,VWS V14.01,2013-05-31 06:41:00,
2013-05-31 02:42:00,68.2,67.4,30.18,ESE,119,0.0,0.0,97,0.00,,,0.00,0.00,VWS V14.01,2013-05-31 06:42:00,
2013-05-31 02:43:00,68.2,67.3,30.17,ESE,119,0.0,0.0,97,0.00,,,0.00,0.00,VWS V14.01,2013-05-31 06:43:00,
2013-05-31 02:44:00,68.2,67.3,30.17,ESE,119,0.0,0.0,97,0.00,,,0.00,0.00,VWS V14.01,2013-05-31 06:44:00,
2013-05-31 02:45:00,68.2,67.3,30.17,ESE,119,0.0,0.0,97,0.00,,,0.00,0.00,VWS V14.01,2013-05-31 06:45:00,
2013-05-31 02:46:00,68.2,67.3,30.17,ESE,119,0.0,0.0,97,0.00,,,0.00,0.00,VWS V14.01,2013-05-31 06:46:00,
2013-05-31 02:47:00,68.2,67.3,30.17,ESE,119,0.0,0.0,97,0.00,,,0.00,0.00,VWS V14.01,2013-05-31 06:47:00,
2013-05-31 02:48:00,68.2,67.3,30.17,ESE,119,0.0,0.0,97,0.00,,,0.00,0.00,VWS V14.01,2013-05-31 06:48:00,
2013-05-31 02:49:00,68.2,67.3,30.17,ESE,119,0.0,0.0,97,0.00,,,0.00,0.00,VWS V14.01,2013-05-31 06:49:00,
2013-05-31 02:50:00,68.2,67.3,30.17,ESE,119,0.0,0.0,97,0.00,,,0.00,0.00,VWS V14.01,2013-05-31 06:50:00,
2013-05-31 02:51:00,68.2,67.4,30.17,ESE,119,0.0,0.0,97,0.00,,,0.00,0.00,VWS V14.01,2013-05-31 06:51:00,
2013-05-31 02:52:00,68.2,67.4,30.17,ESE,119,0.0,0.0,97,0.00,,,0.00,0.00,VWS V14.01,2013-05-31 06:52:00,
2013-05-31 02:53:00,68.2,67.4,30.17,ESE,119,0.0,0.0,97,0.00,,,0.00,0.00,VWS V14.01,2013-05-31 06:53:00,
2013-05-31 02:54:00,68.2,67.4,30.17,ESE,119,0.0,0.0,97,0.00,,,0.00,0.00,VWS V14.01,2013-05-31 06:54:00,
2013-05-31 02:55:00,68.2,67.4,30.17,ESE,119,0.0,0.0,97,0.00,,,0.00,0.00,VWS V14.01,2013-05-31 06:55:00,
2013-05-31 02:56:00,68.2,67.3,30.17,ESE,119,0.0,0.0,97,0.00,,,0.00,0.00,VWS V14.01,2013-05-31 06:56:00,
2013-05-31 02:57:00,68.2,67.3,30.17,ESE,119,0.0,0.0,97,0.00,,,0.00,0.00,VWS V14.01,2013-05-31 06:57:00,
2013-05-31 02:58:00,68.1,67.2,30.17,ESE,119,0.0,0.0,97,0.00,,,0.00,0.00,VWS V14.01,2013-05-31 06:58:00,
2013-05-31 02:59:00,67.9,67.1,30.17,ESE,119,0.0,0.0,97,0.00,,,0.00,0.00,VWS V14.01,2013-05-31 06:59:00,
2013-05-31 03:00:00,67.9,67.1,30.17,ESE,119,0.0,0.0,97,0.00,,,0.00,0.00,VWS V14.01,2013-05-31 07:00:00,
2013-05-31 03:01:00,67.9,67.1,30.17,ESE,119,0.0,0.0,97,0.00,,,0.00,0.00,VWS V14.01,2013-05-31 07:01:00,
2013-05-31 03:02:00,67.9,67.1,30.17,ESE,119,0.0,0.0,97,0.00,,,0.00,0.00,VWS V14.01,2013-05-31 07:02:00,
2013-05-31 03:03:00,67.9,67.1,30.17,ESE,119,0.0,0.0,97,0.00,,,0.00,0.00,VWS V14.01,2013-05-31 07:03:00,
2013-05-31 03:04:00,67.9,67.1,30.17,ESE,119,0.0,0.0,97,0.00,,,0.00,0.00,VWS V14.01,2013-05-31 07:04:00,
2013-05-31 03:05:00,67.9,67.1,30.17,ESE,119,0.0,0.0,97,0.00,,,0.00,0.00,VWS V14.01,2013-05-31 07:05:00,
2013-05-31 03:06:00,67.9,67.1,30.17,ESE,119,0.0,0.0,97,0.00,,,0.00,0.00,VWS V14.01,2013-05-31 07:06:00,
2013-05-31 03:07:00,67.8,67.0,30.17,ESE,119,0.0,0.0,97,0.00,,,0.00,0.00,VWS V14.01,2013-05-31 07:07:00,
2013-05-31 03:08:00,67.8,67.0,30.17,ESE,119,0.0,0.0,97,0.00,,,0.00,0.00,VWS V14.01,2013-05-31 07:08:00,
2013-05-31 03:09:00,67.8,66.9,30.17,ESE,119,0.0,0.0,97,0.00,,,0.00,0.00,VWS V14.01,2013-05-31 07:09:00,
2013-05-31 03:10:00,67.8,66.9,30.17,ESE,119,0.0,0.0,97,0.00,,,0.00,0.00,VWS V14.01,2013-05-31 07:10:00,
2013-05-31 03:11:00,67.8,66.9,30.17,ESE,119,0.0,0.0,97,0.00,,,0.00,0.00,VWS V14.01,2013-05-31 07:11:00,
2013-05-31 03:12:00,67.8,66.9,30.17,ESE,119,0.0,0.0,97,0.00,,,0.00,0.00,VWS V14.01,2013-05-31 07:12:00,
2013-05-31 03:13:00,67.8,67.0,30.17,ESE,119,0.0,0.0,97,0.00,,,0.00,0.00,VWS V14.01,2013-05-31 07:13:00,
2013-05-31 03:14:00,67.8,67.0,30.17,ESE,119,0.0,0.0,97,0.00,,,0.00,0.00,VWS V14.01,2013-05-31 07:14:00,
2013-05-31 03:15:00,67.8,67.0,30.17,ESE,119,0.0,0.0,97,0.00,,,0.00,0.00,VWS V14.01,2013-05-31 07:15:00,
2013-05-31 03:16:00,67.8,67.0,30.17,ESE,119,0.0,0.0,97,0.00,,,0.00,0.00,VWS V14.01,2013-05-31 07:16:00,
2013-05-31 03:17:00,67.8,67.0,30.17,ESE,119,0.0,0.0,97,0.00,,,0.00,0.00,VWS V14.01,2013-05-31 07:17:00,
2013-05-31 03:18:00,67.8,67.0,30.17,ESE,119,0.0,0.0,97,0.00,,,0.00,0.00,VWS V14.01,2013-05-31 07:18:00,
2013-05-31 03:19:00,67.8,66.9,30.17,ESE,119,0.0,0.0,97,0.00,,,0.00,0.00,VWS V14.01,2013-05-31 07:19:00,
2013-05-31 03:20:00,67.7,66.8,30.17,ESE,119,0.0,0.0,97,0.00,,,0.00,0.00,VWS V14.01,2013-05-31 07:20:00,
2013-05-31 03:21:00,67.6,66.7,30.17,ESE,119,0.0,0.0,97,0.00,,,0.00,0.00,VWS V14.01,2013-05-31 07:21:00,
2013-05-31 03:22:00,67.6,66.7,30.17,ESE,119,0.0,0.0,97,0.00,,,0.00,0.00,VWS V14.01,2013-05-31 07:22:00,
2013-05-31 03:23:00,67.4,66.6,30.17,ESE,119,0.0,0.0,97,0.00,,,0.00,0.00,VWS V14.01,2013-05-31 07:23:00,
2013-05-31 03:24:00,67.4,66.6,30.17,ESE,119,0.0,0.0,97,0.00,,,0.00,0.00,VWS V14.01,2013-05-31 07:24:00,
2013-05-31 03:25:00,67.4,66.6,30.17,ESE,119,0.0,0.0,97,0.00,,,0.00,0.00,VWS V14.01,2013-05-31 07:25:00,
2013-05-31 03:26:00,67.3,66.5,30.17,ESE,119,0.0,0.0,97,0.00,,,0.00,0.00,VWS V14.01,2013-05-31 07:26:00,
2013-05-31 03:27:00,67.2,66.4,30.17,ESE,119,0.0,0.0,97,0.00,,,0.00,0.00,VWS V14.01,2013-05-31 07:27:00,
2013-05-31 03:28:00,67.2,66.4,30.17,ESE,119,0.0,0.0,97,0.00,,,0.00,0.00,VWS V14.01,2013-05-31 07:28:00,
2013-05-31 03:29:00,67.2,66.4,30.17,ESE,119,0.0,0.0,97,0.00,,,0.00,0.00,VWS V14.01,2013-05-31 07:29:00,
2013-05-31 03:30:00,67.3,66.5,30.17,ESE,119,0.0,0.0,97,0.00,,,0.00,0.00,VWS V14.01,2013-05-31 07:30:00,
2013-05-31 03:31:00,67.3,66.5,30.17,ESE,119,0.0,0.0,97,0.00,,,0.00,0.00,VWS V14.01,2013-05-31 07:31:00,
2013-05-31 03:32:00,67.3,66.8,30.17,ESE,119,0.0,0.0,98,0.00,,,0.00,0.00,VWS V14.01,2013-05-31 07:32:00,
2013-05-31 03:33:00,67.3,66.8,30.17,ESE,119,0.0,0.0,98,0.00,,,0.00,0.00,VWS V14.01,2013-05-31 07:33:00,
2013-05-31 03:34:00,67.4,66.9,30.17,ESE,119,0.0,0.0,98,0.00,,,0.00,0.00,VWS V14.01,2013-05-31 07:34:00,
2013-05-31 03:35:00,67.3,66.8,30.17,ESE,119,0.0,0.0,98,0.00,,,0.00,0.00,VWS V14.01,2013-05-31 07:35:00,
2013-05-31 03:36:00,67.4,66.9,30.17,ESE,119,0.0,0.0,98,0.00,,,0.00,0.00,VWS V14.01,2013-05-31 07:36:00,
2013-05-31 03:37:00,67.4,66.9,30.17,ESE,119,0.0,0.0,98,0.00,,,0.00,0.00,VWS V14.01,2013-05-31 07:37:00,
2013-05-31 03:38:00,67.4,66.9,30.17,ESE,119,0.0,0.0,98,0.00,,,0.00,0.00,VWS V14.01,2013-05-31 07:38:00,
2013-05-31 03:39:00,67.3,66.8,30.17,ESE,119,0.0,0.0,98,0.00,,,0.00,0.00,VWS V14.01,2013-05-31 07:39:00,
2013-05-31 03:40:00,67.3,66.8,30.17,ESE,119,0.0,0.0,98,0.00,,,0.00,0.00,VWS V14.01,2013-05-31 07:40:00,
2013-05-31 03:41:00,67.3,66.5,30.17,ESE,119,0.0,0.0,97,0.00,,,0.00,0.00,VWS V14.01,2013-05-31 07:41:00,
2013-05-31 03:42:00,67.3,66.8,30.17,ESE,119,0.0,0.0,98,0.00,,,0.00,0.00,VWS V14.01,2013-05-31 07:42:00,
2013-05-31 03:43:00,67.3,66.8,30.17,ESE,119,0.0,0.0,98,0.00,,,0.00,0.00,VWS V14.01,2013-05-31 07:43:00,
2013-05-31 03:44:00,67.3,66.8,30.17,ESE,119,0.0,0.0,98,0.00,,,0.00,0.00,VWS V14.01,2013-05-31 07:44:00,
2013-05-31 03:45:00,67.3,66.8,30.17,ESE,119,0.0,0.0,98,0.00,,,0.00,0.00,VWS V14.01,2013-05-31 07:45:00,
2013-05-31 03:46:00,67.3,66.8,30.17,ESE,119,0.0,0.0,98,0.00,,,0.00,0.00,VWS V14.01,2013-05-31 07:46:00,
2013-05-31 03:47:00,67.3,66.8,30.17,ESE,119,0.0,0.0,98,0.00,,,0.00,0.00,VWS V14.01,2013-05-31 07:47:00,
2013-05-31 03:49:00,67.2,66.7,30.17,ESE,119,0.0,0.0,98,0.00,,,0.00,0.00,VWS V14.01,2013-05-31 07:49:00,
2013-05-31 03:50:00,67.2,66.3,30.17,ESE,119,0.0,0.0,97,0.00,,,0.00,0.00,VWS V14.01,2013-05-31 07:50:00,
2013-05-31 03:51:00,67.1,66.2,30.17,ESE,119,0.0,0.0,97,0.00,,,0.00,0.00,VWS V14.01,2013-05-31 07:51:00,
2013-05-31 03:52:00,67.1,66.2,30.17,ESE,119,0.0,0.0,97,0.00,,,0.00,0.00,VWS V14.01,2013-05-31 07:52:00,
2013-05-31 03:53:00,67.1,66.2,30.17,ESE,119,0.0,0.0,97,0.00,,,0.00,0.00,VWS V14.01,2013-05-31 07:53:00,
2013-05-31 03:55:00,67.1,66.2,30.17,ESE,119,0.0,0.0,97,0.00,,,0.00,0.00,VWS V14.01,2013-05-31 07:55:00,
2013-05-31 03:56:00,67.2,66.3,30.17,ESE,119,0.0,0.0,97,0.00,,,0.00,0.00,VWS V14.01,2013-05-31 07:56:00,
2013-05-31 03:57:00,67.2,66.3,30.17,ESE,119,0.0,0.0,97,0.00,,,0.00,0.00,VWS V14.01,2013-05-31 07:57:00,
2013-05-31 03:58:00,67.2,66.3,30.17,ESE,119,0.0,0.0,97,0.00,,,0.00,0.00,VWS V14.01,2013-05-31 07:58:00,
2013-05-31 03:59:00,67.1,66.2,30.17,ESE,119,0.0,0.0,97,0.00,,,0.00,0.00,VWS V14.01,2013-05-31 07:59:00,
2013-05-31 04:00:00,67.1,66.2,30.17,ESE,119,0.0,0.0,97,0.00,,,0.00,0.00,VWS V14.01,2013-05-31 08:00:00,
2013-05-31 04:01:00,67.1,66.2,30.17,ESE,119,0.0,0.0,97,0.00,,,0.00,0.00,VWS V14.01,2013-05-31 08:01:00,
2013-05-31 04:02:00,67.1,66.2,30.17,ESE,119,0.0,0.0,97,0.00,,,0.00,0.00,VWS V14.01,2013-05-31 08:02:00,
2013-05-31 04:03:00,66.9,66.1,30.17,ESE,119,0.0,0.0,97,0.00,,,0.00,0.00,VWS V14.01,2013-05-31 08:03:00,
2013-05-31 04:04:00,66.8,66.0,30.17,ESE,119,0.0,0.0,97,0.00,,,0.00,0.00,VWS V14.01,2013-05-31 08:04:00,
2013-05-31 04:05:00,66.8,66.0,30.17,ESE,119,0.0,0.0,97,0.00,,,0.00,0.00,VWS V14.01,2013-05-31 08:05:00,
2013-05-31 04:06:00,66.8,66.0,30.17,ESE,119,0.0,0.0,97,0.00,,,0.00,0.00,VWS V14.01,2013-05-31 08:06:00,
2013-05-31 04:07:00,66.8,66.0,30.17,ESE,119,0.0,0.0,97,0.00,,,0.00,0.00,VWS V14.01,2013-05-31 08:07:00,
2013-05-31 04:08:00,66.9,66.1,30.17,ESE,119,0.0,0.0,97,0.00,,,0.00,0.00,VWS V14.01,2013-05-31 08:08:00,
2013-05-31 04:09:00,66.9,66.1,30.17,ESE,119,0.0,0.0,97,0.00,,,0.00,0.00,VWS V14.01,2013-05-31 08:09:00,
2013-05-31 04:10:00,66.9,66.4,30.17,ESE,119,0.0,0.0,98,0.00,,,0.00,0.00,VWS V14.01,2013-05-31 08:10:00,
2013-05-31 04:11:00,66.8,66.3,30.17,ESE,119,0.0,0.0,98,0.00,,,0.00,0.00,VWS V14.01,2013-05-31 08:11:00,
2013-05-31 04:12:00,66.8,66.3,30.17,ESE,119,0.0,0.0,98,0.00,,,0.00,0.00,VWS V14.01,2013-05-31 08:12:00,
2013-05-31 04:13:00,66.8,66.3,30.17,ESE,119,0.0,0.0,98,0.00,,,0.00,0.00,VWS V14.01,2013-05-31 08:13:00,
2013-05-31 04:14:00,66.8,65.9,30.17,ESE,119,0.0,0.0,97,0.00,,,0.00,0.00,VWS V14.01,2013-05-31 08:14:00,
2013-05-31 04:15:00,66.8,66.2,30.17,ESE,119,0.0,0.0,98,0.00,,,0.00,0.00,VWS V14.01,2013-05-31 08:15:00,
2013-05-31 04:16:00,66.8,66.2,30.17,ESE,119,0.0,0.0,98,0.00,,,0.00,0.00,VWS V14.01,2013-05-31 08:16:00,
2013-05-31 04:17:00,66.8,66.2,30.17,ESE,119,0.0,0.0,98,0.00,,,0.00,0.00,VWS V14.01,2013-05-31 08:17:00,
2013-05-31 04:18:00,66.8,66.3,30.17,ESE,119,0.0,0.0,98,0.00,,,0.00,0.00,VWS V14.01,2013-05-31 08:18:00,
2013-05-31 04:19:00,66.8,66.3,30.17,ESE,119,0.0,0.0,98,0.00,,,0.00,0.00,VWS V14.01,2013-05-31 08:19:00,
2013-05-31 04:20:00,66.8,66.3,30.17,ESE,119,0.0,0.0,98,0.00,,,0.00,0.00,VWS V14.01,2013-05-31 08:20:00,
2013-05-31 04:21:00,66.8,66.3,30.17,ESE,119,0.0,0.0,98,0.00,,,0.00,0.00,VWS V14.01,2013-05-31 08:21:00,
2013-05-31 04:22:00,66.8,66.3,30.17,ESE,119,0.0,0.0,98,0.00,,,0.00,0.00,VWS V14.01,2013-05-31 08:22:00,
2013-05-31 04:23:00,66.8,66.3,30.17,ESE,119,0.0,0.0,98,0.00,,,0.00,0.00,VWS V14.01,2013-05-31 08:23:00,
2013-05-31 04:24:00,66.8,66.3,30.17,ESE,119,0.0,0.0,98,0.00,,,0.00,0.00,VWS V14.01,2013-05-31 08:24:00,
2013-05-31 04:25:00,66.8,66.3,30.17,ESE,119,0.0,0.0,98,0.00,,,0.00,0.00,VWS V14.01,2013-05-31 08:25:00,
2013-05-31 04:26:00,66.8,66.3,30.17,ESE,119,0.0,0.0,98,0.00,,,0.00,0.00,VWS V14.01,2013-05-31 08:26:00,
2013-05-31 04:27:00,66.8,66.3,30.17,ESE,119,0.0,0.0,98,0.00,,,0.00,0.00,VWS V14.01,2013-05-31 08:27:00,
2013-05-31 04:28:00,66.8,66.3,30.17,ESE,119,0.0,0.0,98,0.00,,,0.00,0.00,VWS V14.01,2013-05-31 08:28:00,
2013-05-31 04:29:00,66.9,66.4,30.17,ESE,119,0.0,0.0,98,0.00,,,0.00,0.00,VWS V14.01,2013-05-31 08:29:00,
2013-05-31 04:30:00,66.9,66.4,30.17,ESE,119,0.0,0.0,98,0.00,,,0.00,0.00,VWS V14.01,2013-05-31 08:30:00,
2013-05-31 04:31:00,67.1,66.5,30.17,ESE,119,0.0,0.0,98,0.00,,,0.00,0.00,VWS V14.01,2013-05-31 08:31:00,
2013-05-31 04:32:00,67.1,66.5,30.17,ESE,119,0.0,0.0,98,0.00,,,0.00,0.00,VWS V14.01,2013-05-31 08:32:00,
2013-05-31 04:33:00,67.1,66.5,30.17,ESE,119,0.0,0.0,98,0.00,,,0.00,0.00,VWS V14.01,2013-05-31 08:33:00,
2013-05-31 04:34:00,67.1,66.5,30.17,ESE,119,0.0,0.0,98,0.00,,,0.00,0.00,VWS V14.01,2013-05-31 08:34:00,
2013-05-31 04:35:00,67.1,66.5,30.17,ESE,119,0.0,0.0,98,0.00,,,0.00,0.00,VWS V14.01,2013-05-31 08:35:00,
2013-05-31 04:36:00,67.1,66.5,30.17,ESE,119,0.0,0.0,98,0.00,,,0.00,0.00,VWS V14.01,2013-05-31 08:36:00,
2013-05-31 04:37:00,67.1,66.5,30.17,ESE,119,0.0,0.0,98,0.00,,,0.00,0.00,VWS V14.01,2013-05-31 08:37:00,
2013-05-31 04:38:00,67.1,66.2,30.17,ESE,119,0.0,0.0,97,0.00,,,0.00,0.00,VWS V14.01,2013-05-31 08:38:00,
2013-05-31 04:39:00,66.9,66.1,30.17,ESE,119,0.0,0.0,97,0.00,,,0.00,0.00,VWS V14.01,2013-05-31 08:39:00,
2013-05-31 04:40:00,66.9,66.1,30.17,ESE,119,0.0,0.0,97,0.00,,,0.00,0.00,VWS V14.01,2013-05-31 08:40:00,
2013-05-31 04:41:00,66.9,66.4,30.17,ESE,119,0.0,0.0,98,0.00,,,0.00,0.00,VWS V14.01,2013-05-31 08:41:00,
2013-05-31 04:42:00,66.9,66.4,30.17,ESE,119,0.0,0.0,98,0.00,,,0.00,0.00,VWS V14.01,2013-05-31 08:42:00,
2013-05-31 04:43:00,66.9,66.4,30.17,ESE,119,0.0,0.0,98,0.00,,,0.00,0.00,VWS V14.01,2013-05-31 08:43:00,
2013-05-31 04:44:00,66.9,66.4,30.17,ESE,119,0.0,0.0,98,0.00,,,0.00,0.00,VWS V14.01,2013-05-31 08:44:00,
2013-05-31 04:45:00,66.8,66.3,30.17,ESE,119,0.0,0.0,98,0.00,,,0.00,0.00,VWS V14.01,2013-05-31 08:45:00,
2013-05-31 04:46:00,66.8,66.2,30.17,ESE,119,0.0,0.0,98,0.00,,,0.00,0.00,VWS V14.01,2013-05-31 08:46:00,
2013-05-31 04:47:00,66.8,66.2,30.17,ESE,119,0.0,0.0,98,0.00,,,0.00,0.00,VWS V14.01,2013-05-31 08:47:00,
2013-05-31 04:48:00,66.7,66.1,30.17,ESE,119,0.0,0.0,98,0.00,,,0.00,0.00,VWS V14.01,2013-05-31 08:48:00,
2013-05-31 04:49:00,66.7,66.1,30.17,ESE,119,0.0,0.0,98,0.00,,,0.00,0.00,VWS V14.01,2013-05-31 08:49:00,
2013-05-31 04:50:00,66.7,66.1,30.17,ESE,119,0.0,0.0,98,0.00,,,0.00,0.00,VWS V14.01,2013-05-31 08:50:00,
2013-05-31 04:51:00,66.8,66.2,30.17,ESE,119,0.0,0.0,98,0.00,,,0.00,0.00,VWS V14.01,2013-05-31 08:51:00,
2013-05-31 04:52:00,66.8,66.2,30.17,ESE,119,0.0,0.0,98,0.00,,,0.00,0.00,VWS V14.01,2013-05-31 08:52:00,
2013-05-31 04:53:00,66.8,66.2,30.17,ESE,119,0.0,0.0,98,0.00,,,0.00,0.00,VWS V14.01,2013-05-31 08:53:00,
2013-05-31 04:54:00,66.8,66.3,30.17,ESE,119,0.0,0.0,98,0.00,,,0.00,0.00,VWS V14.01,2013-05-31 08:54:00,
2013-05-31 04:55:00,66.8,66.3,30.17,ESE,119,0.0,0.0,98,0.00,,,0.00,0.00,VWS V14.01,2013-05-31 08:55:00,
2013-05-31 04:56:00,66.8,66.3,30.17,ESE,119,0.0,0.0,98,0.00,,,0.00,0.00,VWS V14.01,2013-05-31 08:56:00,
2013-05-31 04:57:00,66.8,66.3,30.17,ESE,119,0.0,0.0,98,0.00,,,0.00,0.00,VWS V14.01,2013-05-31 08:57:00,
2013-05-31 04:58:00,66.8,66.3,30.17,ESE,119,0.0,0.0,98,0.00,,,0.00,0.00,VWS V14.01,2013-05-31 08:58:00,
2013-05-31 04:59:00,66.9,66.4,30.17,ESE,119,0.0,0.0,98,0.00,,,0.00,0.00,VWS V14.01,2013-05-31 08:59:00,
2013-05-31 05:00:00,66.8,66.3,30.17,ESE,119,0.0,0.0,98,0.00,,,0.00,0.00,VWS V14.01,2013-05-31 09:00:00,
2013-05-31 05:01:00,66.8,66.3,30.17,ESE,119,0.0,0.0,98,0.00,,,0.00,0.00,VWS V14.01,2013-05-31 09:01:00,
2013-05-31 05:02:00,66.9,66.4,30.17,ESE,119,0.0,0.0,98,0.00,,,0.00,0.00,VWS V14.01,2013-05-31 09:02:00,
2013-05-31 05:03:00,66.9,66.4,30.17,ESE,119,0.0,0.0,98,0.00,,,0.00,0.00,VWS V14.01,2013-05-31 09:03:00,
2013-05-31 05:04:00,66.9,66.4,30.17,ESE,119,0.0,0.0,98,0.00,,,0.00,0.00,VWS V14.01,2013-05-31 09:04:00,
2013-05-31 05:05:00,66.9,66.4,30.17,ESE,119,0.0,0.0,98,0.00,,,0.00,0.00,VWS V14.01,2013-05-31 09:05:00,
2013-05-31 05:06:00,66.9,66.4,30.17,ESE,119,0.0,0.0,98,0.00,,,0.00,0.00,VWS V14.01,2013-05-31 09:06:00,
2013-05-31 05:07:00,66.9,66.4,30.17,ESE,119,0.0,0.0,98,0.00,,,0.00,0.00,VWS V14.01,2013-05-31 09:07:00,
2013-05-31 05:08:00,66.9,66.4,30.17,ESE,119,0.0,0.0,98,0.00,,,0.00,0.00,VWS V14.01,2013-05-31 09:08:00,
2013-05-31 05:09:00,66.8,66.3,30.17,ESE,119,0.0,0.0,98,0.00,,,0.00,0.00,VWS V14.01,2013-05-31 09:09:00,
2013-05-31 05:10:00,66.9,66.4,30.17,ESE,119,0.0,0.0,98,0.00,,,0.00,0.00,VWS V14.01,2013-05-31 09:10:00,
2013-05-31 05:11:00,66.9,66.4,30.17,ESE,119,0.0,0.0,98,0.00,,,0.00,0.00,VWS V14.01,2013-05-31 09:11:00,
2013-05-31 05:12:00,66.8,66.3,30.17,ESE,119,0.0,0.0,98,0.00,,,0.00,0.00,VWS V14.01,2013-05-31 09:12:00,
2013-05-31 05:13:00,66.9,66.4,30.17,ESE,119,0.0,0.0,98,0.00,,,0.00,0.00,VWS V14.01,2013-05-31 09:13:00,
2013-05-31 05:14:00,66.9,66.4,30.17,ESE,119,0.0,0.0,98,0.00,,,0.00,0.00,VWS V14.01,2013-05-31 09:14:00,
2013-05-31 05:15:00,66.9,66.4,30.17,ESE,119,0.0,0.0,98,0.00,,,0.00,0.00,VWS V14.01,2013-05-31 09:15:00,
2013-05-31 05:16:00,66.8,66.3,30.17,ESE,119,0.0,0.0,98,0.00,,,0.00,0.00,VWS V14.01,2013-05-31 09:16:00,
2013-05-31 05:17:00,66.8,66.3,30.17,ESE,119,0.0,0.0,98,0.00,,,0.00,0.00,VWS V14.01,2013-05-31 09:17:00,
2013-05-31 05:18:00,66.8,66.2,30.17,ESE,119,0.0,0.0,98,0.00,,,0.00,0.00,VWS V14.01,2013-05-31 09:18:00,
2013-05-31 05:19:00,66.7,66.1,30.18,ESE,119,0.0,0.0,98,0.00,,,0.00,0.00,VWS V14.01,2013-05-31 09:19:00,
2013-05-31 05:20:00,66.7,66.1,30.17,ESE,119,0.0,0.0,98,0.00,,,0.00,0.00,VWS V14.01,2013-05-31 09:20:00,
2013-05-31 05:21:00,66.7,65.8,30.18,ESE,119,0.0,0.0,97,0.00,,,0.00,0.00,VWS V14.01,2013-05-31 09:21:00,
2013-05-31 05:22:00,66.7,65.8,30.18,ESE,119,0.0,0.0,97,0.00,,,0.00,0.00,VWS V14.01,2013-05-31 09:22:00,
2013-05-31 05:23:00,66.7,66.1,30.18,ESE,119,0.0,0.0,98,0.00,,,0.00,0.00,VWS V14.01,2013-05-31 09:23:00,
2013-05-31 05:24:00,66.7,66.1,30.18,ESE,119,0.0,0.0,98,0.00,,,0.00,0.00,VWS V14.01,2013-05-31 09:24:00,
2013-05-31 05:25:00,66.8,66.2,30.18,ESE,119,0.0,0.0,98,0.00,,,0.00,0.00,VWS V14.01,2013-05-31 09:25:00,
2013-05-31 05:26:00,66.8,66.2,30.18,ESE,119,0.0,0.0,98,0.00,,,0.00,0.00,VWS V14.01,2013-05-31 09:26:00,
2013-05-31 05:27:00,66.8,66.2,30.18,ESE,119,0.0,0.0,98,0.00,,,0.00,0.00,VWS V14.01,2013-05-31 09:27:00,
2013-05-31 05:28:00,66.8,66.2,30.18,ESE,119,0.0,0.0,98,0.00,,,0.00,0.00,VWS V14.01,2013-05-31 09:28:00,
2013-05-31 05:29:00,66.8,66.2,30.18,ESE,119,0.0,0.0,98,0.00,,,0.00,0.00,VWS V14.01,2013-05-31 09:29:00,
2013-05-31 05:30:00,66.8,66.2,30.18,ESE,119,0.0,0.0,98,0.00,,,0.00,0.00,VWS V14.01,2013-05-31 09:30:00,
2013-05-31 05:31:00,66.8,66.2,30.18,ESE,119,0.0,0.0,98,0.00,,,0.00,0.00,VWS V14.01,2013-05-31 09:31:00,
2013-05-31 05:32:00,66.8,66.2,30.18,ESE,119,0.0,0.0,98,0.00,,,0.00,0.00,VWS V14.01,2013-05-31 09:32:00,
2013-05-31 05:33:00,66.8,66.3,30.18,ESE,119,0.0,0.0,98,0.00,,,0.00,0.00,VWS V14.01,2013-05-31 09:33:00,
2013-05-31 05:34:00,66.8,66.3,30.18,ESE,119,0.0,0.0,98,0.00,,,0.00,0.00,VWS V14.01,2013-05-31 09:34:00,
2013-05-31 05:35:00,66.8,66.3,30.18,ESE,119,0.0,0.0,98,0.00,,,0.00,0.00,VWS V14.01,2013-05-31 09:35:00,
2013-05-31 05:36:00,66.8,66.3,30.18,ESE,119,0.0,0.0,98,0.00,,,0.00,0.00,VWS V14.01,2013-05-31 09:36:00,
2013-05-31 05:37:00,66.8,66.3,30.18,ESE,119,0.0,0.0,98,0.00,,,0.00,0.00,VWS V14.01,2013-05-31 09:37:00,
2013-05-31 05:38:00,66.8,66.3,30.18,ESE,119,0.0,0.0,98,0.00,,,0.00,0.00,VWS V14.01,2013-05-31 09:38:00,
2013-05-31 05:39:00,66.8,66.3,30.17,ESE,119,0.0,0.0,98,0.00,,,0.00,0.00,VWS V14.01,2013-05-31 09:39:00,
2013-05-31 05:40:00,66.8,66.3,30.18,ESE,119,0.0,0.0,98,0.00,,,0.00,0.00,VWS V14.01,2013-05-31 09:40:00,
2013-05-31 05:41:00,66.8,66.3,30.17,ESE,119,0.0,0.0,98,0.00,,,0.00,0.00,VWS V14.01,2013-05-31 09:41:00,
2013-05-31 05:42:00,66.8,66.3,30.17,ESE,119,0.0,0.0,98,0.00,,,0.00,0.00,VWS V14.01,2013-05-31 09:42:00,
2013-05-31 05:43:00,66.8,66.3,30.17,ESE,119,0.0,0.0,98,0.00,,,0.00,0.00,VWS V14.01,2013-05-31 09:43:00,
2013-05-31 05:44:00,66.8,66.3,30.18,ESE,119,0.0,0.0,98,0.00,,,0.00,0.00,VWS V14.01,2013-05-31 09:44:00,
2013-05-31 05:45:00,66.8,66.2,30.18,ESE,119,0.0,0.0,98,0.00,,,0.00,0.00,VWS V14.01,2013-05-31 09:45:00,
2013-05-31 05:46:00,66.8,66.2,30.18,ESE,119,0.0,0.0,98,0.00,,,0.00,0.00,VWS V14.01,2013-05-31 09:46:00,
2013-05-31 05:47:00,66.8,66.2,30.18,ESE,119,0.0,0.0,98,0.00,,,0.00,0.00,VWS V14.01,2013-05-31 09:47:00,
2013-05-31 05:48:00,66.8,66.2,30.18,ESE,119,0.0,0.0,98,0.00,,,0.00,0.00,VWS V14.01,2013-05-31 09:48:00,
2013-05-31 05:49:00,66.8,66.2,30.18,ESE,119,0.0,0.0,98,0.00,,,0.00,0.00,VWS V14.01,2013-05-31 09:49:00,
2013-05-31 05:50:00,66.8,66.2,30.18,ESE,119,0.0,0.0,98,0.00,,,0.00,0.00,VWS V14.01,2013-05-31 09:50:00,
2013-05-31 05:51:00,66.7,66.1,30.18,ESE,119,0.0,0.0,98,0.00,,,0.00,0.00,VWS V14.01,2013-05-31 09:51:00,
2013-05-31 05:52:00,66.6,66.0,30.18,ESE,119,0.0,0.0,98,0.00,,,0.00,0.00,VWS V14.01,2013-05-31 09:52:00,
2013-05-31 05:53:00,66.6,66.0,30.18,ESE,119,0.0,0.0,98,0.00,,,0.00,0.00,VWS V14.01,2013-05-31 09:53:00,
2013-05-31 05:54:00,66.6,66.0,30.18,ESE,119,0.0,0.0,98,0.00,,,0.00,0.00,VWS V14.01,2013-05-31 09:54:00,
2013-05-31 05:55:00,66.6,66.0,30.18,ESE,119,0.0,0.0,98,0.00,,,0.00,0.00,VWS V14.01,2013-05-31 09:55:00,
2013-05-31 05:56:00,66.6,66.0,30.18,ESE,119,0.0,0.0,98,0.00,,,0.00,0.00,VWS V14.01,2013-05-31 09:56:00,
2013-05-31 05:57:00,66.6,66.0,30.18,ESE,119,0.0,0.0,98,0.00,,,0.00,0.00,VWS V14.01,2013-05-31 09:57:00,
2013-05-31 05:58:00,66.7,66.1,30.18,ESE,119,0.0,0.0,98,0.00,,,0.00,0.00,VWS V14.01,2013-05-31 09:58:00,
2013-05-31 05:59:00,66.7,66.1,30.18,ESE,119,0.0,0.0,98,0.00,,,0.00,0.00,VWS V14.01,2013-05-31 09:59:00,
2013-05-31 06:00:00,66.7,66.1,30.18,ESE,119,0.0,0.0,98,0.00,,,0.00,0.00,VWS V14.01,2013-05-31 10:00:00,
2013-05-31 06:01:00,66.7,66.1,30.18,ESE,119,0.0,0.0,98,0.00,,,0.00,0.00,VWS V14.01,2013-05-31 10:01:00,
2013-05-31 06:02:00,66.7,66.1,30.18,ESE,119,0.0,0.0,98,0.00,,,0.00,0.00,VWS V14.01,2013-05-31 10:02:00,
2013-05-31 06:03:00,66.7,66.1,30.18,ESE,119,0.0,0.0,98,0.00,,,0.00,0.00,VWS V14.01,2013-05-31 10:03:00,
2013-05-31 06:04:00,66.7,66.1,30.18,ESE,119,0.0,0.0,98,0.00,,,0.00,0.00,VWS V14.01,2013-05-31 10:04:00,
2013-05-31 06:05:00,66.7,66.1,30.18,ESE,119,0.0,0.0,98,0.00,,,0.00,0.00,VWS V14.01,2013-05-31 10:05:00,
2013-05-31 06:06:00,66.7,66.1,30.18,ESE,119,0.0,0.0,98,0.00,,,0.00,0.00,VWS V14.01,2013-05-31 10:06:00,
2013-05-31 06:07:00,66.7,66.1,30.18,ESE,119,0.0,0.0,98,0.00,,,0.00,0.00,VWS V14.01,2013-05-31 10:07:00,
2013-05-31 06:08:00,66.7,66.1,30.18,ESE,119,0.0,0.0,98,0.00,,,0.00,0.00,VWS V14.01,2013-05-31 10:08:00,
2013-05-31 06:09:00,66.7,66.1,30.18,ESE,119,0.0,0.0,98,0.00,,,0.00,0.00,VWS V14.01,2013-05-31 10:09:00,
2013-05-31 06:10:00,66.7,66.1,30.18,SE,125,0.0,0.0,98,0.00,,,0.00,0.00,VWS V14.01,2013-05-31 10:10:00,
2013-05-31 06:11:00,66.7,66.1,30.18,SE,125,0.0,0.0,98,0.00,,,0.00,0.00,VWS V14.01,2013-05-31 10:11:00,
2013-05-31 06:12:00,66.7,66.1,30.18,SE,125,0.0,0.0,98,0.00,,,0.00,0.00,VWS V14.01,2013-05-31 10:12:00,
2013-05-31 06:13:00,66.7,66.1,30.18,SE,124,0.0,0.0,98,0.00,,,0.00,0.00,VWS V14.01,2013-05-31 10:13:00,
2013-05-31 06:14:00,66.7,66.1,30.18,SE,124,0.0,0.0,98,0.00,,,0.00,0.00,VWS V14.01,2013-05-31 10:14:00,
2013-05-31 06:15:00,66.7,66.1,30.18,ESE,123,0.0,0.0,98,0.00,,,0.00,0.00,VWS V14.01,2013-05-31 10:15:00,
2013-05-31 06:16:00,66.7,66.1,30.18,ESE,123,0.0,0.0,98,0.00,,,0.00,0.00,VWS V14.01,2013-05-31 10:16:00,
2013-05-31 06:17:00,66.7,66.1,30.18,ESE,123,0.0,0.0,98,0.00,,,0.00,0.00,VWS V14.01,2013-05-31 10:17:00,
2013-05-31 06:18:00,66.7,66.1,30.18,NE,47,0.0,0.0,98,0.00,,,0.00,0.00,VWS V14.01,2013-05-31 10:18:00,
2013-05-31 06:19:00,66.7,66.1,30.18,NE,47,0.0,0.0,98,0.00,,,0.00,0.00,VWS V14.01,2013-05-31 10:19:00,
2013-05-31 06:20:00,66.7,66.1,30.18,NE,47,0.0,0.0,98,0.00,,,0.00,0.00,VWS V14.01,2013-05-31 10:20:00,
2013-05-31 06:21:00,66.7,66.1,30.18,NE,47,0.0,0.0,98,0.00,,,0.00,5.00,VWS V14.01,2013-05-31 10:21:00,
2013-05-31 06:22:00,66.7,66.1,30.18,NE,47,0.0,0.0,98,0.00,,,0.00,5.00,VWS V14.01,2013-05-31 10:22:00,
2013-05-31 06:23:00,66.7,66.1,30.18,NE,47,0.0,0.0,98,0.00,,,0.00,5.00,VWS V14.01,2013-05-31 10:23:00,
2013-05-31 06:24:00,66.7,66.1,30.18,NE,47,0.0,0.0,98,0.00,,,0.00,5.00,VWS V14.01,2013-05-31 10:24:00,
2013-05-31 06:25:00,66.7,66.1,30.18,NE,47,0.0,0.0,98,0.00,,,0.00,5.00,VWS V14.01,2013-05-31 10:25:00,
2013-05-31 06:26:00,66.7,66.1,30.18,NE,47,0.0,0.0,98,0.00,,,0.00,5.00,VWS V14.01,2013-05-31 10:26:00,
2013-05-31 06:27:00,66.8,66.2,30.18,NE,47,0.0,0.0,98,0.00,,,0.00,7.00,VWS V14.01,2013-05-31 10:27:00,
2013-05-31 06:28:00,66.8,66.2,30.18,NE,47,0.0,0.0,98,0.00,,,0.00,7.00,VWS V14.01,2013-05-31 10:28:00,
2013-05-31 06:29:00,66.8,66.2,30.18,NE,47,0.0,0.0,98,0.00,,,0.00,7.00,VWS V14.01,2013-05-31 10:29:00,
2013-05-31 06:30:00,66.8,66.2,30.18,NE,47,0.0,0.0,98,0.00,,,0.00,7.00,VWS V14.01,2013-05-31 10:30:00,
2013-05-31 06:31:00,66.8,66.2,30.18,NE,47,0.0,0.0,98,0.00,,,0.00,7.00,VWS V14.01,2013-05-31 10:31:00,
2013-05-31 06:32:00,66.8,66.2,30.18,NE,47,0.0,0.0,98,0.00,,,0.00,9.00,VWS V14.01,2013-05-31 10:32:00,
2013-05-31 06:33:00,66.8,66.2,30.18,NE,47,0.0,0.0,98,0.00,,,0.00,7.00,VWS V14.01,2013-05-31 10:33:00,
2013-05-31 06:34:00,66.8,66.2,30.18,NE,47,0.0,0.0,98,0.00,,,0.00,9.00,VWS V14.01,2013-05-31 10:34:00,
2013-05-31 06:35:00,66.8,66.2,30.18,NE,47,0.0,0.0,98,0.00,,,0.00,9.00,VWS V14.01,2013-05-31 10:35:00,
2013-05-31 06:36:00,66.8,66.2,30.18,NE,47,0.0,0.0,98,0.00,,,0.00,9.00,VWS V14.01,2013-05-31 10:36:00,
2013-05-31 06:37:00,66.8,66.2,30.18,NE,47,0.0,0.0,98,0.00,,,0.00,9.00,VWS V14.01,2013-05-31 10:37:00,
2013-05-31 06:38:00,66.8,66.2,30.18,NE,47,0.0,0.0,98,0.00,,,0.00,11.00,VWS V14.01,2013-05-31 10:38:00,
2013-05-31 06:39:00,66.8,66.3,30.18,NE,47,0.0,0.0,98,0.00,,,0.00,9.00,VWS V14.01,2013-05-31 10:39:00,
2013-05-31 06:40:00,66.8,66.3,30.18,NE,47,0.0,0.0,98,0.00,,,0.00,11.00,VWS V14.01,2013-05-31 10:40:00,
2013-05-31 06:41:00,66.8,66.3,30.18,NE,47,0.0,0.0,98,0.00,,,0.00,11.00,VWS V14.01,2013-05-31 10:41:00,
2013-05-31 06:42:00,66.8,66.3,30.18,NE,47,0.0,0.0,98,0.00,,,0.00,11.00,VWS V14.01,2013-05-31 10:42:00,
2013-05-31 06:43:00,66.8,66.3,30.18,NE,47,0.0,0.0,98,0.00,,,0.00,11.00,VWS V14.01,2013-05-31 10:43:00,
2013-05-31 06:44:00,66.8,66.3,30.18,NE,47,0.0,0.0,98,0.00,,,0.00,11.00,VWS V14.01,2013-05-31 10:44:00,
2013-05-31 06:45:00,66.8,66.3,30.18,NE,47,0.0,0.0,98,0.00,,,0.00,11.00,VWS V14.01,2013-05-31 10:45:00,
2013-05-31 06:46:00,66.8,66.3,30.18,NE,47,0.0,0.0,98,0.00,,,0.00,11.00,VWS V14.01,2013-05-31 10:46:00,
2013-05-31 06:47:00,66.8,66.3,30.18,NE,47,0.0,0.0,98,0.00,,,0.00,11.00,VWS V14.01,2013-05-31 10:47:00,
2013-05-31 06:48:00,66.9,66.4,30.18,NE,47,0.0,0.0,98,0.00,,,0.00,11.00,VWS V14.01,2013-05-31 10:48:00,
2013-05-31 06:49:00,66.9,66.4,30.18,NE,47,0.0,0.0,98,0.00,,,0.00,11.00,VWS V14.01,2013-05-31 10:49:00,
2013-05-31 06:50:00,66.9,66.4,30.18,NE,47,0.0,0.0,98,0.00,,,0.00,12.00,VWS V14.01,2013-05-31 10:50:00,
2013-05-31 06:51:00,66.9,66.4,30.18,NE,47,0.0,0.0,98,0.00,,,0.00,12.00,VWS V14.01,2013-05-31 10:51:00,
2013-05-31 06:52:00,67.1,66.5,30.18,NE,47,0.0,0.0,98,0.00,,,0.00,12.00,VWS V14.01,2013-05-31 10:52:00,
2013-05-31 06:53:00,67.1,66.5,30.18,NE,47,0.0,0.0,98,0.00,,,0.00,14.00,VWS V14.01,2013-05-31 10:53:00,
2013-05-31 06:54:00,67.1,66.5,30.18,NE,47,0.0,0.0,98,0.00,,,0.00,14.00,VWS V14.01,2013-05-31 10:54:00,
2013-05-31 06:55:00,67.1,66.5,30.18,NE,47,0.0,0.0,98,0.00,,,0.00,14.00,VWS V14.01,2013-05-31 10:55:00,
2013-05-31 06:56:00,67.1,66.5,30.18,NE,47,0.0,0.0,98,0.00,,,0.00,14.00,VWS V14.01,2013-05-31 10:56:00,
2013-05-31 06:57:00,67.1,66.5,30.18,NE,47,0.0,0.0,98,0.00,,,0.00,14.00,VWS V14.01,2013-05-31 10:57:00,
2013-05-31 06:58:00,67.1,66.5,30.18,NE,47,0.0,0.0,98,0.00,,,0.00,14.00,VWS V14.01,2013-05-31 10:58:00,
2013-05-31 06:59:00,67.1,66.5,30.18,NE,47,0.0,0.0,98,0.00,,,0.00,16.00,VWS V14.01,2013-05-31 10:59:00,
2013-05-31 07:00:00,67.2,66.6,30.18,NE,47,0.0,0.0,98,0.00,,,0.00,16.00,VWS V14.01,2013-05-31 11:00:00,
2013-05-31 07:01:00,67.2,66.6,30.18,NE,47,0.0,0.0,98,0.00,,,0.00,16.00,VWS V14.01,2013-05-31 11:01:00,
2013-05-31 07:02:00,67.2,66.6,30.18,NE,47,0.0,0.0,98,0.00,,,0.00,16.00,VWS V14.01,2013-05-31 11:02:00,
2013-05-31 07:03:00,67.2,66.7,30.18,NE,47,0.0,0.0,98,0.00,,,0.00,18.00,VWS V14.01,2013-05-31 11:03:00,
2013-05-31 07:04:00,67.2,66.7,30.18,NE,47,0.0,0.0,98,0.00,,,0.00,18.00,VWS V14.01,2013-05-31 11:04:00,
2013-05-31 07:05:00,67.2,66.7,30.18,NE,47,0.0,0.0,98,0.00,,,0.00,18.00,VWS V14.01,2013-05-31 11:05:00,
2013-05-31 07:06:00,67.3,66.8,30.18,NE,47,0.0,0.0,98,0.00,,,0.00,18.00,VWS V14.01,2013-05-31 11:06:00,
2013-05-31 07:07:00,67.3,66.8,30.18,NE,47,0.0,0.0,98,0.00,,,0.00,18.00,VWS V14.01,2013-05-31 11:07:00,
2013-05-31 07:08:00,67.3,66.8,30.18,NE,47,0.0,0.0,98,0.00,,,0.00,19.00,VWS V14.01,2013-05-31 11:08:00,
2013-05-31 07:09:00,67.3,66.8,30.18,NE,47,0.0,0.0,98,0.00,,,0.00,19.00,VWS V14.01,2013-05-31 11:09:00,
2013-05-31 07:10:00,67.4,66.9,30.18,NE,47,0.0,0.0,98,0.00,,,0.00,19.00,VWS V14.01,2013-05-31 11:10:00,
2013-05-31 07:11:00,67.4,66.9,30.18,NE,47,0.0,0.0,98,0.00,,,0.00,19.00,VWS V14.01,2013-05-31 11:11:00,
2013-05-31 07:12:00,67.6,67.0,30.18,NE,47,0.0,0.0,98,0.00,,,0.00,19.00,VWS V14.01,2013-05-31 11:12:00,
2013-05-31 07:13:00,67.6,67.0,30.18,NE,47,0.0,0.0,98,0.00,,,0.00,21.00,VWS V14.01,2013-05-31 11:13:00,
2013-05-31 07:14:00,67.7,67.1,30.18,NE,47,0.0,0.0,98,0.00,,,0.00,21.00,VWS V14.01,2013-05-31 11:14:00,
2013-05-31 07:15:00,67.8,67.2,30.18,NE,47,0.0,0.0,98,0.00,,,0.00,21.00,VWS V14.01,2013-05-31 11:15:00,
2013-05-31 07:16:00,67.8,67.2,30.19,NE,47,0.0,0.0,98,0.00,,,0.00,21.00,VWS V14.01,2013-05-31 11:16:00,
2013-05-31 07:17:00,67.8,67.3,30.18,NE,47,0.0,0.0,98,0.00,,,0.00,21.00,VWS V14.01,2013-05-31 11:17:00,
2013-05-31 07:18:00,67.9,67.4,30.18,NE,47,0.0,0.0,98,0.00,,,0.00,21.00,VWS V14.01,2013-05-31 11:18:00,
2013-05-31 07:19:00,67.9,67.4,30.18,NE,47,0.0,0.0,98,0.00,,,0.00,23.00,VWS V14.01,2013-05-31 11:19:00,
2013-05-31 07:20:00,68.1,67.5,30.18,NE,47,0.0,0.0,98,0.00,,,0.00,23.00,VWS V14.01,2013-05-31 11:20:00,
2013-05-31 07:21:00,68.1,67.5,30.18,NE,47,0.0,0.0,98,0.00,,,0.00,23.00,VWS V14.01,2013-05-31 11:21:00,
2013-05-31 07:22:00,68.1,67.5,30.18,NE,47,0.0,0.0,98,0.00,,,0.00,23.00,VWS V14.01,2013-05-31 11:22:00,
2013-05-31 07:23:00,68.2,67.6,30.18,NE,47,0.0,0.0,98,0.00,,,0.00,25.00,VWS V14.01,2013-05-31 11:23:00,
2013-05-31 07:24:00,68.2,67.6,30.18,NE,47,0.0,0.0,98,0.00,,,0.00,25.00,VWS V14.01,2013-05-31 11:24:00,
2013-05-31 07:25:00,68.2,67.7,30.18,NE,47,0.0,0.0,98,0.00,,,0.00,25.00,VWS V14.01,2013-05-31 11:25:00,
2013-05-31 07:26:00,68.2,67.7,30.18,NE,47,0.0,0.0,98,0.00,,,0.00,25.00,VWS V14.01,2013-05-31 11:26:00,
2013-05-31 07:27:00,68.2,67.7,30.18,NE,47,0.0,0.0,98,0.00,,,0.00,25.00,VWS V14.01,2013-05-31 11:27:00,
2013-05-31 07:28:00,68.3,67.8,30.19,NE,47,0.0,0.0,98,0.00,,,0.00,26.00,VWS V14.01,2013-05-31 11:28:00,
2013-05-31 07:29:00,68.4,67.9,30.18,NE,47,0.0,0.0,98,0.00,,,0.00,28.00,VWS V14.01,2013-05-31 11:29:00,
2013-05-31 07:30:00,68.4,67.9,30.18,NE,47,0.0,0.0,98,0.00,,,0.00,28.00,VWS V14.01,2013-05-31 11:30:00,
2013-05-31 07:31:00,68.4,67.9,30.18,NE,47,0.0,0.0,98,0.00,,,0.00,30.00,VWS V14.01,2013-05-31 11:31:00,
2013-05-31 07:32:00,68.6,68.0,30.18,NE,47,0.0,0.0,98,0.00,,,0.00,30.00,VWS V14.01,2013-05-31 11:32:00,
2013-05-31 07:33:00,68.7,68.1,30.18,NE,47,0.0,0.0,98,0.00,,,0.00,32.00,VWS V14.01,2013-05-31 11:33:00,
2013-05-31 07:34:00,68.7,68.1,30.18,NE,47,0.0,0.0,98,0.00,,,0.00,32.00,VWS V14.01,2013-05-31 11:34:00,
2013-05-31 07:35:00,68.7,68.1,30.18,NE,47,0.0,0.0,98,0.00,,,0.00,32.00,VWS V14.01,2013-05-31 11:35:00,
2013-05-31 07:36:00,68.8,68.2,30.18,NE,47,0.0,0.0,98,0.00,,,0.00,33.00,VWS V14.01,2013-05-31 11:36:00,
2013-05-31 07:37:00,68.8,68.3,30.18,NE,47,0.0,0.0,98,0.00,,,0.00,35.00,VWS V14.01,2013-05-31 11:37:00,
2013-05-31 07:38:00,68.8,68.3,30.18,NE,47,0.0,0.0,98,0.00,,,0.00,35.00,VWS V14.01,2013-05-31 11:38:00,
2013-05-31 07:39:00,68.9,68.4,30.18,NE,47,0.0,0.0,98,0.00,,,0.00,37.00,VWS V14.01,2013-05-31 11:39:00,
2013-05-31 07:40:00,68.9,68.4,30.18,NE,47,0.0,0.0,98,0.00,,,0.00,37.00,VWS V14.01,2013-05-31 11:40:00,
2013-05-31 07:41:00,69.1,68.5,30.18,NE,47,0.0,0.0,98,0.00,,,0.00,39.00,VWS V14.01,2013-05-31 11:41:00,
2013-05-31 07:42:00,69.2,68.6,30.18,NE,47,0.0,0.0,98,0.00,,,0.00,39.00,VWS V14.01,2013-05-31 11:42:00,
2013-05-31 07:43:00,69.2,68.6,30.18,NE,47,0.0,0.0,98,0.00,,,0.00,40.00,VWS V14.01,2013-05-31 11:43:00,
2013-05-31 07:44:00,69.2,68.7,30.18,NE,47,0.0,0.0,98,0.00,,,0.00,40.00,VWS V14.01,2013-05-31 11:44:00,
2013-05-31 07:45:00,69.3,68.8,30.18,NE,47,0.0,0.0,98,0.00,,,0.00,42.00,VWS V14.01,2013-05-31 11:45:00,
2013-05-31 07:46:00,69.3,68.8,30.18,NE,47,0.0,0.0,98,0.00,,,0.00,44.00,VWS V14.01,2013-05-31 11:46:00,
2013-05-31 07:47:00,69.4,68.9,30.18,NE,47,0.0,0.0,98,0.00,,,0.00,44.00,VWS V14.01,2013-05-31 11:47:00,
2013-05-31 07:48:00,69.6,69.0,30.18,NE,47,0.0,0.0,98,0.00,,,0.00,46.00,VWS V14.01,2013-05-31 11:48:00,
2013-05-31 07:49:00,69.8,69.2,30.18,NE,47,0.0,0.0,98,0.00,,,0.00,46.00,VWS V14.01,2013-05-31 11:49:00,
2013-05-31 07:50:00,69.8,69.3,30.19,NE,47,0.0,0.0,98,0.00,,,0.00,46.00,VWS V14.01,2013-05-31 11:50:00,
2013-05-31 07:51:00,70.1,69.5,30.19,NE,47,0.0,0.0,98,0.00,,,0.00,44.00,VWS V14.01,2013-05-31 11:51:00,
2013-05-31 07:52:00,70.2,69.7,30.19,NE,47,0.0,0.0,98,0.00,,,0.00,44.00,VWS V14.01,2013-05-31 11:52:00,
2013-05-31 07:53:00,70.4,69.9,30.19,NE,47,0.0,0.0,98,0.00,,,0.00,40.00,VWS V14.01,2013-05-31 11:53:00,
2013-05-31 07:54:00,70.7,70.1,30.19,NE,47,0.0,0.0,98,0.00,,,0.00,40.00,VWS V14.01,2013-05-31 11:54:00,
2013-05-31 07:55:00,70.8,70.2,30.19,NE,47,0.0,0.0,98,0.00,,,0.00,42.00,VWS V14.01,2013-05-31 11:55:00,
2013-05-31 07:56:00,70.8,70.3,30.19,East,100,0.0,0.0,98,0.00,,,0.00,42.00,VWS V14.01,2013-05-31 11:56:00,
2013-05-31 07:57:00,70.8,70.3,30.19,East,94,0.0,0.0,98,0.00,,,0.00,46.00,VWS V14.01,2013-05-31 11:57:00,
2013-05-31 07:58:00,70.8,70.3,30.19,East,94,0.0,0.0,98,0.00,,,0.00,49.00,VWS V14.01,2013-05-31 11:58:00,
2013-05-31 07:59:00,70.8,70.3,30.19,East,94,0.0,0.0,98,0.00,,,0.00,49.00,VWS V14.01,2013-05-31 11:59:00,
2013-05-31 08:00:00,70.9,70.4,30.19,East,94,0.0,0.0,98,0.00,,,0.00,51.00,VWS V14.01,2013-05-31 12:00:00,
2013-05-31 08:01:00,71.1,70.5,30.19,East,94,0.0,0.0,98,0.00,,,0.00,51.00,VWS V14.01,2013-05-31 12:01:00,
2013-05-31 08:02:00,71.1,70.5,30.19,East,94,0.0,0.0,98,0.00,,,0.00,53.00,VWS V14.01,2013-05-31 12:02:00,
2013-05-31 08:03:00,71.2,70.6,30.19,East,94,0.0,0.0,98,0.00,,,0.00,53.00,VWS V14.01,2013-05-31 12:03:00,
2013-05-31 08:04:00,71.4,70.9,30.19,East,94,0.0,0.0,98,0.00,,,0.00,53.00,VWS V14.01,2013-05-31 12:04:00,
2013-05-31 08:05:00,71.8,71.2,30.19,East,94,0.0,0.0,98,0.00,,,0.00,53.00,VWS V14.01,2013-05-31 12:05:00,
2013-05-31 08:06:00,72.1,71.5,30.19,East,94,0.0,0.0,98,0.00,,,0.00,53.00,VWS V14.01,2013-05-31 12:06:00,
2013-05-31 08:07:00,72.2,71.6,30.19,East,94,0.0,0.0,98,0.00,,,0.00,53.00,VWS V14.01,2013-05-31 12:07:00,
2013-05-31 08:08:00,72.4,71.9,30.19,East,94,0.0,0.0,98,0.00,,,0.00,53.00,VWS V14.01,2013-05-31 12:08:00,
2013-05-31 08:09:00,72.7,72.1,30.19,East,94,0.0,0.0,98,0.00,,,0.00,54.00,VWS V14.01,2013-05-31 12:09:00,
2013-05-31 08:10:00,72.8,72.3,30.19,ESE,113,0.0,0.0,98,0.00,,,0.00,54.00,VWS V14.01,2013-05-31 12:10:00,
2013-05-31 08:11:00,72.9,72.4,30.19,ENE,58,0.0,0.0,98,0.00,,,0.00,54.00,VWS V14.01,2013-05-31 12:11:00,
2013-05-31 08:12:00,73.1,72.5,30.19,ENE,58,0.0,0.0,98,0.00,,,0.00,54.00,VWS V14.01,2013-05-31 12:12:00,
2013-05-31 08:13:00,73.2,72.7,30.19,ENE,58,0.0,0.0,98,0.00,,,0.00,56.00,VWS V14.01,2013-05-31 12:13:00,
2013-05-31 08:14:00,73.3,72.8,30.19,ENE,58,0.0,0.0,98,0.00,,,0.00,54.00,VWS V14.01,2013-05-31 12:14:00,
2013-05-31 08:15:00,73.4,72.9,30.20,ENE,58,0.0,0.0,98,0.00,,,0.00,56.00,VWS V14.01,2013-05-31 12:15:00,
2013-05-31 08:16:00,73.6,72.9,30.20,ENE,58,0.0,0.0,98,0.00,,,0.00,56.00,VWS V14.01,2013-05-31 12:16:00,
2013-05-31 08:17:00,73.7,73.1,30.20,ENE,58,0.0,0.0,98,0.00,,,0.00,56.00,VWS V14.01,2013-05-31 12:17:00,
2013-05-31 08:18:00,73.7,73.1,30.19,ENE,58,0.0,0.0,98,0.00,,,0.00,56.00,VWS V14.01,2013-05-31 12:18:00,
2013-05-31 08:19:00,73.8,73.2,30.20,ENE,58,0.0,0.0,98,0.00,,,0.00,60.00,VWS V14.01,2013-05-31 12:19:00,
2013-05-31 08:20:00,73.8,73.2,30.19,ENE,58,0.0,0.0,98,0.00,,,0.00,62.00,VWS V14.01,2013-05-31 12:20:00,
2013-05-31 08:21:00,73.9,73.3,30.20,ENE,58,0.0,0.0,98,0.00,,,0.00,62.00,VWS V14.01,2013-05-31 12:21:00,
2013-05-31 08:22:00,74.1,73.4,30.20,ENE,58,0.0,3.3,98,0.00,,,0.00,58.00,VWS V14.01,2013-05-31 12:22:00,
2013-05-31 08:23:00,74.2,73.6,30.20,SSE,151,2.2,2.2,98,0.00,,,0.00,62.00,VWS V14.01,2013-05-31 12:23:00,
2013-05-31 08:24:00,74.2,73.7,30.20,ESE,114,0.0,3.3,98,0.00,,,0.00,63.00,VWS V14.01,2013-05-31 12:24:00,
2013-05-31 08:25:00,74.3,73.8,30.20,ESE,114,0.0,0.0,98,0.00,,,0.00,65.00,VWS V14.01,2013-05-31 12:25:00,
2013-05-31 08:26:00,74.4,73.8,30.20,ESE,114,0.0,0.0,98,0.00,,,0.00,74.00,VWS V14.01,2013-05-31 12:26:00,
2013-05-31 08:27:00,74.6,73.9,30.20,NNE,33,0.0,0.0,98,0.00,,,0.00,76.00,VWS V14.01,2013-05-31 12:27:00,
2013-05-31 08:28:00,74.8,74.2,30.20,NNE,33,0.0,1.1,98,0.00,,,0.00,74.00,VWS V14.01,2013-05-31 12:28:00,
2013-05-31 08:29:00,74.8,74.2,30.20,NNE,33,0.0,0.0,98,0.00,,,0.00,84.00,VWS V14.01,2013-05-31 12:29:00,
2013-05-31 08:30:00,74.9,74.3,30.20,NNE,33,0.0,0.0,98,0.00,,,0.00,95.00,VWS V14.01,2013-05-31 12:30:00,
2013-05-31 08:31:00,75.2,74.6,30.20,NNE,33,0.0,0.0,98,0.00,,,0.00,104.00,VWS V14.01,2013-05-31 12:31:00,
2013-05-31 08:32:00,75.2,74.7,30.20,NNE,33,0.0,0.0,98,0.00,,,0.00,104.00,VWS V14.01,2013-05-31 12:32:00,
2013-05-31 08:33:00,75.4,74.8,30.20,NNE,33,0.0,0.0,98,0.00,,,0.00,102.00,VWS V14.01,2013-05-31 12:33:00,
2013-05-31 08:34:00,75.4,74.5,30.20,NNE,33,0.0,0.0,97,0.00,,,0.00,104.00,VWS V14.01,2013-05-31 12:34:00,
2013-05-31 08:35:00,75.7,74.7,30.20,NNE,33,0.0,1.1,97,0.00,,,0.00,107.00,VWS V14.01,2013-05-31 12:35:00,
2013-05-31 08:36:00,75.8,74.9,30.20,SE,138,2.2,2.2,97,0.00,,,0.00,84.00,VWS V14.01,2013-05-31 12:36:00,
2013-05-31 08:37:00,75.8,74.9,30.20,SSE,149,0.0,3.3,97,0.00,,,0.00,77.00,VWS V14.01,2013-05-31 12:37:00,
2013-05-31 08:38:00,75.8,74.9,30.20,SSE,149,1.1,1.1,97,0.00,,,0.00,81.00,VWS V14.01,2013-05-31 12:38:00,
2013-05-31 08:39:00,75.8,74.9,30.20,SSE,149,0.0,1.1,97,0.00,,,0.00,86.00,VWS V14.01,2013-05-31 12:39:00,
2013-05-31 08:40:00,75.9,74.7,30.20,SSE,149,0.0,0.0,96,0.00,,,0.00,97.00,VWS V14.01,2013-05-31 12:40:00,
2013-05-31 08:41:00,76.1,74.8,30.20,SSE,149,0.0,1.1,96,0.00,,,0.00,105.00,VWS V14.01,2013-05-31 12:41:00,
2013-05-31 08:42:00,76.1,74.8,30.20,SSE,149,0.0,1.1,96,0.00,,,0.00,107.00,VWS V14.01,2013-05-31 12:42:00,
2013-05-31 08:43:00,76.2,74.9,30.20,SSE,149,0.0,1.1,96,0.00,,,0.00,121.00,VWS V14.01,2013-05-31 12:43:00,
2013-05-31 08:44:00,76.2,75.0,30.20,SSE,149,0.0,0.0,96,0.00,,,0.00,135.00,VWS V14.01,2013-05-31 12:44:00,
2013-05-31 08:45:00,76.3,75.1,30.20,SSE,149,0.0,0.0,96,0.00,,,0.00,135.00,VWS V14.01,2013-05-31 12:45:00,
2013-05-31 08:46:00,76.4,74.9,30.20,SSE,149,0.0,0.0,95,0.00,,,0.00,127.00,VWS V14.01,2013-05-31 12:46:00,
2013-05-31 08:47:00,76.6,75.0,30.20,SSE,149,0.0,0.0,95,0.00,,,0.00,127.00,VWS V14.01,2013-05-31 12:47:00,
2013-05-31 08:48:00,76.7,75.1,30.20,SSE,164,0.0,1.1,95,0.00,,,0.00,130.00,VWS V14.01,2013-05-31 12:48:00,
2013-05-31 08:49:00,76.8,75.2,30.20,SSE,164,0.0,3.3,95,0.00,,,0.00,137.00,VWS V14.01,2013-05-31 12:49:00,
2013-05-31 08:50:00,76.8,75.3,30.20,SSE,164,0.0,1.1,95,0.00,,,0.00,134.00,VWS V14.01,2013-05-31 12:50:00,
2013-05-31 08:51:00,76.8,75.0,30.20,SSE,164,0.0,0.0,94,0.00,,,0.00,146.00,VWS V14.01,2013-05-31 12:51:00,
2013-05-31 08:52:00,76.9,75.1,30.20,SSE,164,1.1,2.2,94,0.00,,,0.00,153.00,VWS V14.01,2013-05-31 12:52:00,
2013-05-31 08:53:00,76.9,75.1,30.20,SSE,164,1.1,2.2,94,0.00,,,0.00,148.00,VWS V14.01,2013-05-31 12:53:00,
2013-05-31 08:54:00,77.1,74.9,30.20,SSE,164,0.0,1.1,93,0.00,,,0.00,139.00,VWS V14.01,2013-05-31 12:54:00,
2013-05-31 08:55:00,77.2,75.3,30.20,SSE,164,0.0,0.0,94,0.00,,,0.00,132.00,VWS V14.01,2013-05-31 12:55:00,
2013-05-31 08:56:00,77.2,75.4,30.20,SSE,164,0.0,0.0,94,0.00,,,0.00,118.00,VWS V14.01,2013-05-31 12:56:00,
2013-05-31 08:57:00,77.4,75.3,30.20,SSE,164,0.0,0.0,93,0.00,,,0.00,113.00,VWS V14.01,2013-05-31 12:57:00,
2013-05-31 08:58:00,77.4,75.3,30.20,SSE,164,0.0,0.0,93,0.00,,,0.00,105.00,VWS V14.01,2013-05-31 12:58:00,
2013-05-31 08:59:00,77.6,75.1,30.20,SSE,164,0.0,1.1,92,0.00,,,0.00,109.00,VWS V14.01,2013-05-31 12:59:00,
2013-05-31 09:00:00,77.7,75.1,30.20,SSE,164,0.0,1.1,92,0.00,,,0.00,100.00,VWS V14.01,2013-05-31 13:00:00,
2013-05-31 09:01:00,77.8,75.2,30.20,SSE,164,0.0,2.2,92,0.00,,,0.00,98.00,VWS V14.01,2013-05-31 13:01:00,
2013-05-31 09:02:00,77.8,74.9,30.20,SSE,164,0.0,1.1,91,0.00,,,0.00,97.00,VWS V14.01,2013-05-31 13:02:00,
2013-05-31 09:03:00,77.8,74.6,30.20,SSE,164,1.1,1.1,90,0.00,,,0.00,102.00,VWS V14.01,2013-05-31 13:03:00,
2013-05-31 09:04:00,77.8,74.7,30.20,SSE,164,0.0,1.1,90,0.00,,,0.00,91.00,VWS V14.01,2013-05-31 13:04:00,
2013-05-31 09:05:00,77.8,74.7,30.20,SSE,164,0.0,0.0,90,0.00,,,0.00,90.00,VWS V14.01,2013-05-31 13:05:00,
2013-05-31 09:06:00,77.9,74.8,30.20,SSE,164,0.0,0.0,90,0.00,,,0.00,91.00,VWS V14.01,2013-05-31 13:06:00,
2013-05-31 09:07:00,77.9,74.8,30.20,SSE,164,0.0,0.0,90,0.00,,,0.00,90.00,VWS V14.01,2013-05-31 13:07:00,
2013-05-31 09:08:00,77.9,74.4,30.20,SSE,163,1.1,3.3,89,0.00,,,0.00,90.00,VWS V14.01,2013-05-31 13:08:00,
2013-05-31 09:09:00,77.9,74.4,30.20,SSW,193,0.0,2.2,89,0.00,,,0.00,93.00,VWS V14.01,2013-05-31 13:09:00,
2013-05-31 09:10:00,77.9,74.4,30.20,SSW,201,3.3,3.3,89,0.00,,,0.00,93.00,VWS V14.01,2013-05-31 13:10:00,
2013-05-31 09:11:00,77.9,74.1,30.20,SW,234,1.1,3.3,88,0.00,,,0.00,95.00,VWS V14.01,2013-05-31 13:11:00,
2013-05-31 09:12:00,77.9,74.1,30.20,SSW,206,0.0,2.2,88,0.00,,,0.00,97.00,VWS V14.01,2013-05-31 13:12:00,
2013-05-31 09:13:00,77.9,74.1,30.20,SSW,209,1.1,2.2,88,0.00,,,0.00,98.00,VWS V14.01,2013-05-31 13:13:00,
2013-05-31 09:14:00,77.9,74.1,30.20,South,169,0.0,2.2,88,0.00,,,0.00,104.00,VWS V14.01,2013-05-31 13:14:00,
2013-05-31 09:15:00,77.9,74.1,30.20,South,169,1.1,1.1,88,0.00,,,0.00,107.00,VWS V14.01,2013-05-31 13:15:00,
2013-05-31 09:16:00,77.9,74.1,30.20,SSW,200,2.2,2.2,88,0.00,,,0.00,120.00,VWS V14.01,2013-05-31 13:16:00,
2013-05-31 09:17:00,77.8,73.7,30.20,SSE,152,1.1,4.4,87,0.00,,,0.00,120.00,VWS V14.01,2013-05-31 13:17:00,
2013-05-31 09:18:00,77.8,73.7,30.20,ESE,119,0.0,2.2,87,0.00,,,0.00,118.00,VWS V14.01,2013-05-31 13:18:00,
2013-05-31 09:19:00,77.8,73.7,30.20,ESE,121,0.0,1.1,87,0.00,,,0.00,118.00,VWS V14.01,2013-05-31 13:19:00,
2013-05-31 09:20:00,77.8,73.7,30.20,SSW,194,0.0,2.2,87,0.00,,,0.00,118.00,VWS V14.01,2013-05-31 13:20:00,
2013-05-31 09:21:00,77.8,73.7,30.20,SSW,193,1.1,1.1,87,0.00,,,0.00,121.00,VWS V14.01,2013-05-31 13:21:00,
2013-05-31 09:22:00,77.8,73.7,30.20,ESE,102,1.1,5.5,87,0.00,,,0.00,127.00,VWS V14.01,2013-05-31 13:22:00,
2013-05-31 09:23:00,77.8,73.7,30.20,ESE,103,0.0,1.1,87,0.00,,,0.00,139.00,VWS V14.01,2013-05-31 13:23:00,
2013-05-31 09:24:00,77.9,73.8,30.20,ESE,103,0.0,1.1,87,0.00,,,0.00,141.00,VWS V14.01,2013-05-31 13:24:00,
2013-05-31 09:25:00,77.9,73.8,30.20,East,100,1.1,2.2,87,0.00,,,0.00,141.00,VWS V14.01,2013-05-31 13:25:00,
2013-05-31 09:26:00,78.1,73.9,30.20,South,179,0.0,1.1,87,0.00,,,0.00,141.00,VWS V14.01,2013-05-31 13:26:00,
2013-05-31 09:27:00,78.2,74.1,30.20,South,179,0.0,0.0,87,0.00,,,0.00,141.00,VWS V14.01,2013-05-31 13:27:00,
2013-05-31 09:28:00,78.3,73.8,30.20,SW,222,0.0,3.3,86,0.00,,,0.00,144.00,VWS V14.01,2013-05-31 13:28:00,
2013-05-31 09:29:00,78.7,74.1,30.20,SW,222,0.0,0.0,86,0.00,,,0.00,142.00,VWS V14.01,2013-05-31 13:29:00,
2013-05-31 09:30:00,78.8,74.3,30.20,SW,223,0.0,1.1,86,0.00,,,0.00,142.00,VWS V14.01,2013-05-31 13:30:00,
2013-05-31 09:31:00,79.1,74.2,30.20,SW,220,0.0,0.0,85,0.00,,,0.00,141.00,VWS V14.01,2013-05-31 13:31:00,
2013-05-31 09:32:00,79.2,73.9,30.20,SSE,150,0.0,1.1,84,0.00,,,0.00,141.00,VWS V14.01,2013-05-31 13:32:00,
2013-05-31 09:33:00,79.2,74.0,30.20,SE,131,1.1,2.2,84,0.00,,,0.00,141.00,VWS V14.01,2013-05-31 13:33:00,
2013-05-31 09:34:00,79.3,73.7,30.20,SSE,149,0.0,1.1,83,0.00,,,0.00,137.00,VWS V14.01,2013-05-31 13:34:00,
2013-05-31 09:35:00,79.6,73.6,30.20,SSE,149,0.0,1.1,82,0.00,,,0.00,137.00,VWS V14.01,2013-05-31 13:35:00,
2013-05-31 09:36:00,79.7,73.7,30.20,SSW,201,2.2,3.3,82,0.00,,,0.00,137.00,VWS V14.01,2013-05-31 13:36:00,
2013-05-31 09:37:00,79.8,74.2,30.20,ENE,61,2.2,2.2,83,0.00,,,0.00,139.00,VWS V14.01,2013-05-31 13:37:00,
2013-05-31 09:38:00,79.9,74.3,30.20,ENE,58,0.0,2.2,83,0.00,,,0.00,139.00,VWS V14.01,2013-05-31 13:38:00,
2013-05-31 09:39:00,79.9,74.3,30.20,ENE,58,0.0,0.0,83,0.00,,,0.00,134.00,VWS V14.01,2013-05-31 13:39:00,
2013-05-31 09:40:00,80.1,74.1,30.20,South,181,1.1,1.1,82,0.00,,,0.00,132.00,VWS V14.01,2013-05-31 13:40:00,
2013-05-31 09:41:00,80.2,74.2,30.20,NE,46,0.0,3.3,82,0.00,,,0.00,132.00,VWS V14.01,2013-05-31 13:41:00,
2013-05-31 09:42:00,80.2,73.8,30.20,NE,41,2.2,6.6,81,0.00,,,0.00,132.00,VWS V14.01,2013-05-31 13:42:00,
2013-05-31 09:43:00,80.2,73.8,30.20,East,97,3.3,3.3,81,0.00,,,0.00,132.00,VWS V14.01,2013-05-31 13:43:00,
2013-05-31 09:44:00,80.2,73.8,30.20,East,95,2.2,4.4,81,0.00,,,0.00,134.00,VWS V14.01,2013-05-31 13:44:00,
2013-05-31 09:45:00,80.2,73.4,30.20,ESE,114,0.0,4.4,80,0.00,,,0.00,135.00,VWS V14.01,2013-05-31 13:45:00,
2013-05-31 09:46:00,80.2,73.5,30.20,SE,137,2.2,4.4,80,0.00,,,0.00,137.00,VWS V14.01,2013-05-31 13:46:00,
2013-05-31 09:47:00,80.2,73.5,30.20,ESE,103,2.2,6.6,80,0.00,,,0.00,139.00,VWS V14.01,2013-05-31 13:47:00,
2013-05-31 09:48:00,80.2,73.9,30.20,NE,54,0.0,3.3,81,0.00,,,0.00,141.00,VWS V14.01,2013-05-31 13:48:00,
2013-05-31 09:49:00,80.3,73.6,30.20,SE,137,0.0,1.1,80,0.00,,,0.00,142.00,VWS V14.01,2013-05-31 13:49:00,
2013-05-31 09:50:00,80.3,74.0,30.20,SSE,156,1.1,1.1,81,0.00,,,0.00,142.00,VWS V14.01,2013-05-31 13:50:00,
2013-05-31 09:51:00,80.4,74.1,30.20,SSW,193,3.3,5.5,81,0.00,,,0.00,144.00,VWS V14.01,2013-05-31 13:51:00,
2013-05-31 09:52:00,80.6,73.8,30.20,South,173,0.0,2.2,80,0.00,,,0.00,146.00,VWS V14.01,2013-05-31 13:52:00,
2013-05-31 09:53:00,80.7,73.9,30.20,NE,46,1.1,2.2,80,0.00,,,0.00,149.00,VWS V14.01,2013-05-31 13:53:00,
2013-05-31 09:54:00,80.7,74.3,30.20,SSE,149,2.2,2.2,81,0.00,,,0.00,148.00,VWS V14.01,2013-05-31 13:54:00,
2013-05-31 09:55:00,80.6,73.8,30.20,SE,135,0.0,2.2,80,0.00,,,0.00,149.00,VWS V14.01,2013-05-31 13:55:00,
2013-05-31 09:56:00,80.6,73.8,30.20,SE,135,0.0,2.2,80,0.00,,,0.00,149.00,VWS V14.01,2013-05-31 13:56:00,
2013-05-31 09:57:00,80.6,74.2,30.20,SE,133,0.0,3.3,81,0.00,,,0.00,151.00,VWS V14.01,2013-05-31 13:57:00,
2013-05-31 09:58:00,80.6,74.2,30.20,SE,139,0.0,1.1,81,0.00,,,0.00,158.00,VWS V14.01,2013-05-31 13:58:00,
2013-05-31 09:59:00,80.6,73.8,30.20,East,82,1.1,2.2,80,0.00,,,0.00,162.00,VWS V14.01,2013-05-31 13:59:00,
2013-05-31 10:00:00,80.6,73.4,30.20,SE,131,1.1,4.4,79,0.00,,,0.00,169.00,VWS V14.01,2013-05-31 14:00:00,
2013-05-31 10:01:00,80.6,73.4,30.20,SSE,164,4.4,4.4,79,0.00,,,0.00,169.00,VWS V14.01,2013-05-31 14:01:00,
2013-05-31 10:02:00,80.6,73.4,30.20,South,177,0.0,4.4,79,0.00,,,0.00,172.00,VWS V14.01,2013-05-31 14:02:00,
2013-05-31 10:03:00,80.7,73.5,30.20,South,183,0.0,2.2,79,0.00,,,0.00,178.00,VWS V14.01,2013-05-31 14:03:00,
2013-05-31 10:04:00,80.8,74.1,30.20,SSE,156,3.3,3.3,80,0.00,,,0.00,179.00,VWS V14.01,2013-05-31 14:04:00,
2013-05-31 10:05:00,81.1,73.9,30.20,SE,146,0.0,2.2,79,0.00,,,0.00,179.00,VWS V14.01,2013-05-31 14:05:00,
2013-05-31 10:06:00,81.2,73.6,30.20,SE,146,0.0,2.2,78,0.00,,,0.00,179.00,VWS V14.01,2013-05-31 14:06:00,
2013-05-31 10:07:00,81.2,74.1,30.20,SE,146,0.0,0.0,79,0.00,,,0.00,181.00,VWS V14.01,2013-05-31 14:07:00,
2013-05-31 10:08:00,81.3,73.8,30.20,SE,143,2.2,4.4,78,0.00,,,0.00,186.00,VWS V14.01,2013-05-31 14:08:00,
2013-05-31 10:09:00,81.4,73.9,30.20,SSW,212,2.2,4.4,78,0.00,,,0.00,202.00,VWS V14.01,2013-05-31 14:09:00,
2013-05-31 10:10:00,81.7,74.5,30.20,East,85,0.0,1.1,79,0.00,,,0.00,207.00,VWS V14.01,2013-05-31 14:10:00,
2013-05-31 10:11:00,81.7,74.5,30.20,East,85,0.0,1.1,79,0.00,,,0.00,207.00,VWS V14.01,2013-05-31 14:11:00,
2013-05-31 10:12:00,81.8,74.2,30.20,SE,132,2.2,2.2,78,0.00,,,0.00,213.00,VWS V14.01,2013-05-31 14:12:00,
2013-05-31 10:13:00,81.8,73.8,30.20,South,171,2.2,5.5,77,0.00,,,0.00,221.00,VWS V14.01,2013-05-31 14:13:00,
2013-05-31 10:14:00,81.9,74.4,30.20,SSW,197,7.7,8.8,78,0.00,,,0.00,229.00,VWS V14.01,2013-05-31 14:14:00,
2013-05-31 10:15:00,82.1,72.9,30.20,SW,225,4.4,6.6,74,0.00,,,0.00,200.00,VWS V14.01,2013-05-31 14:15:00,
2013-05-31 10:16:00,82.1,72.9,30.20,South,175,1.1,6.6,74,0.00,,,0.00,200.00,VWS V14.01,2013-05-31 14:16:00,
2013-05-31 10:17:00,82.1,72.5,30.20,SSE,162,1.1,3.3,73,0.00,,,0.00,195.00,VWS V14.01,2013-05-31 14:17:00,
2013-05-31 10:18:00,82.2,73.4,30.20,SSW,193,0.0,2.2,75,0.00,,,0.00,195.00,VWS V14.01,2013-05-31 14:18:00,
2013-05-31 10:19:00,82.2,72.6,30.20,SE,130,0.0,1.1,73,0.00,,,0.00,195.00,VWS V14.01,2013-05-31 14:19:00,
2013-05-31 10:20:00,81.9,72.8,30.20,SW,216,1.1,3.3,74,0.00,,,0.00,183.00,VWS V14.01,2013-05-31 14:20:00,
2013-05-31 10:21:00,81.9,72.8,30.20,SW,216,1.1,3.3,74,0.00,,,0.00,183.00,VWS V14.01,2013-05-31 14:21:00,
2013-05-31 10:22:00,82.1,73.3,30.20,SW,216,0.0,1.1,75,0.00,,,0.00,192.00,VWS V14.01,2013-05-31 14:22:00,
2013-05-31 10:23:00,82.1,73.3,30.20,SW,216,0.0,1.1,75,0.00,,,0.00,195.00,VWS V14.01,2013-05-31 14:23:00,
2013-05-31 10:24:00,82.2,73.8,30.20,SW,216,0.0,1.1,76,0.00,,,0.00,190.00,VWS V14.01,2013-05-31 14:24:00,
2013-05-31 10:25:00,82.1,73.3,30.20,SSE,155,6.6,6.6,75,0.00,,,0.00,192.00,VWS V14.01,2013-05-31 14:25:00,
2013-05-31 10:26:00,82.1,73.3,30.20,ESE,119,4.4,6.6,75,0.00,,,0.00,199.00,VWS V14.01,2013-05-31 14:26:00,
2013-05-31 10:27:00,81.9,73.2,30.20,SSW,204,0.0,4.4,75,0.00,,,0.00,204.00,VWS V14.01,2013-05-31 14:27:00,
2013-05-31 10:28:00,81.8,73.2,30.20,SSE,155,3.3,3.3,75,0.00,,,0.00,211.00,VWS V14.01,2013-05-31 14:28:00,
2013-05-31 10:29:00,81.8,73.6,30.20,SE,145,2.2,3.3,76,0.00,,,0.00,204.00,VWS V14.01,2013-05-31 14:29:00,
2013-05-31 10:30:00,81.8,73.4,30.20,ESE,122,1.1,3.3,76,0.00,,,0.00,199.00,VWS V14.01,2013-05-31 14:30:00,
2013-05-31 10:31:00,81.8,73.4,30.20,ESE,123,1.1,3.3,76,0.00,,,0.00,199.00,VWS V14.01,2013-05-31 14:31:00,
2013-05-31 10:32:00,81.7,73.3,30.20,NE,39,0.0,2.2,76,0.00,,,0.00,211.00,VWS V14.01,2013-05-31 14:32:00,
2013-05-31 10:33:00,81.7,73.3,30.20,NE,39,0.0,1.1,76,0.00,,,0.00,213.00,VWS V14.01,2013-05-31 14:33:00,
2013-05-31 10:34:00,81.7,73.7,30.20,NE,39,0.0,0.0,77,0.00,,,0.00,213.00,VWS V14.01,2013-05-31 14:34:00,
2013-05-31 10:35:00,81.8,73.8,30.20,NE,44,0.0,0.0,77,0.00,,,0.00,206.00,VWS V14.01,2013-05-31 14:35:00,
2013-05-31 10:36:00,81.8,73.8,30.20,SE,138,1.1,1.1,77,0.00,,,0.00,206.00,VWS V14.01,2013-05-31 14:36:00,
2013-05-31 10:37:00,81.8,73.6,30.20,South,179,1.1,5.5,76,0.00,,,0.00,202.00,VWS V14.01,2013-05-31 14:37:00,
2013-05-31 10:38:00,81.9,74.0,30.20,SE,127,2.2,2.2,77,0.00,,,0.00,206.00,VWS V14.01,2013-05-31 14:38:00,
2013-05-31 10:39:00,81.9,73.6,30.20,SSE,166,2.2,2.2,76,0.00,,,0.00,211.00,VWS V14.01,2013-05-31 14:39:00,
2013-05-31 10:40:00,82.1,73.7,30.20,East,84,5.5,5.5,76,0.00,,,0.00,213.00,VWS V14.01,2013-05-31 14:40:00,
2013-05-31 10:41:00,82.1,73.7,30.20,South,186,4.4,5.5,76,0.00,,,0.00,213.00,VWS V14.01,2013-05-31 14:41:00,
2013-05-31 10:42:00,82.1,72.9,30.20,NNW,344,0.0,5.5,74,0.00,,,0.00,213.00,VWS V14.01,2013-05-31 14:42:00,
2013-05-31 10:43:00,82.1,72.9,30.20,SE,135,1.1,1.1,74,0.00,,,0.00,214.00,VWS V14.01,2013-05-31 14:43:00,
2013-05-31 10:44:00,82.1,72.9,30.20,East,87,1.1,2.2,74,0.00,,,0.00,230.00,VWS V14.01,2013-05-31 14:44:00,
2013-05-31 10:45:00,81.9,72.4,30.20,SE,124,0.0,3.3,73,0.00,,,0.00,227.00,VWS V14.01,2013-05-31 14:45:00,
2013-05-31 10:46:00,81.9,72.4,30.20,ESE,123,0.0,3.3,73,0.00,,,0.00,227.00,VWS V14.01,2013-05-31 14:46:00,
2013-05-31 10:47:00,82.1,72.9,30.20,SE,142,1.1,1.1,74,0.00,,,0.00,225.00,VWS V14.01,2013-05-31 14:47:00,
2013-05-31 10:48:00,82.2,72.6,30.21,SE,135,2.2,3.3,73,0.00,,,0.00,221.00,VWS V14.01,2013-05-31 14:48:00,
2013-05-31 10:49:00,82.2,73.0,30.21,ESE,114,0.0,2.2,74,0.00,,,0.00,181.00,VWS V14.01,2013-05-31 14:49:00,
2013-05-31 10:50:00,82.2,73.0,30.21,East,89,2.2,6.6,74,0.00,,,0.00,216.00,VWS V14.01,2013-05-31 14:50:00,
2013-05-31 10:51:00,82.2,73.0,30.21,East,89,1.1,6.6,74,0.00,,,0.00,216.00,VWS V14.01,2013-05-31 14:51:00,
2013-05-31 10:52:00,82.1,72.9,30.21,SE,128,0.0,2.2,74,0.00,,,0.00,218.00,VWS V14.01,2013-05-31 14:52:00,
2013-05-31 10:53:00,82.1,73.3,30.21,SE,128,1.1,1.1,75,0.00,,,0.00,230.00,VWS V14.01,2013-05-31 14:53:00,
2013-05-31 10:54:00,82.2,73.4,30.21,SE,128,1.1,1.1,75,0.00,,,0.00,251.00,VWS V14.01,2013-05-31 14:54:00,
2013-05-31 10:55:00,82.2,73.5,30.21,South,173,1.1,2.2,75,0.00,,,0.00,258.00,VWS V14.01,2013-05-31 14:55:00,
2013-05-31 10:56:00,82.2,73.5,30.21,South,173,1.1,2.2,75,0.00,,,0.00,248.00,VWS V14.01,2013-05-31 14:56:00,
2013-05-31 10:57:00,82.2,73.5,30.21,North,353,0.0,2.2,75,0.00,,,0.00,237.00,VWS V14.01,2013-05-31 14:57:00,
2013-05-31 10:58:00,82.2,73.5,30.21,NNE,17,1.1,1.1,75,0.00,,,0.00,236.00,VWS V14.01,2013-05-31 14:58:00,
2013-05-31 10:59:00,82.3,73.6,30.21,NE,50,0.0,1.1,75,0.00,,,0.00,236.00,VWS V14.01,2013-05-31 14:59:00,
2013-05-31 11:00:00,82.4,74.1,30.21,NE,52,0.0,0.0,76,0.00,,,0.00,232.00,VWS V14.01,2013-05-31 15:00:00,
2013-05-31 11:01:00,82.6,74.2,30.21,NE,52,1.1,1.1,76,0.00,,,0.00,230.00,VWS V14.01,2013-05-31 15:01:00,
2013-05-31 11:02:00,82.6,73.8,30.21,SE,138,1.1,1.1,75,0.00,,,0.00,237.00,VWS V14.01,2013-05-31 15:02:00,
2013-05-31 11:03:00,82.7,73.9,30.21,SSE,167,0.0,4.4,75,0.00,,,0.00,241.00,VWS V14.01,2013-05-31 15:03:00,
2013-05-31 11:04:00,82.7,73.1,30.21,SE,137,2.2,5.5,73,0.00,,,0.00,244.00,VWS V14.01,2013-05-31 15:04:00,
2013-05-31 11:05:00,82.8,73.7,30.21,SE,141,0.0,2.2,74,0.00,,,0.00,276.00,VWS V14.01,2013-05-31 15:05:00,
2013-05-31 11:06:00,82.8,73.7,30.21,ESE,118,2.2,2.2,74,0.00,,,0.00,276.00,VWS V14.01,2013-05-31 15:06:00,
2013-05-31 11:07:00,82.8,72.4,30.21,ESE,110,1.1,2.2,71,0.00,,,0.00,290.00,VWS V14.01,2013-05-31 15:07:00,
2013-05-31 11:08:00,82.7,73.1,30.21,ESE,114,0.0,1.1,73,0.00,,,0.00,290.00,VWS V14.01,2013-05-31 15:08:00,
2013-05-31 11:09:00,82.7,73.1,30.21,SE,137,1.1,2.2,73,0.00,,,0.00,800.00,VWS V14.01,2013-05-31 15:09:00,
2013-05-31 11:10:00,82.9,73.4,30.21,SSW,192,0.0,3.3,73,0.00,,,0.00,751.00,VWS V14.01,2013-05-31 15:10:00,
2013-05-31 11:11:00,83.1,73.9,30.21,SE,146,1.1,3.3,74,0.00,,,0.00,751.00,VWS V14.01,2013-05-31 15:11:00,
2013-05-31 11:12:00,83.2,73.3,30.21,SSE,147,0.0,2.2,72,0.00,,,0.00,775.00,VWS V14.01,2013-05-31 15:12:00,
2013-05-31 11:13:00,83.4,73.5,30.21,SSE,155,3.3,6.6,72,0.00,,,0.00,735.00,VWS V14.01,2013-05-31 15:13:00,
2013-05-31 11:14:00,83.6,73.6,30.21,SW,231,2.2,5.5,72,0.00,,,0.00,735.00,VWS V14.01,2013-05-31 15:14:00,
2013-05-31 11:15:00,83.9,75.2,30.21,South,188,2.2,2.2,75,0.00,,,0.00,700.00,VWS V14.01,2013-05-31 15:15:00,
2013-05-31 11:16:00,84.1,74.5,30.21,South,191,2.2,5.5,73,0.00,,,0.00,700.00,VWS V14.01,2013-05-31 15:16:00,
2013-05-31 11:17:00,84.2,73.3,30.21,SSW,199,5.5,5.5,70,0.00,,,0.00,700.00,VWS V14.01,2013-05-31 15:17:00,
2013-05-31 11:18:00,84.1,72.4,30.21,SSE,164,4.4,6.6,68,0.00,,,0.00,700.00,VWS V14.01,2013-05-31 15:18:00,
2013-05-31 11:19:00,83.8,72.6,30.21,SE,129,1.1,4.4,69,0.00,,,0.00,700.00,VWS V14.01,2013-05-31 15:19:00,
2013-05-31 11:20:00,83.7,72.8,30.21,ESE,110,5.5,5.5,70,0.00,,,0.00,708.00,VWS V14.01,2013-05-31 15:20:00,
2013-05-31 11:21:00,83.6,72.7,30.21,South,191,2.2,5.5,70,0.00,,,0.00,708.00,VWS V14.01,2013-05-31 15:21:00,
2013-05-31 11:22:00,83.6,71.9,30.21,SSE,155,3.3,6.6,68,0.00,,,0.00,708.00,VWS V14.01,2013-05-31 15:22:00,
2013-05-31 11:23:00,83.4,71.8,30.21,South,189,3.3,5.5,68,0.00,,,0.00,742.00,VWS V14.01,2013-05-31 15:23:00,
2013-05-31 11:24:00,83.4,71.8,30.20,SSE,148,3.3,5.5,68,0.00,,,0.00,768.00,VWS V14.01,2013-05-31 15:24:00,
2013-05-31 11:25:00,83.8,73.3,30.21,SSE,150,1.1,2.2,71,0.00,,,0.00,831.00,VWS V14.01,2013-05-31 15:25:00,
2013-05-31 11:26:00,83.8,73.3,30.21,SSE,162,3.3,3.3,71,0.00,,,0.00,831.00,VWS V14.01,2013-05-31 15:26:00,
2013-05-31 11:27:00,83.9,74.0,30.21,SSW,210,1.1,3.3,72,0.00,,,0.00,831.00,VWS V14.01,2013-05-31 15:27:00,
2013-05-31 11:28:00,83.8,73.0,30.21,South,187,2.2,2.2,70,0.00,,,0.00,831.00,VWS V14.01,2013-05-31 15:28:00,
2013-05-31 11:29:00,83.8,72.9,30.21,SSW,202,3.3,3.3,70,0.00,,,0.00,195.00,VWS V14.01,2013-05-31 15:29:00,
2013-05-31 11:30:00,83.6,73.2,30.20,SW,227,3.3,3.3,71,0.00,,,0.00,715.00,VWS V14.01,2013-05-31 15:30:00,
2013-05-31 11:31:00,83.6,73.2,30.20,SSW,200,1.1,3.3,71,0.00,,,0.00,728.00,VWS V14.01,2013-05-31 15:31:00,
2013-05-31 11:32:00,83.6,73.2,30.20,ESE,113,4.4,4.4,71,0.00,,,0.00,765.00,VWS V14.01,2013-05-31 15:32:00,
2013-05-31 11:33:00,83.6,72.3,30.21,South,173,2.2,4.4,69,0.00,,,0.00,742.00,VWS V14.01,2013-05-31 15:33:00,
2013-05-31 11:34:00,83.6,72.7,30.21,South,177,3.3,7.7,70,0.00,,,0.00,738.00,VWS V14.01,2013-05-31 15:34:00,
2013-05-31 11:35:00,83.6,74.0,30.21,SE,133,4.4,4.4,73,0.00,,,0.00,772.00,VWS V14.01,2013-05-31 15:35:00,
2013-05-31 11:36:00,83.6,74.0,30.21,South,175,1.1,4.4,73,0.00,,,0.00,751.00,VWS V14.01,2013-05-31 15:36:00,
2013-05-31 11:37:00,83.7,72.8,30.21,North,11,0.0,1.1,70,0.00,,,0.00,737.00,VWS V14.01,2013-05-31 15:37:00,
2013-05-31 11:38:00,83.8,73.3,30.21,SSE,162,2.2,2.2,71,0.00,,,0.00,735.00,VWS V14.01,2013-05-31 15:38:00,
2013-05-31 11:39:00,83.8,73.4,30.21,SSE,151,0.0,4.4,71,0.00,,,0.00,735.00,VWS V14.01,2013-05-31 15:39:00,
2013-05-31 11:40:00,83.8,72.6,30.21,SE,128,0.0,3.3,69,0.00,,,0.00,752.00,VWS V14.01,2013-05-31 15:40:00,
2013-05-31 11:41:00,83.8,72.6,30.21,South,182,6.6,6.6,69,0.00,,,0.00,752.00,VWS V14.01,2013-05-31 15:41:00,
2013-05-31 11:42:00,83.8,72.1,30.20,South,171,2.2,6.6,68,0.00,,,0.00,731.00,VWS V14.01,2013-05-31 15:42:00,
2013-05-31 11:43:00,83.7,72.0,30.20,NE,38,1.1,3.3,68,0.00,,,0.00,712.00,VWS V14.01,2013-05-31 15:43:00,
2013-05-31 11:44:00,83.7,72.4,30.20,SE,138,0.0,2.2,69,0.00,,,0.00,721.00,VWS V14.01,2013-05-31 15:44:00,
2013-05-31 11:45:00,83.6,71.9,30.21,SSE,158,1.1,3.3,68,0.00,,,0.00,698.00,VWS V14.01,2013-05-31 15:45:00,
2013-05-31 11:46:00,83.6,73.2,30.21,SSE,158,0.0,3.3,71,0.00,,,0.00,698.00,VWS V14.01,2013-05-31 15:46:00,
2013-05-31 11:47:00,83.7,72.4,30.20,SW,219,6.6,11.0,69,0.00,,,0.00,599.00,VWS V14.01,2013-05-31 15:47:00,
2013-05-31 11:48:00,83.7,72.0,30.21,South,173,1.1,9.9,68,0.00,,,0.00,719.00,VWS V14.01,2013-05-31 15:48:00,
2013-05-31 11:49:00,83.7,72.4,30.21,SSW,203,6.6,6.6,69,0.00,,,0.00,744.00,VWS V14.01,2013-05-31 15:49:00,
2013-05-31 11:50:00,83.8,72.5,30.21,ESE,113,1.1,2.2,69,0.00,,,0.00,744.00,VWS V14.01,2013-05-31 15:50:00,
2013-05-31 11:51:00,83.7,72.4,30.21,East,96,1.1,2.2,69,0.00,,,0.00,744.00,VWS V14.01,2013-05-31 15:51:00,
2013-05-31 11:52:00,83.6,73.2,30.21,SW,215,3.3,3.3,71,0.00,,,0.00,772.00,VWS V14.01,2013-05-31 15:52:00,
2013-05-31 11:53:00,83.6,72.3,30.21,South,182,1.1,6.6,69,0.00,,,0.00,773.00,VWS V14.01,2013-05-31 15:53:00,
2013-05-31 11:54:00,83.6,72.3,30.20,South,181,3.3,5.5,69,0.00,,,0.00,800.00,VWS V14.01,2013-05-31 15:54:00,
2013-05-31 11:55:00,83.6,71.9,30.21,SSW,200,2.2,6.6,68,0.00,,,0.00,800.00,VWS V14.01,2013-05-31 15:55:00,
2013-05-31 11:56:00,83.6,71.9,30.21,South,180,0.0,6.6,68,0.00,,,0.00,800.00,VWS V14.01,2013-05-31 15:56:00,
2013-05-31 11:57:00,83.8,72.1,30.21,SW,215,3.3,3.3,68,0.00,,,0.00,796.00,VWS V14.01,2013-05-31 15:57:00,
2013-05-31 11:58:00,83.8,72.2,30.21,SW,216,7.7,7.7,68,0.00,,,0.00,844.00,VWS V14.01,2013-05-31 15:58:00,
2013-05-31 11:59:00,83.8,71.7,30.21,South,183,6.6,7.7,67,0.00,,,0.00,844.00,VWS V14.01,2013-05-31 15:59:00,
2013-05-31 12:00:00,83.7,72.4,30.21,SSW,198,3.3,3.3,69,0.00,,,0.00,844.00,VWS V14.01,2013-05-31 16:00:00,
2013-05-31 12:01:00,83.7,72.4,30.21,SSW,198,0.0,3.3,69,0.00,,,0.00,826.00,VWS V14.01,2013-05-31 16:01:00,
2013-05-31 12:02:00,83.8,72.5,30.21,SSE,162,1.1,3.3,69,0.00,,,0.00,853.00,VWS V14.01,2013-05-31 16:02:00,
2013-05-31 12:03:00,83.9,71.8,30.21,South,189,3.3,7.7,67,0.00,,,0.00,870.00,VWS V14.01,2013-05-31 16:03:00,
2013-05-31 12:04:00,83.9,71.8,30.21,SSW,193,3.3,3.3,67,0.00,,,0.00,823.00,VWS V14.01,2013-05-31 16:04:00,
2013-05-31 12:05:00,83.9,72.3,30.20,South,174,2.2,2.2,68,0.00,,,0.00,671.00,VWS V14.01,2013-05-31 16:05:00,
2013-05-31 12:06:00,83.9,72.3,30.20,South,174,1.1,3.3,68,0.00,,,0.00,591.00,VWS V14.01,2013-05-31 16:06:00,
2013-05-31 12:07:00,84.2,72.9,30.20,SW,225,3.3,4.4,69,0.00,,,0.00,540.00,VWS V14.01,2013-05-31 16:07:00,
2013-05-31 12:08:00,84.2,71.6,30.20,SE,130,4.4,5.5,66,0.00,,,0.00,490.00,VWS V14.01,2013-05-31 16:08:00,
2013-05-31 12:09:00,84.2,72.0,30.20,South,183,3.3,6.6,67,0.00,,,0.00,510.00,VWS V14.01,2013-05-31 16:09:00,
2013-05-31 12:10:00,83.9,71.8,30.20,SW,232,4.4,4.4,67,0.00,,,0.00,550.00,VWS V14.01,2013-05-31 16:10:00,
2013-05-31 12:11:00,83.9,71.8,30.20,SW,228,4.4,4.4,67,0.00,,,0.00,605.00,VWS V14.01,2013-05-31 16:11:00,
2013-05-31 12:12:00,83.9,72.3,30.20,SW,214,5.5,5.5,68,0.00,,,0.00,628.00,VWS V14.01,2013-05-31 16:12:00,
2013-05-31 12:13:00,83.9,71.4,30.20,NE,56,0.0,6.6,66,0.00,,,0.00,603.00,VWS V14.01,2013-05-31 16:13:00,
2013-05-31 12:14:00,83.9,72.3,30.20,ENE,57,0.0,0.0,68,0.00,,,0.00,601.00,VWS V14.01,2013-05-31 16:14:00,
2013-05-31 12:15:00,83.9,72.7,30.20,ENE,57,1.1,1.1,69,0.00,,,0.00,575.00,VWS V14.01,2013-05-31 16:15:00,
2013-05-31 12:16:00,83.9,73.1,30.20,SW,231,1.1,1.1,70,0.00,,,0.00,575.00,VWS V14.01,2013-05-31 16:16:00,
2013-05-31 12:17:00,84.1,72.8,30.20,South,191,3.3,5.5,69,0.00,,,0.00,622.00,VWS V14.01,2013-05-31 16:17:00,
2013-05-31 12:18:00,84.1,71.5,30.20,South,191,3.3,5.5,66,0.00,,,0.00,635.00,VWS V14.01,2013-05-31 16:18:00,
2013-05-31 12:19:00,84.1,71.9,30.20,South,176,3.3,4.4,67,0.00,,,0.00,677.00,VWS V14.01,2013-05-31 16:19:00,
2013-05-31 12:20:00,84.1,71.9,30.20,SSE,167,0.0,4.4,67,0.00,,,0.00,786.00,VWS V14.01,2013-05-31 16:20:00,
2013-05-31 12:21:00,84.2,71.1,30.20,SSW,201,5.5,5.5,65,0.00,,,0.00,786.00,VWS V14.01,2013-05-31 16:21:00,
2013-05-31 12:22:00,84.1,71.5,30.20,SSW,207,6.6,6.6,66,0.00,,,0.00,763.00,VWS V14.01,2013-05-31 16:22:00,
2013-05-31 12:23:00,84.2,70.7,30.20,SSW,204,4.4,6.6,64,0.00,,,0.00,733.00,VWS V14.01,2013-05-31 16:23:00,
2013-05-31 12:24:00,84.2,71.6,30.20,SSE,153,3.3,4.4,66,0.00,,,0.00,686.00,VWS V14.01,2013-05-31 16:24:00,
2013-05-31 12:25:00,84.2,71.6,30.20,South,181,1.1,2.2,66,0.00,,,0.00,663.00,VWS V14.01,2013-05-31 16:25:00,
2013-05-31 12:26:00,84.2,72.0,30.20,SE,127,2.2,3.3,67,0.00,,,0.00,663.00,VWS V14.01,2013-05-31 16:26:00,
2013-05-31 12:27:00,84.2,71.7,30.20,WNW,287,0.0,5.5,66,0.00,,,0.00,671.00,VWS V14.01,2013-05-31 16:27:00,
2013-05-31 12:28:00,84.2,71.1,30.20,SSE,161,1.1,3.3,65,0.00,,,0.00,647.00,VWS V14.01,2013-05-31 16:28:00,
2013-05-31 12:29:00,84.2,71.1,30.20,SE,136,3.3,5.5,65,0.00,,,0.00,715.00,VWS V14.01,2013-05-31 16:29:00,
2013-05-31 12:30:00,84.1,72.4,30.20,SE,135,0.0,0.0,68,0.00,,,0.00,731.00,VWS V14.01,2013-05-31 16:30:00,
2013-05-31 12:31:00,84.1,72.4,30.20,WSW,243,3.3,4.4,68,0.00,,,0.00,733.00,VWS V14.01,2013-05-31 16:31:00,
2013-05-31 12:32:00,84.1,70.6,30.20,SSW,193,1.1,4.4,64,0.00,,,0.00,754.00,VWS V14.01,2013-05-31 16:32:00,
2013-05-31 12:33:00,84.2,71.1,30.20,SW,220,1.1,3.3,65,0.00,,,0.00,772.00,VWS V14.01,2013-05-31 16:33:00,
2013-05-31 12:34:00,84.2,70.2,30.20,NE,41,3.3,3.3,63,0.00,,,0.00,780.00,VWS V14.01,2013-05-31 16:34:00,
2013-05-31 12:35:00,84.2,71.7,30.20,East,100,1.1,3.3,66,0.00,,,0.00,780.00,VWS V14.01,2013-05-31 16:35:00,
2013-05-31 12:36:00,84.3,71.8,30.20,East,100,0.0,3.3,66,0.00,,,0.00,756.00,VWS V14.01,2013-05-31 16:36:00,
2013-05-31 12:37:00,84.4,72.7,30.20,SE,132,0.0,0.0,68,0.00,,,0.00,728.00,VWS V14.01,2013-05-31 16:37:00,
2013-05-31 12:38:00,84.4,72.3,30.20,SE,143,0.0,0.0,67,0.00,,,0.00,729.00,VWS V14.01,2013-05-31 16:38:00,
2013-05-31 12:39:00,84.4,70.9,30.20,SE,135,1.1,3.3,64,0.00,,,0.00,740.00,VWS V14.01,2013-05-31 16:39:00,
2013-05-31 12:40:00,84.4,72.3,30.20,South,191,1.1,2.2,67,0.00,,,0.00,701.00,VWS V14.01,2013-05-31 16:40:00,
2013-05-31 12:41:00,84.4,70.9,30.20,SSE,150,2.2,3.3,64,0.00,,,0.00,737.00,VWS V14.01,2013-05-31 16:41:00,
2013-05-31 12:42:00,84.4,71.8,30.20,SSE,159,3.3,3.3,66,0.00,,,0.00,715.00,VWS V14.01,2013-05-31 16:42:00,
2013-05-31 12:43:00,84.4,71.4,30.20,SE,137,0.0,3.3,65,0.00,,,0.00,668.00,VWS V14.01,2013-05-31 16:43:00,
2013-05-31 12:44:00,84.7,72.0,30.20,NE,41,2.2,2.2,66,0.00,,,0.00,668.00,VWS V14.01,2013-05-31 16:44:00,
2013-05-31 12:45:00,84.8,71.7,30.20,SE,137,1.1,2.2,65,0.00,,,0.00,677.00,VWS V14.01,2013-05-31 16:45:00,
2013-05-31 12:46:00,84.8,72.1,30.20,SW,217,4.4,4.4,66,0.00,,,0.00,677.00,VWS V14.01,2013-05-31 16:46:00,
2013-05-31 12:47:00,84.7,72.0,30.19,South,172,0.0,4.4,66,0.00,,,0.00,664.00,VWS V14.01,2013-05-31 16:47:00,
2013-05-31 12:48:00,84.7,72.9,30.19,SE,135,2.2,3.3,68,0.00,,,0.00,638.00,VWS V14.01,2013-05-31 16:48:00,
2013-05-31 12:49:00,84.7,72.0,30.19,SSE,153,0.0,4.4,66,0.00,,,0.00,652.00,VWS V14.01,2013-05-31 16:49:00,
2013-05-31 12:50:00,84.7,71.6,30.19,South,183,0.0,1.1,65,0.00,,,0.00,657.00,VWS V14.01,2013-05-31 16:50:00,
2013-05-31 12:51:00,84.7,70.7,30.19,South,183,0.0,1.1,63,0.00,,,0.00,657.00,VWS V14.01,2013-05-31 16:51:00,
2013-05-31 12:52:00,84.7,71.6,30.19,South,183,0.0,2.2,65,0.00,,,0.00,603.00,VWS V14.01,2013-05-31 16:52:00,
2013-05-31 12:53:00,84.7,71.6,30.19,South,183,0.0,0.0,65,0.00,,,0.00,599.00,VWS V14.01,2013-05-31 16:53:00,
2013-05-31 12:54:00,84.6,70.1,30.19,ENE,73,1.1,4.4,62,0.00,,,0.00,561.00,VWS V14.01,2013-05-31 16:54:00,
2013-05-31 12:55:00,84.2,70.3,30.19,SSE,160,1.1,1.1,63,0.00,,,0.00,529.00,VWS V14.01,2013-05-31 16:55:00,
2013-05-31 12:56:00,84.2,70.8,30.19,SSE,160,0.0,1.1,64,0.00,,,0.00,529.00,VWS V14.01,2013-05-31 16:56:00,
2013-05-31 12:57:00,84.2,70.7,30.19,South,183,0.0,2.2,64,0.00,,,0.00,522.00,VWS V14.01,2013-05-31 16:57:00,
2013-05-31 12:58:00,84.2,71.1,30.19,SSE,167,0.0,0.0,65,0.00,,,0.00,554.00,VWS V14.01,2013-05-31 16:58:00,
2013-05-31 12:59:00,84.2,70.7,30.19,East,89,0.0,1.1,64,0.00,,,0.00,555.00,VWS V14.01,2013-05-31 16:59:00,
2013-05-31 13:00:00,84.2,70.7,30.19,SE,131,2.2,3.3,64,0.00,,,0.00,540.00,VWS V14.01,2013-05-31 17:00:00,
2013-05-31 13:01:00,84.1,70.6,30.19,ESE,118,0.0,3.3,64,0.00,,,0.00,545.00,VWS V14.01,2013-05-31 17:01:00,
2013-05-31 13:02:00,84.1,71.5,30.19,SSE,164,0.0,2.2,66,0.00,,,0.00,554.00,VWS V14.01,2013-05-31 17:02:00,
2013-05-31 13:03:00,84.2,71.1,30.19,SSW,206,5.5,5.5,65,0.00,,,0.00,548.00,VWS V14.01,2013-05-31 17:03:00,
2013-05-31 13:04:00,84.2,70.3,30.19,SSE,166,0.0,5.5,63,0.00,,,0.00,490.00,VWS V14.01,2013-05-31 17:04:00,
2013-05-31 13:05:00,84.3,71.3,30.19,ESE,114,0.0,1.1,65,0.00,,,0.00,492.00,VWS V14.01,2013-05-31 17:05:00,
2013-05-31 13:06:00,84.4,71.4,30.19,SE,146,3.3,3.3,65,0.00,,,0.00,536.00,VWS V14.01,2013-05-31 17:06:00,
2013-05-31 13:07:00,84.4,70.9,30.19,SE,135,0.0,3.3,64,0.00,,,0.00,547.00,VWS V14.01,2013-05-31 17:07:00,
2013-05-31 13:08:00,84.4,70.5,30.19,East,86,0.0,1.1,63,0.00,,,0.00,543.00,VWS V14.01,2013-05-31 17:08:00,
2013-05-31 13:09:00,84.3,70.8,30.19,ESE,118,0.0,1.1,64,0.00,,,0.00,513.00,VWS V14.01,2013-05-31 17:09:00,
2013-05-31 13:10:00,84.2,70.8,30.19,SSE,155,3.3,3.3,64,0.00,,,0.00,531.00,VWS V14.01,2013-05-31 17:10:00,
2013-05-31 13:11:00,84.2,70.7,30.19,SE,129,0.0,3.3,64,0.00,,,0.00,517.00,VWS V14.01,2013-05-31 17:11:00,
2013-05-31 13:12:00,84.1,70.1,30.19,NE,48,0.0,3.3,63,0.00,,,0.00,527.00,VWS V14.01,2013-05-31 17:12:00,
2013-05-31 13:13:00,83.9,70.9,30.19,SSE,162,1.1,2.2,65,0.00,,,0.00,519.00,VWS V14.01,2013-05-31 17:13:00,
2013-05-31 13:14:00,84.1,70.6,30.19,SE,135,2.2,3.3,64,0.00,,,0.00,515.00,VWS V14.01,2013-05-31 17:14:00,
2013-05-31 13:15:00,84.2,71.1,30.19,East,97,0.0,1.1,65,0.00,,,0.00,492.00,VWS V14.01,2013-05-31 17:15:00,
2013-05-31 13:16:00,84.2,71.1,30.19,East,97,0.0,1.1,65,0.00,,,0.00,506.00,VWS V14.01,2013-05-31 17:16:00,
2013-05-31 13:17:00,84.2,71.2,30.19,SSE,166,1.1,1.1,65,0.00,,,0.00,538.00,VWS V14.01,2013-05-31 17:17:00,
2013-05-31 13:18:00,84.2,71.2,30.18,SW,234,1.1,1.1,65,0.00,,,0.00,547.00,VWS V14.01,2013-05-31 17:18:00,
2013-05-31 13:19:00,84.2,70.3,30.18,SSW,202,3.3,3.3,63,0.00,,,0.00,550.00,VWS V14.01,2013-05-31 17:19:00,
2013-05-31 13:20:00,84.2,70.3,30.18,SSE,168,0.0,1.1,63,0.00,,,0.00,608.00,VWS V14.01,2013-05-31 17:20:00,
2013-05-31 13:21:00,84.3,71.3,30.18,SSE,168,0.0,1.1,65,0.00,,,0.00,645.00,VWS V14.01,2013-05-31 17:21:00,
2013-05-31 13:22:00,84.3,70.8,30.18,SSE,168,0.0,0.0,64,0.00,,,0.00,656.00,VWS V14.01,2013-05-31 17:22:00,
2013-05-31 13:23:00,84.4,71.4,30.18,SSE,150,0.0,1.1,65,0.00,,,0.00,666.00,VWS V14.01,2013-05-31 17:23:00,
2013-05-31 13:24:00,84.4,70.5,30.18,ESE,110,0.0,1.1,63,0.00,,,0.00,671.00,VWS V14.01,2013-05-31 17:24:00,
2013-05-31 13:25:00,84.4,70.9,30.18,ESE,110,0.0,0.0,64,0.00,,,0.00,722.00,VWS V14.01,2013-05-31 17:25:00,
2013-05-31 13:26:00,84.4,71.8,30.18,NE,56,1.1,1.1,66,0.00,,,0.00,722.00,VWS V14.01,2013-05-31 17:26:00,
2013-05-31 13:27:00,84.6,72.4,30.18,NE,56,0.0,1.1,67,0.00,,,0.00,726.00,VWS V14.01,2013-05-31 17:27:00,
2013-05-31 13:28:00,84.7,72.5,30.18,NE,56,0.0,0.0,67,0.00,,,0.00,791.00,VWS V14.01,2013-05-31 17:28:00,
2013-05-31 13:29:00,84.8,72.2,30.18,NE,56,0.0,1.1,66,0.00,,,0.00,856.00,VWS V14.01,2013-05-31 17:29:00,
2013-05-31 13:30:00,84.8,71.3,30.18,NE,54,0.0,1.1,64,0.00,,,0.00,977.00,VWS V14.01,2013-05-31 17:30:00,
2013-05-31 13:31:00,84.8,72.2,30.18,NE,54,0.0,1.1,66,0.00,,,0.00,977.00,VWS V14.01,2013-05-31 17:31:00,
2013-05-31 13:32:00,85.1,73.7,30.18,ENE,77,0.0,2.2,69,0.00,,,0.00,995.00,VWS V14.01,2013-05-31 17:32:00,
2013-05-31 13:33:00,85.3,71.8,30.18,ESE,123,1.1,2.2,64,0.00,,,0.00,995.00,VWS V14.01,2013-05-31 17:33:00,
2013-05-31 13:34:00,85.6,72.0,30.18,SSE,147,4.4,4.4,64,0.00,,,0.00,1030.00,VWS V14.01,2013-05-31 17:34:00,
2013-05-31 13:35:00,85.8,71.7,30.18,NE,42,0.0,0.0,63,0.00,,,0.00,1028.00,VWS V14.01,2013-05-31 17:35:00,
2013-05-31 13:36:00,85.8,71.8,30.18,SSE,152,1.1,2.2,63,0.00,,,0.00,1032.00,VWS V14.01,2013-05-31 17:36:00,
2013-05-31 13:37:00,86.2,72.1,30.18,SSE,160,0.0,1.1,63,0.00,,,0.00,1023.00,VWS V14.01,2013-05-31 17:37:00,
2013-05-31 13:38:00,86.3,73.2,30.18,SSE,160,0.0,0.0,65,0.00,,,0.00,1023.00,VWS V14.01,2013-05-31 17:38:00,
2013-05-31 13:39:00,86.3,72.3,30.18,NNE,23,1.1,3.3,63,0.00,,,0.00,178.00,VWS V14.01,2013-05-31 17:39:00,
2013-05-31 13:40:00,85.9,70.9,30.18,ENE,60,0.0,0.0,61,0.00,,,0.00,193.00,VWS V14.01,2013-05-31 17:40:00,
2013-05-31 13:41:00,85.8,70.8,30.18,ENE,60,0.0,0.0,61,0.00,,,0.00,193.00,VWS V14.01,2013-05-31 17:41:00,
2013-05-31 13:42:00,85.3,71.3,30.18,SSE,158,1.1,1.1,63,0.00,,,0.00,193.00,VWS V14.01,2013-05-31 17:42:00,
2013-05-31 13:43:00,85.2,71.2,30.18,SE,129,0.0,2.2,63,0.00,,,0.00,1041.00,VWS V14.01,2013-05-31 17:43:00,
2013-05-31 13:44:00,85.3,71.8,30.17,SE,129,0.0,0.0,64,0.00,,,0.00,1016.00,VWS V14.01,2013-05-31 17:44:00,
2013-05-31 13:45:00,85.4,72.3,30.17,ESE,123,0.0,1.1,65,0.00,,,0.00,1025.00,VWS V14.01,2013-05-31 17:45:00,
2013-05-31 13:46:00,85.6,72.0,30.17,ESE,123,0.0,1.1,64,0.00,,,0.00,1020.00,VWS V14.01,2013-05-31 17:46:00,
2013-05-31 13:47:00,85.7,72.1,30.17,SW,218,0.0,2.2,64,0.00,,,0.00,1028.00,VWS V14.01,2013-05-31 17:47:00,
2013-05-31 13:48:00,85.9,73.3,30.17,SE,145,0.0,0.0,66,0.00,,,0.00,1018.00,VWS V14.01,2013-05-31 17:48:00,
2013-05-31 13:49:00,86.2,72.6,30.17,ESE,103,0.0,2.2,64,0.00,,,0.00,1021.00,VWS V14.01,2013-05-31 17:49:00,
2013-05-31 13:50:00,86.8,74.9,30.17,ENE,72,0.0,0.0,68,0.00,,,0.00,1032.00,VWS V14.01,2013-05-31 17:50:00,
2013-05-31 13:51:00,87.1,73.4,30.17,ESE,103,5.5,5.5,64,0.00,,,0.00,1037.00,VWS V14.01,2013-05-31 17:51:00,
2013-05-31 13:52:00,87.2,73.6,30.17,SW,218,4.4,5.5,64,0.00,,,0.00,1051.00,VWS V14.01,2013-05-31 17:52:00,
2013-05-31 13:53:00,87.2,73.1,30.17,SE,142,5.5,6.6,63,0.00,,,0.00,1049.00,VWS V14.01,2013-05-31 17:53:00,
2013-05-31 13:54:00,87.2,72.6,30.17,WSW,257,2.2,5.5,62,0.00,,,0.00,1039.00,VWS V14.01,2013-05-31 17:54:00,
2013-05-31 13:55:00,87.2,74.1,30.17,WNW,283,1.1,1.1,65,0.00,,,0.00,1030.00,VWS V14.01,2013-05-31 17:55:00,
2013-05-31 13:56:00,87.3,73.7,30.17,South,180,1.1,2.2,64,0.00,,,0.00,1025.00,VWS V14.01,2013-05-31 17:56:00,
2013-05-31 13:57:00,87.3,72.7,30.17,South,188,0.0,1.1,62,0.00,,,0.00,1025.00,VWS V14.01,2013-05-31 17:57:00,
2013-05-31 13:58:00,87.6,72.9,30.17,South,188,2.2,2.2,62,0.00,,,0.00,1011.00,VWS V14.01,2013-05-31 17:58:00,
2013-05-31 13:59:00,87.8,72.6,30.17,South,171,1.1,3.3,61,0.00,,,0.00,1009.00,VWS V14.01,2013-05-31 17:59:00,
2013-05-31 14:00:00,87.9,71.8,30.17,East,90,0.0,0.0,59,0.00,,,0.00,1016.00,VWS V14.01,2013-05-31 18:00:00,
2013-05-31 14:01:00,87.8,72.7,30.17,WSW,239,1.1,1.1,61,0.00,,,0.00,1016.00,VWS V14.01,2013-05-31 18:01:00,
2013-05-31 14:02:00,87.8,72.6,30.17,ENE,77,1.1,4.4,61,0.00,,,0.00,1025.00,VWS V14.01,2013-05-31 18:02:00,
2013-05-31 14:03:00,87.7,73.0,30.17,SSW,204,0.0,5.5,62,0.00,,,0.00,1025.00,VWS V14.01,2013-05-31 18:03:00,
2013-05-31 14:04:00,87.6,73.9,30.17,SE,127,3.3,3.3,64,0.00,,,0.00,163.00,VWS V14.01,2013-05-31 18:04:00,
2013-05-31 14:05:00,86.9,72.8,30.17,NE,46,0.0,0.0,63,0.00,,,0.00,185.00,VWS V14.01,2013-05-31 18:05:00,
2013-05-31 14:06:00,86.8,72.7,30.17,North,358,1.1,1.1,63,0.00,,,0.00,220.00,VWS V14.01,2013-05-31 18:06:00,
2013-05-31 14:07:00,86.2,72.7,30.17,North,2,0.0,1.1,64,0.00,,,0.00,220.00,VWS V14.01,2013-05-31 18:07:00,
2013-05-31 14:08:00,85.8,72.7,30.17,North,2,0.0,0.0,65,0.00,,,0.00,207.00,VWS V14.01,2013-05-31 18:08:00,
2013-05-31 14:09:00,85.7,72.5,30.17,North,2,0.0,0.0,65,0.00,,,0.00,197.00,VWS V14.01,2013-05-31 18:09:00,
2013-05-31 14:10:00,85.2,72.2,30.17,SSE,149,1.1,4.4,65,0.00,,,0.00,209.00,VWS V14.01,2013-05-31 18:10:00,
2013-05-31 14:11:00,85.1,72.0,30.17,SSE,147,2.2,4.4,65,0.00,,,0.00,209.00,VWS V14.01,2013-05-31 18:11:00,
2013-05-31 14:12:00,84.8,72.2,30.17,SE,125,2.2,2.2,66,0.00,,,0.00,209.00,VWS V14.01,2013-05-31 18:12:00,
2013-05-31 14:13:00,84.8,72.7,30.17,NE,49,1.1,2.2,67,0.00,,,0.00,209.00,VWS V14.01,2013-05-31 18:13:00,
2013-05-31 14:14:00,85.2,73.4,30.17,North,10,0.0,2.2,68,0.00,,,0.00,1063.00,VWS V14.01,2013-05-31 18:14:00,
2013-05-31 14:15:00,85.6,72.9,30.17,East,83,0.0,0.0,66,0.00,,,0.00,1063.00,VWS V14.01,2013-05-31 18:15:00,
2013-05-31 14:16:00,85.8,73.1,30.17,SSE,166,2.2,2.2,66,0.00,,,0.00,1063.00,VWS V14.01,2013-05-31 18:16:00,
2013-05-31 14:17:00,85.8,72.6,30.17,SSE,154,2.2,5.5,65,0.00,,,0.00,350.00,VWS V14.01,2013-05-31 18:17:00,
2013-05-31 14:18:00,85.8,73.1,30.17,SW,216,0.0,2.2,66,0.00,,,0.00,350.00,VWS V14.01,2013-05-31 18:18:00,
2013-05-31 14:19:00,85.8,73.5,30.17,SE,146,2.2,2.2,67,0.00,,,0.00,874.00,VWS V14.01,2013-05-31 18:19:00,
2013-05-31 14:20:00,85.9,74.6,30.17,SE,130,3.3,6.6,69,0.00,,,0.00,898.00,VWS V14.01,2013-05-31 18:20:00,
2013-05-31 14:21:00,86.1,73.8,30.17,SSW,206,0.0,6.6,67,0.00,,,0.00,898.00,VWS V14.01,2013-05-31 18:21:00,
2013-05-31 14:22:00,86.2,73.5,30.17,SE,134,3.3,4.4,66,0.00,,,0.00,1025.00,VWS V14.01,2013-05-31 18:22:00,
2013-05-31 14:23:00,86.2,74.0,30.17,ENE,61,3.3,3.3,67,0.00,,,0.00,1025.00,VWS V14.01,2013-05-31 18:23:00,
2013-05-31 14:24:00,86.2,73.5,30.17,NE,42,0.0,3.3,66,0.00,,,0.00,1025.00,VWS V14.01,2013-05-31 18:24:00,
2013-05-31 14:25:00,85.9,73.7,30.17,SSE,156,3.3,3.3,67,0.00,,,0.00,185.00,VWS V14.01,2013-05-31 18:25:00,
2013-05-31 14:26:00,85.9,73.7,30.17,SSE,164,1.1,3.3,67,0.00,,,0.00,954.00,VWS V14.01,2013-05-31 18:26:00,
2013-05-31 14:27:00,85.9,73.7,30.17,SSE,148,1.1,2.2,67,0.00,,,0.00,969.00,VWS V14.01,2013-05-31 18:27:00,
2013-05-31 14:28:00,85.9,73.3,30.17,WNW,287,3.3,4.4,66,0.00,,,0.00,963.00,VWS V14.01,2013-05-31 18:28:00,
2013-05-31 14:29:00,86.1,73.4,30.17,SSE,154,3.3,7.7,66,0.00,,,0.00,933.00,VWS V14.01,2013-05-31 18:29:00,
2013-05-31 14:30:00,86.1,72.9,30.17,ESE,108,2.2,9.9,65,0.00,,,0.00,939.00,VWS V14.01,2013-05-31 18:30:00,
2013-05-31 14:31:00,86.2,73.0,30.17,South,190,2.2,9.9,65,0.00,,,0.00,939.00,VWS V14.01,2013-05-31 18:31:00,
2013-05-31 14:32:00,86.4,74.6,30.17,South,179,0.0,4.4,68,0.00,,,0.00,944.00,VWS V14.01,2013-05-31 18:32:00,
2013-05-31 14:33:00,86.8,74.5,30.17,South,179,0.0,1.1,67,0.00,,,0.00,933.00,VWS V14.01,2013-05-31 18:33:00,
2013-05-31 14:34:00,86.9,73.8,30.17,SW,215,1.1,3.3,65,0.00,,,0.00,930.00,VWS V14.01,2013-05-31 18:34:00,
2013-05-31 14:35:00,87.1,74.8,30.17,ESE,119,1.1,2.2,67,0.00,,,0.00,937.00,VWS V14.01,2013-05-31 18:35:00,
2013-05-31 14:36:00,87.1,74.3,30.17,ESE,123,0.0,2.2,66,0.00,,,0.00,937.00,VWS V14.01,2013-05-31 18:36:00,
2013-05-31 14:37:00,87.3,74.6,30.17,SSE,162,2.2,4.4,66,0.00,,,0.00,881.00,VWS V14.01,2013-05-31 18:37:00,
2013-05-31 14:38:00,87.3,73.7,30.17,SSE,157,2.2,4.4,64,0.00,,,0.00,858.00,VWS V14.01,2013-05-31 18:38:00,
2013-05-31 14:39:00,87.3,73.7,30.17,SSE,157,1.1,2.2,64,0.00,,,0.00,796.00,VWS V14.01,2013-05-31 18:39:00,
2013-05-31 14:40:00,87.2,73.5,30.16,NE,55,0.0,3.3,64,0.00,,,0.00,856.00,VWS V14.01,2013-05-31 18:40:00,
2013-05-31 14:41:00,87.1,73.4,30.16,SSE,163,6.6,6.6,64,0.00,,,0.00,856.00,VWS V14.01,2013-05-31 18:41:00,
2013-05-31 14:42:00,87.2,74.0,30.16,ESE,120,1.1,6.6,65,0.00,,,0.00,598.00,VWS V14.01,2013-05-31 18:42:00,
2013-05-31 14:43:00,87.2,74.9,30.16,ESE,120,0.0,1.1,67,0.00,,,0.00,596.00,VWS V14.01,2013-05-31 18:43:00,
2013-05-31 14:44:00,87.1,73.4,30.16,East,97,5.5,6.6,64,0.00,,,0.00,596.00,VWS V14.01,2013-05-31 18:44:00,
2013-05-31 14:45:00,86.7,73.5,30.16,South,182,4.4,4.4,65,0.00,,,0.00,494.00,VWS V14.01,2013-05-31 18:45:00,
2013-05-31 14:46:00,86.4,73.3,30.16,South,170,2.2,4.4,65,0.00,,,0.00,540.00,VWS V14.01,2013-05-31 18:46:00,
2013-05-31 14:47:00,86.3,73.2,30.16,SSW,210,5.5,9.9,65,0.00,,,0.00,582.00,VWS V14.01,2013-05-31 18:47:00,
2013-05-31 14:48:00,86.2,72.7,30.16,SSW,196,4.4,8.8,64,0.00,,,0.00,582.00,VWS V14.01,2013-05-31 18:48:00,
2013-05-31 14:49:00,85.9,72.4,30.16,SW,215,2.2,6.6,64,0.00,,,0.00,768.00,VWS V14.01,2013-05-31 18:49:00,
2013-05-31 14:50:00,85.8,72.6,30.16,SSE,149,1.1,3.3,65,0.00,,,0.00,710.00,VWS V14.01,2013-05-31 18:50:00,
2013-05-31 14:51:00,85.8,73.6,30.16,South,185,5.5,5.5,67,0.00,,,0.00,710.00,VWS V14.01,2013-05-31 18:51:00,
2013-05-31 14:52:00,85.8,72.7,30.16,ESE,115,7.7,7.7,65,0.00,,,0.00,809.00,VWS V14.01,2013-05-31 18:52:00,
2013-05-31 14:53:00,85.9,73.3,30.16,SSE,150,3.3,9.9,66,0.00,,,0.00,835.00,VWS V14.01,2013-05-31 18:53:00,
2013-05-31 14:54:00,86.1,73.4,30.16,SSE,166,3.3,5.5,66,0.00,,,0.00,886.00,VWS V14.01,2013-05-31 18:54:00,
2013-05-31 14:55:00,86.1,72.9,30.16,ENE,65,5.5,6.6,65,0.00,,,0.00,889.00,VWS V14.01,2013-05-31 18:55:00,
2013-05-31 14:56:00,86.1,73.4,30.16,SSW,202,3.3,6.6,66,0.00,,,0.00,835.00,VWS V14.01,2013-05-31 18:56:00,
2013-05-31 14:57:00,85.8,72.3,30.16,SE,136,1.1,5.5,64,0.00,,,0.00,800.00,VWS V14.01,2013-05-31 18:57:00,
2013-05-31 14:58:00,85.8,73.6,30.16,SE,138,2.2,6.6,67,0.00,,,0.00,744.00,VWS V14.01,2013-05-31 18:58:00,
2013-05-31 14:59:00,85.9,73.3,30.16,SW,234,3.3,6.6,66,0.00,,,0.00,789.00,VWS V14.01,2013-05-31 18:59:00,
2013-05-31 15:00:00,85.8,72.7,30.16,SSW,192,1.1,4.4,65,0.00,,,0.00,809.00,VWS V14.01,2013-05-31 19:00:00,
2013-05-31 15:01:00,85.8,72.2,30.16,SE,126,5.5,5.5,64,0.00,,,0.00,805.00,VWS V14.01,2013-05-31 19:01:00,
2013-05-31 15:02:00,85.7,73.0,30.16,East,81,1.1,5.5,66,0.00,,,0.00,814.00,VWS V14.01,2013-05-31 19:02:00,
2013-05-31 15:03:00,85.8,73.1,30.16,SW,222,2.2,7.7,66,0.00,,,0.00,772.00,VWS V14.01,2013-05-31 19:03:00,
2013-05-31 15:04:00,85.8,74.0,30.16,South,171,1.1,2.2,68,0.00,,,0.00,751.00,VWS V14.01,2013-05-31 19:04:00,
2013-05-31 15:05:00,85.8,73.5,30.16,SSE,162,4.4,4.4,67,0.00,,,0.00,777.00,VWS V14.01,2013-05-31 19:05:00,
2013-05-31 15:06:00,85.8,73.5,30.16,SSW,206,4.4,8.8,67,0.00,,,0.00,777.00,VWS V14.01,2013-05-31 19:06:00,
2013-05-31 15:07:00,85.7,73.0,30.16,South,172,3.3,7.7,66,0.00,,,0.00,772.00,VWS V14.01,2013-05-31 19:07:00,
2013-05-31 15:08:00,85.7,73.0,30.16,SW,215,1.1,6.6,66,0.00,,,0.00,777.00,VWS V14.01,2013-05-31 19:08:00,
2013-05-31 15:09:00,85.7,73.0,30.15,SSE,156,2.2,2.2,66,0.00,,,0.00,814.00,VWS V14.01,2013-05-31 19:09:00,
2013-05-31 15:10:00,85.8,73.2,30.16,NE,37,1.1,4.4,66,0.00,,,0.00,835.00,VWS V14.01,2013-05-31 19:10:00,
2013-05-31 15:11:00,85.9,72.8,30.16,South,188,1.1,4.4,65,0.00,,,0.00,800.00,VWS V14.01,2013-05-31 19:11:00,
2013-05-31 15:12:00,85.9,72.8,30.15,SW,231,0.0,2.2,65,0.00,,,0.00,788.00,VWS V14.01,2013-05-31 19:12:00,
2013-05-31 15:13:00,85.9,73.3,30.15,SE,131,0.0,3.3,66,0.00,,,0.00,809.00,VWS V14.01,2013-05-31 19:13:00,
2013-05-31 15:14:00,86.1,73.8,30.15,SSW,194,1.1,3.3,67,0.00,,,0.00,803.00,VWS V14.01,2013-05-31 19:14:00,
2013-05-31 15:15:00,86.3,74.6,30.16,South,189,0.0,2.2,68,0.00,,,0.00,849.00,VWS V14.01,2013-05-31 19:15:00,
2013-05-31 15:16:00,86.6,74.3,30.16,SE,141,2.2,2.2,67,0.00,,,0.00,861.00,VWS V14.01,2013-05-31 19:16:00,
2013-05-31 15:17:00,86.7,73.9,30.16,SSW,206,1.1,3.3,66,0.00,,,0.00,842.00,VWS V14.01,2013-05-31 19:17:00,
2013-05-31 15:18:00,86.7,73.0,30.16,East,95,2.2,3.3,64,0.00,,,0.00,761.00,VWS V14.01,2013-05-31 19:18:00,
2013-05-31 15:19:00,86.6,73.8,30.16,ENE,60,0.0,2.2,66,0.00,,,0.00,779.00,VWS V14.01,2013-05-31 19:19:00,
2013-05-31 15:20:00,86.6,73.4,30.16,NNE,18,0.0,0.0,65,0.00,,,0.00,747.00,VWS V14.01,2013-05-31 19:20:00,
2013-05-31 15:21:00,86.4,73.3,30.16,ESE,121,1.1,5.5,65,0.00,,,0.00,724.00,VWS V14.01,2013-05-31 19:21:00,
2013-05-31 15:22:00,86.4,73.3,30.16,SE,129,0.0,1.1,65,0.00,,,0.00,773.00,VWS V14.01,2013-05-31 19:22:00,
2013-05-31 15:23:00,86.3,73.2,30.16,South,173,2.2,4.4,65,0.00,,,0.00,803.00,VWS V14.01,2013-05-31 19:23:00,
2013-05-31 15:24:00,86.2,73.1,30.16,NE,52,2.2,4.4,65,0.00,,,0.00,773.00,VWS V14.01,2013-05-31 19:24:00,
2013-05-31 15:25:00,86.2,73.0,30.16,SE,133,5.5,5.5,65,0.00,,,0.00,773.00,VWS V14.01,2013-05-31 19:25:00,
2013-05-31 15:26:00,86.2,72.6,30.16,ESE,104,3.3,5.5,64,0.00,,,0.00,715.00,VWS V14.01,2013-05-31 19:26:00,
2013-05-31 15:27:00,86.1,72.9,30.16,East,96,1.1,6.6,65,0.00,,,0.00,770.00,VWS V14.01,2013-05-31 19:27:00,
2013-05-31 15:28:00,85.8,73.2,30.16,ESE,119,7.7,7.7,66,0.00,,,0.00,796.00,VWS V14.01,2013-05-31 19:28:00,
2013-05-31 15:29:00,85.8,73.1,30.16,SSE,162,2.2,7.7,66,0.00,,,0.00,735.00,VWS V14.01,2013-05-31 19:29:00,
2013-05-31 15:30:00,85.8,73.1,30.16,South,188,4.4,4.4,66,0.00,,,0.00,615.00,VWS V14.01,2013-05-31 19:30:00,
2013-05-31 15:31:00,85.8,73.1,30.16,East,84,5.5,5.5,66,0.00,,,0.00,708.00,VWS V14.01,2013-05-31 19:31:00,
2013-05-31 15:32:00,85.7,72.5,30.16,West,262,1.1,5.5,65,0.00,,,0.00,708.00,VWS V14.01,2013-05-31 19:32:00,
2013-05-31 15:33:00,85.7,72.5,30.15,South,187,0.0,3.3,65,0.00,,,0.00,872.00,VWS V14.01,2013-05-31 19:33:00,
2013-05-31 15:34:00,85.8,74.1,30.15,SW,214,3.3,3.3,68,0.00,,,0.00,872.00,VWS V14.01,2013-05-31 19:34:00,
2013-05-31 15:35:00,86.1,72.9,30.15,South,185,1.1,4.4,65,0.00,,,0.00,870.00,VWS V14.01,2013-05-31 19:35:00,
2013-05-31 15:36:00,86.4,74.6,30.15,SE,133,1.1,1.1,68,0.00,,,0.00,874.00,VWS V14.01,2013-05-31 19:36:00,
2013-05-31 15:37:00,86.8,73.6,30.15,ESE,114,2.2,3.3,65,0.00,,,0.00,881.00,VWS V14.01,2013-05-31 19:37:00,
2013-05-31 15:38:00,86.8,72.8,30.15,ENE,77,2.2,3.3,63,0.00,,,0.00,882.00,VWS V14.01,2013-05-31 19:38:00,
2013-05-31 15:39:00,86.9,73.3,30.15,SE,140,4.4,4.4,64,0.00,,,0.00,877.00,VWS V14.01,2013-05-31 19:39:00,
2013-05-31 15:40:00,86.8,72.3,30.15,SE,143,4.4,8.8,62,0.00,,,0.00,861.00,VWS V14.01,2013-05-31 19:40:00,
2013-05-31 15:41:00,86.7,72.1,30.15,SSE,149,1.1,1.1,62,0.00,,,0.00,838.00,VWS V14.01,2013-05-31 19:41:00,
2013-05-31 15:42:00,86.4,72.4,30.15,ENE,57,1.1,4.4,63,0.00,,,0.00,838.00,VWS V14.01,2013-05-31 19:42:00,
2013-05-31 15:43:00,86.4,72.8,30.15,SSW,194,2.2,3.3,64,0.00,,,0.00,840.00,VWS V14.01,2013-05-31 19:43:00,
2013-05-31 15:44:00,86.4,72.8,30.15,SSW,211,1.1,5.5,64,0.00,,,0.00,840.00,VWS V14.01,2013-05-31 19:44:00,
2013-05-31 15:45:00,86.3,72.3,30.15,SE,146,1.1,8.8,63,0.00,,,0.00,849.00,VWS V14.01,2013-05-31 19:45:00,
2013-05-31 15:46:00,86.2,72.2,30.16,SSE,159,1.1,3.3,63,0.00,,,0.00,854.00,VWS V14.01,2013-05-31 19:46:00,
2013-05-31 15:47:00,86.2,71.7,30.16,SSW,195,3.3,4.4,62,0.00,,,0.00,856.00,VWS V14.01,2013-05-31 19:47:00,
2013-05-31 15:48:00,86.1,71.5,30.15,SSW,210,2.2,6.6,62,0.00,,,0.00,856.00,VWS V14.01,2013-05-31 19:48:00,
2013-05-31 15:49:00,86.1,71.5,30.15,SSE,150,1.1,6.6,62,0.00,,,0.00,851.00,VWS V14.01,2013-05-31 19:49:00,
2013-05-31 15:50:00,85.9,71.9,30.15,East,99,2.2,5.5,63,0.00,,,0.00,846.00,VWS V14.01,2013-05-31 19:50:00,
2013-05-31 15:51:00,86.1,71.5,30.15,SW,232,7.7,7.7,62,0.00,,,0.00,842.00,VWS V14.01,2013-05-31 19:51:00,
2013-05-31 15:52:00,86.1,72.0,30.15,SSE,151,2.2,7.7,63,0.00,,,0.00,837.00,VWS V14.01,2013-05-31 19:52:00,
2013-05-31 15:53:00,85.9,71.4,30.15,SW,225,1.1,5.5,62,0.00,,,0.00,835.00,VWS V14.01,2013-05-31 19:53:00,
2013-05-31 15:54:00,85.8,70.8,30.15,WSW,256,4.4,6.6,61,0.00,,,0.00,831.00,VWS V14.01,2013-05-31 19:54:00,
2013-05-31 15:55:00,85.8,71.3,30.15,SSW,202,1.1,5.5,62,0.00,,,0.00,824.00,VWS V14.01,2013-05-31 19:55:00,
2013-05-31 15:56:00,86.1,72.0,30.15,SSW,202,0.0,0.0,63,0.00,,,0.00,819.00,VWS V14.01,2013-05-31 19:56:00,
2013-05-31 15:57:00,86.2,73.1,30.15,SSW,202,0.0,0.0,65,0.00,,,0.00,814.00,VWS V14.01,2013-05-31 19:57:00,
2013-05-31 15:58:00,86.6,72.9,30.15,SE,125,4.4,4.4,64,0.00,,,0.00,812.00,VWS V14.01,2013-05-31 19:58:00,
2013-05-31 15:59:00,86.8,72.2,30.15,SSW,213,3.3,5.5,62,0.00,,,0.00,821.00,VWS V14.01,2013-05-31 19:59:00,
2013-05-31 16:00:00,86.8,72.3,30.15,ESE,107,1.1,4.4,62,0.00,,,0.00,803.00,VWS V14.01,2013-05-31 20:00:00,
2013-05-31 16:01:00,86.9,73.3,30.15,SE,133,2.2,2.2,64,0.00,,,0.00,800.00,VWS V14.01,2013-05-31 20:01:00,
2013-05-31 16:02:00,86.8,71.8,30.15,SE,125,2.2,2.2,61,0.00,,,0.00,796.00,VWS V14.01,2013-05-31 20:02:00,
2013-05-31 16:03:00,86.7,72.6,30.15,SSE,156,2.2,5.5,63,0.00,,,0.00,791.00,VWS V14.01,2013-05-31 20:03:00,
2013-05-31 16:04:00,86.6,73.4,30.15,SSE,153,1.1,2.2,65,0.00,,,0.00,789.00,VWS V14.01,2013-05-31 20:04:00,
2013-05-31 16:05:00,86.6,72.5,30.15,NE,35,2.2,4.4,63,0.00,,,0.00,786.00,VWS V14.01,2013-05-31 20:05:00,
2013-05-31 16:06:00,86.7,73.0,30.15,NE,48,1.1,1.1,64,0.00,,,0.00,779.00,VWS V14.01,2013-05-31 20:06:00,
2013-05-31 16:07:00,86.7,73.5,30.15,SSE,153,2.2,2.2,65,0.00,,,0.00,775.00,VWS V14.01,2013-05-31 20:07:00,
2013-05-31 16:08:00,86.6,72.5,30.14,ENE,59,0.0,2.2,63,0.00,,,0.00,773.00,VWS V14.01,2013-05-31 20:08:00,
2013-05-31 16:09:00,86.4,73.3,30.14,ENE,59,0.0,1.1,65,0.00,,,0.00,772.00,VWS V14.01,2013-05-31 20:09:00,
2013-05-31 16:10:00,86.4,72.8,30.14,ENE,59,1.1,1.1,64,0.00,,,0.00,768.00,VWS V14.01,2013-05-31 20:10:00,
2013-05-31 16:11:00,86.3,72.7,30.14,NE,42,0.0,0.0,64,0.00,,,0.00,758.00,VWS V14.01,2013-05-31 20:11:00,
2013-05-31 16:12:00,86.3,72.7,30.14,NE,47,0.0,2.2,64,0.00,,,0.00,754.00,VWS V14.01,2013-05-31 20:12:00,
2013-05-31 16:13:00,86.3,72.3,30.14,SSE,158,6.6,6.6,63,0.00,,,0.00,758.00,VWS V14.01,2013-05-31 20:13:00,
2013-05-31 16:14:00,86.2,72.1,30.14,NE,42,0.0,6.6,63,0.00,,,0.00,752.00,VWS V14.01,2013-05-31 20:14:00,
2013-05-31 16:15:00,85.8,70.4,30.14,SSE,157,2.2,3.3,60,0.00,,,0.00,747.00,VWS V14.01,2013-05-31 20:15:00,
2013-05-31 16:16:00,85.7,71.1,30.14,South,179,1.1,3.3,62,0.00,,,0.00,745.00,VWS V14.01,2013-05-31 20:16:00,
2013-05-31 16:17:00,85.8,71.8,30.14,SE,131,2.2,5.5,63,0.00,,,0.00,742.00,VWS V14.01,2013-05-31 20:17:00,
2013-05-31 16:18:00,85.9,71.4,30.14,SE,145,1.1,4.4,62,0.00,,,0.00,740.00,VWS V14.01,2013-05-31 20:18:00,
2013-05-31 16:19:00,85.9,70.9,30.14,South,169,5.5,5.5,61,0.00,,,0.00,737.00,VWS V14.01,2013-05-31 20:19:00,
2013-05-31 16:20:00,85.8,70.8,30.14,NE,46,1.1,5.5,61,0.00,,,0.00,733.00,VWS V14.01,2013-05-31 20:20:00,
2013-05-31 16:21:00,85.8,71.3,30.14,NNE,32,0.0,2.2,62,0.00,,,0.00,731.00,VWS V14.01,2013-05-31 20:21:00,
2013-05-31 16:22:00,85.8,71.3,30.14,SSW,200,4.4,4.4,62,0.00,,,0.00,728.00,VWS V14.01,2013-05-31 20:22:00,
2013-05-31 16:23:00,85.9,71.9,30.14,SSE,158,1.1,5.5,63,0.00,,,0.00,728.00,VWS V14.01,2013-05-31 20:23:00,
2013-05-31 16:24:00,86.1,72.0,30.14,SW,216,3.3,3.3,63,0.00,,,0.00,721.00,VWS V14.01,2013-05-31 20:24:00,
2013-05-31 16:25:00,85.9,70.9,30.14,SW,216,4.4,4.4,61,0.00,,,0.00,719.00,VWS V14.01,2013-05-31 20:25:00,
2013-05-31 16:26:00,85.8,71.8,30.14,South,179,2.2,2.2,63,0.00,,,0.00,714.00,VWS V14.01,2013-05-31 20:26:00,
2013-05-31 16:27:00,85.9,72.4,30.14,SE,143,0.0,3.3,64,0.00,,,0.00,717.00,VWS V14.01,2013-05-31 20:27:00,
2013-05-31 16:28:00,86.1,71.0,30.14,South,179,3.3,5.5,61,0.00,,,0.00,714.00,VWS V14.01,2013-05-31 20:28:00,
2013-05-31 16:29:00,85.9,70.5,30.14,SSW,198,2.2,5.5,60,0.00,,,0.00,708.00,VWS V14.01,2013-05-31 20:29:00,
2013-05-31 16:30:00,85.8,70.8,30.14,NNE,29,3.3,3.3,61,0.00,,,0.00,707.00,VWS V14.01,2013-05-31 20:30:00,
2013-05-31 16:31:00,85.8,71.2,30.14,SSE,150,1.1,5.5,62,0.00,,,0.00,703.00,VWS V14.01,2013-05-31 20:31:00,
2013-05-31 16:32:00,85.8,71.3,30.14,SSE,152,3.3,3.3,62,0.00,,,0.00,701.00,VWS V14.01,2013-05-31 20:32:00,
2013-05-31 16:33:00,85.8,71.2,30.14,SSE,154,2.2,5.5,62,0.00,,,0.00,700.00,VWS V14.01,2013-05-31 20:33:00,
2013-05-31 16:34:00,85.7,72.1,30.14,ENE,77,5.5,5.5,64,0.00,,,0.00,691.00,VWS V14.01,2013-05-31 20:34:00,
2013-05-31 16:35:00,85.7,71.6,30.14,NE,55,2.2,5.5,63,0.00,,,0.00,686.00,VWS V14.01,2013-05-31 20:35:00,
2013-05-31 16:36:00,85.8,72.2,30.14,SE,144,0.0,0.0,64,0.00,,,0.00,686.00,VWS V14.01,2013-05-31 20:36:00,
2013-05-31 16:37:00,85.8,71.2,30.14,SSW,198,3.3,6.6,62,0.00,,,0.00,682.00,VWS V14.01,2013-05-31 20:37:00,
2013-05-31 16:38:00,85.8,71.2,30.14,SE,133,1.1,4.4,62,0.00,,,0.00,682.00,VWS V14.01,2013-05-31 20:38:00,
2013-05-31 16:39:00,85.8,70.8,30.14,ESE,114,4.4,8.8,61,0.00,,,0.00,680.00,VWS V14.01,2013-05-31 20:39:00,
2013-05-31 16:40:00,85.8,70.8,30.14,South,183,1.1,6.6,61,0.00,,,0.00,680.00,VWS V14.01,2013-05-31 20:40:00,
2013-05-31 16:41:00,85.7,70.7,30.14,South,181,0.0,1.1,61,0.00,,,0.00,670.00,VWS V14.01,2013-05-31 20:41:00,
2013-05-31 16:42:00,85.6,70.6,30.14,South,191,0.0,1.1,61,0.00,,,0.00,666.00,VWS V14.01,2013-05-31 20:42:00,
2013-05-31 16:43:00,85.3,70.4,30.14,West,262,2.2,2.2,61,0.00,,,0.00,666.00,VWS V14.01,2013-05-31 20:43:00,
2013-05-31 16:44:00,85.3,70.9,30.14,SW,218,6.6,9.9,62,0.00,,,0.00,663.00,VWS V14.01,2013-05-31 20:44:00,
2013-05-31 16:45:00,85.2,71.2,30.14,South,172,4.4,6.6,63,0.00,,,0.00,661.00,VWS V14.01,2013-05-31 20:45:00,
2013-05-31 16:46:00,85.3,70.9,30.14,ESE,121,5.5,5.5,62,0.00,,,0.00,656.00,VWS V14.01,2013-05-31 20:46:00,
2013-05-31 16:47:00,85.3,70.9,30.14,SSE,168,3.3,5.5,62,0.00,,,0.00,654.00,VWS V14.01,2013-05-31 20:47:00,
2013-05-31 16:48:00,85.3,70.9,30.14,ESE,102,3.3,4.4,62,0.00,,,0.00,650.00,VWS V14.01,2013-05-31 20:48:00,
2013-05-31 16:49:00,85.3,70.4,30.14,SSE,148,3.3,4.4,61,0.00,,,0.00,650.00,VWS V14.01,2013-05-31 20:49:00,
2013-05-31 16:50:00,85.4,71.0,30.14,NE,56,2.2,3.3,62,0.00,,,0.00,647.00,VWS V14.01,2013-05-31 20:50:00,
2013-05-31 16:51:00,85.6,70.6,30.14,ESE,111,1.1,1.1,61,0.00,,,0.00,645.00,VWS V14.01,2013-05-31 20:51:00,
2013-05-31 16:52:00,85.4,71.0,30.14,ESE,121,0.0,1.1,62,0.00,,,0.00,636.00,VWS V14.01,2013-05-31 20:52:00,
2013-05-31 16:53:00,85.4,70.5,30.14,SSE,148,1.1,3.3,61,0.00,,,0.00,633.00,VWS V14.01,2013-05-31 20:53:00,
2013-05-31 16:54:00,85.3,70.4,30.14,ENE,57,2.2,6.6,61,0.00,,,0.00,633.00,VWS V14.01,2013-05-31 20:54:00,
2013-05-31 16:55:00,85.2,70.2,30.14,SW,220,0.0,3.3,61,0.00,,,0.00,631.00,VWS V14.01,2013-05-31 20:55:00,
2013-05-31 16:56:00,84.9,71.4,30.14,SW,220,0.0,0.0,64,0.00,,,0.00,629.00,VWS V14.01,2013-05-31 20:56:00,
2013-05-31 16:57:00,84.9,70.5,30.14,South,190,2.2,2.2,62,0.00,,,0.00,628.00,VWS V14.01,2013-05-31 20:57:00,
2013-05-31 16:58:00,84.9,70.0,30.14,SE,129,1.1,2.2,61,0.00,,,0.00,617.00,VWS V14.01,2013-05-31 20:58:00,
2013-05-31 16:59:00,85.1,71.1,30.14,ENE,75,1.1,1.1,63,0.00,,,0.00,617.00,VWS V14.01,2013-05-31 20:59:00,
2013-05-31 17:00:00,85.2,71.7,30.14,SE,141,1.1,4.4,64,0.00,,,0.00,615.00,VWS V14.01,2013-05-31 21:00:00,
2013-05-31 17:01:00,85.3,70.4,30.14,South,175,3.3,5.5,61,0.00,,,0.00,612.00,VWS V14.01,2013-05-31 21:01:00,
2013-05-31 17:02:00,85.2,70.3,30.14,South,172,3.3,5.5,61,0.00,,,0.00,610.00,VWS V14.01,2013-05-31 21:02:00,
2013-05-31 17:03:00,85.2,70.2,30.14,ESE,109,2.2,4.4,61,0.00,,,0.00,606.00,VWS V14.01,2013-05-31 21:03:00,
2013-05-31 17:04:00,85.2,71.1,30.14,SW,218,2.2,4.4,63,0.00,,,0.00,599.00,VWS V14.01,2013-05-31 21:04:00,
2013-05-31 17:05:00,85.1,70.1,30.14,SSE,160,1.1,7.7,61,0.00,,,0.00,601.00,VWS V14.01,2013-05-31 21:05:00,
2013-05-31 17:06:00,84.9,70.5,30.14,South,171,2.2,2.2,62,0.00,,,0.00,589.00,VWS V14.01,2013-05-31 21:06:00,
2013-05-31 17:07:00,84.8,69.9,30.14,SW,221,1.1,3.3,61,0.00,,,0.00,587.00,VWS V14.01,2013-05-31 21:07:00,
2013-05-31 17:08:00,84.8,69.8,30.14,ESE,117,0.0,3.3,61,0.00,,,0.00,589.00,VWS V14.01,2013-05-31 21:08:00,
2013-05-31 17:09:00,84.6,70.1,30.14,East,98,1.1,4.4,62,0.00,,,0.00,584.00,VWS V14.01,2013-05-31 21:09:00,
2013-05-31 17:10:00,84.7,70.7,30.14,SSE,156,5.5,5.5,63,0.00,,,0.00,578.00,VWS V14.01,2013-05-31 21:10:00,
2013-05-31 17:11:00,84.8,70.3,30.14,SSE,148,1.1,1.1,62,0.00,,,0.00,577.00,VWS V14.01,2013-05-31 21:11:00,
2013-05-31 17:12:00,84.8,70.9,30.14,South,184,3.3,7.7,63,0.00,,,0.00,578.00,VWS V14.01,2013-05-31 21:12:00,
2013-05-31 17:13:00,84.7,69.7,30.14,SSW,211,0.0,5.5,61,0.00,,,0.00,575.00,VWS V14.01,2013-05-31 21:13:00,
2013-05-31 17:14:00,84.4,70.5,30.14,SSW,193,0.0,2.2,63,0.00,,,0.00,568.00,VWS V14.01,2013-05-31 21:14:00,
2013-05-31 17:15:00,84.4,70.9,30.13,South,177,1.1,2.2,64,0.00,,,0.00,564.00,VWS V14.01,2013-05-31 21:15:00,
2013-05-31 17:16:00,84.4,70.5,30.14,South,191,1.1,2.2,63,0.00,,,0.00,557.00,VWS V14.01,2013-05-31 21:16:00,
2013-05-31 17:17:00,84.4,70.0,30.14,SE,127,1.1,4.4,62,0.00,,,0.00,555.00,VWS V14.01,2013-05-31 21:17:00,
2013-05-31 17:18:00,84.6,70.6,30.14,ESE,108,0.0,2.2,63,0.00,,,0.00,545.00,VWS V14.01,2013-05-31 21:18:00,
2013-05-31 17:19:00,84.6,69.6,30.14,SSE,159,5.5,7.7,61,0.00,,,0.00,508.00,VWS V14.01,2013-05-31 21:19:00,
2013-05-31 17:20:00,84.6,69.6,30.14,SSW,193,2.2,6.6,61,0.00,,,0.00,547.00,VWS V14.01,2013-05-31 21:20:00,
2013-05-31 17:21:00,84.4,70.5,30.14,SE,133,4.4,4.4,63,0.00,,,0.00,547.00,VWS V14.01,2013-05-31 21:21:00,
2013-05-31 17:22:00,84.3,70.4,30.14,SE,134,4.4,8.8,63,0.00,,,0.00,534.00,VWS V14.01,2013-05-31 21:22:00,
2013-05-31 17:23:00,84.3,70.4,30.13,SE,129,0.0,4.4,63,0.00,,,0.00,534.00,VWS V14.01,2013-05-31 21:23:00,
2013-05-31 17:24:00,84.3,70.8,30.14,SE,135,2.2,4.4,64,0.00,,,0.00,74.00,VWS V14.01,2013-05-31 21:24:00,
2013-05-31 17:25:00,84.3,71.3,30.14,SE,131,0.0,3.3,65,0.00,,,0.00,81.00,VWS V14.01,2013-05-31 21:25:00,
2013-05-31 17:26:00,84.3,71.3,30.14,ENE,58,1.1,1.1,65,0.00,,,0.00,72.00,VWS V14.01,2013-05-31 21:26:00,
2013-05-31 17:27:00,84.3,71.3,30.14,ENE,59,1.1,1.1,65,0.00,,,0.00,90.00,VWS V14.01,2013-05-31 21:27:00,
2013-05-31 17:28:00,84.3,70.4,30.13,NNE,33,2.2,4.4,63,0.00,,,0.00,128.00,VWS V14.01,2013-05-31 21:28:00,
2013-05-31 17:29:00,84.3,70.4,30.13,ENE,60,0.0,2.2,63,0.00,,,0.00,70.00,VWS V14.01,2013-05-31 21:29:00,
2013-05-31 17:30:00,84.3,70.4,30.14,NNW,348,0.0,2.2,63,0.00,,,0.00,67.00,VWS V14.01,2013-05-31 21:30:00,
2013-05-31 17:31:00,84.3,70.8,30.13,SSW,213,1.1,1.1,64,0.00,,,0.00,65.00,VWS V14.01,2013-05-31 21:31:00,
2013-05-31 17:32:00,84.2,70.8,30.13,South,179,0.0,1.1,64,0.00,,,0.00,67.00,VWS V14.01,2013-05-31 21:32:00,
2013-05-31 17:33:00,84.2,71.1,30.14,East,92,5.5,5.5,65,0.00,,,0.00,83.00,VWS V14.01,2013-05-31 21:33:00,
2013-05-31 17:34:00,84.2,71.1,30.14,SSE,150,3.3,5.5,65,0.00,,,0.00,49.00,VWS V14.01,2013-05-31 21:34:00,
2013-05-31 17:35:00,83.9,70.5,30.14,South,174,1.1,3.3,64,0.00,,,0.00,70.00,VWS V14.01,2013-05-31 21:35:00,
2013-05-31 17:36:00,83.8,70.7,30.14,ESE,114,2.2,2.2,65,0.00,,,0.00,67.00,VWS V14.01,2013-05-31 21:36:00,
2013-05-31 17:37:00,83.7,70.7,30.14,SE,131,2.2,6.6,65,0.00,,,0.00,65.00,VWS V14.01,2013-05-31 21:37:00,
2013-05-31 17:38:00,83.4,70.5,30.14,SE,145,2.2,4.4,65,0.00,,,0.00,63.00,VWS V14.01,2013-05-31 21:38:00,
2013-05-31 17:39:00,83.4,70.5,30.14,SSE,166,3.3,3.3,65,0.00,,,0.00,62.00,VWS V14.01,2013-05-31 21:39:00,
2013-05-31 17:40:00,83.3,69.9,30.14,ESE,120,1.1,5.5,64,0.00,,,0.00,62.00,VWS V14.01,2013-05-31 21:40:00,
2013-05-31 17:41:00,83.2,69.8,30.13,ENE,75,6.6,6.6,64,0.00,,,0.00,62.00,VWS V14.01,2013-05-31 21:41:00,
2013-05-31 17:42:00,83.2,70.7,30.13,East,81,0.0,6.6,66,0.00,,,0.00,74.00,VWS V14.01,2013-05-31 21:42:00,
2013-05-31 17:43:00,83.2,70.7,30.13,NE,43,2.2,4.4,66,0.00,,,0.00,81.00,VWS V14.01,2013-05-31 21:43:00,
2013-05-31 17:44:00,83.2,70.6,30.13,ENE,60,1.1,2.2,66,0.00,,,0.00,70.00,VWS V14.01,2013-05-31 21:44:00,
2013-05-31 17:45:00,83.2,70.2,30.13,East,85,1.1,1.1,65,0.00,,,0.00,63.00,VWS V14.01,2013-05-31 21:45:00,
2013-05-31 17:46:00,83.2,70.7,30.13,SSE,164,1.1,3.3,66,0.00,,,0.00,65.00,VWS V14.01,2013-05-31 21:46:00,
2013-05-31 17:47:00,83.2,70.7,30.13,SE,127,2.2,2.2,66,0.00,,,0.00,67.00,VWS V14.01,2013-05-31 21:47:00,
2013-05-31 17:48:00,83.3,70.8,30.13,South,173,1.1,3.3,66,0.00,,,0.00,67.00,VWS V14.01,2013-05-31 21:48:00,
2013-05-31 17:49:00,83.4,70.9,30.13,ENE,71,0.0,2.2,66,0.00,,,0.00,65.00,VWS V14.01,2013-05-31 21:49:00,
2013-05-31 17:50:00,83.3,70.8,30.13,ENE,73,0.0,0.0,66,0.00,,,0.00,62.00,VWS V14.01,2013-05-31 21:50:00,
2013-05-31 17:51:00,83.3,70.8,30.13,ENE,74,0.0,3.3,66,0.00,,,0.00,62.00,VWS V14.01,2013-05-31 21:51:00,
2013-05-31 17:52:00,83.2,71.2,30.13,ESE,102,1.1,3.3,67,0.00,,,0.00,62.00,VWS V14.01,2013-05-31 21:52:00,
2013-05-31 17:53:00,83.3,71.2,30.13,ESE,102,0.0,1.1,67,0.00,,,0.00,60.00,VWS V14.01,2013-05-31 21:53:00,
2013-05-31 17:54:00,83.3,71.2,30.13,SW,220,4.4,4.4,67,0.00,,,0.00,60.00,VWS V14.01,2013-05-31 21:54:00,
2013-05-31 17:55:00,83.2,71.2,30.13,SE,133,3.3,5.5,67,0.00,,,0.00,60.00,VWS V14.01,2013-05-31 21:55:00,
2013-05-31 17:56:00,83.2,70.6,30.13,SSE,160,3.3,3.3,66,0.00,,,0.00,60.00,VWS V14.01,2013-05-31 21:56:00,
2013-05-31 17:57:00,82.9,70.4,30.13,SE,132,1.1,3.3,66,0.00,,,0.00,62.00,VWS V14.01,2013-05-31 21:57:00,
2013-05-31 17:58:00,82.8,69.9,30.13,South,172,1.1,5.5,65,0.00,,,0.00,65.00,VWS V14.01,2013-05-31 21:58:00,
2013-05-31 17:59:00,82.8,70.3,30.13,East,96,1.1,2.2,66,0.00,,,0.00,70.00,VWS V14.01,2013-05-31 21:59:00,
2013-05-31 18:00:00,82.8,70.3,30.13,SSW,212,3.3,3.3,66,0.00,,,0.00,56.00,VWS V14.01,2013-05-31 22:00:00,
2013-05-31 18:01:00,82.8,70.8,30.13,East,96,0.0,3.3,67,0.00,,,0.00,62.00,VWS V14.01,2013-05-31 22:01:00,
2013-05-31 18:02:00,82.8,70.2,30.13,SE,132,0.0,3.3,66,0.00,,,0.00,56.00,VWS V14.01,2013-05-31 22:02:00,
2013-05-31 18:03:00,82.8,70.7,30.13,SSE,160,1.1,7.7,67,0.00,,,0.00,56.00,VWS V14.01,2013-05-31 22:03:00,
2013-05-31 18:04:00,82.8,71.1,30.13,SE,130,1.1,4.4,68,0.00,,,0.00,56.00,VWS V14.01,2013-05-31 22:04:00,
2013-05-31 18:05:00,82.8,71.2,30.13,ENE,63,2.2,3.3,68,0.00,,,0.00,58.00,VWS V14.01,2013-05-31 22:05:00,
2013-05-31 18:06:00,82.8,71.6,30.13,ENE,77,2.2,2.2,69,0.00,,,0.00,67.00,VWS V14.01,2013-05-31 22:06:00,
2013-05-31 18:07:00,82.8,71.6,30.13,SSE,161,2.2,4.4,69,0.00,,,0.00,56.00,VWS V14.01,2013-05-31 22:07:00,
2013-05-31 18:08:00,82.8,71.6,30.13,ESE,110,1.1,5.5,69,0.00,,,0.00,58.00,VWS V14.01,2013-05-31 22:08:00,
2013-05-31 18:09:00,82.8,71.6,30.13,SE,133,3.3,3.3,69,0.00,,,0.00,58.00,VWS V14.01,2013-05-31 22:09:00,
2013-05-31 18:10:00,82.8,71.6,30.13,South,190,1.1,3.3,69,0.00,,,0.00,58.00,VWS V14.01,2013-05-31 22:10:00,
2013-05-31 18:11:00,82.7,71.4,30.13,East,85,1.1,3.3,69,0.00,,,0.00,69.00,VWS V14.01,2013-05-31 22:11:00,
2013-05-31 18:12:00,82.7,71.9,30.13,WSW,256,5.5,6.6,70,0.00,,,0.00,102.00,VWS V14.01,2013-05-31 22:12:00,
2013-05-31 18:13:00,82.6,71.8,30.13,South,172,2.2,5.5,70,0.00,,,0.00,113.00,VWS V14.01,2013-05-31 22:13:00,
2013-05-31 18:14:00,82.4,71.7,30.13,East,93,0.0,5.5,70,0.00,,,0.00,221.00,VWS V14.01,2013-05-31 22:14:00,
2013-05-31 18:15:00,82.4,71.7,30.13,SSE,164,1.1,3.3,70,0.00,,,0.00,253.00,VWS V14.01,2013-05-31 22:15:00,
2013-05-31 18:16:00,82.4,71.7,30.13,NE,48,0.0,2.2,70,0.00,,,0.00,318.00,VWS V14.01,2013-05-31 22:16:00,
2013-05-31 18:17:00,82.3,72.0,30.13,SW,229,5.5,6.6,71,0.00,,,0.00,251.00,VWS V14.01,2013-05-31 22:17:00,
2013-05-31 18:18:00,82.3,72.0,30.13,East,80,2.2,7.7,71,0.00,,,0.00,209.00,VWS V14.01,2013-05-31 22:18:00,
2013-05-31 18:19:00,82.2,71.9,30.13,SSW,193,2.2,5.5,71,0.00,,,0.00,137.00,VWS V14.01,2013-05-31 22:19:00,
2013-05-31 18:20:00,82.2,71.9,30.13,SE,141,6.6,6.6,71,0.00,,,0.00,74.00,VWS V14.01,2013-05-31 22:20:00,
2013-05-31 18:21:00,82.2,71.4,30.13,SE,135,6.6,6.6,70,0.00,,,0.00,69.00,VWS V14.01,2013-05-31 22:21:00,
2013-05-31 18:22:00,82.2,71.8,30.12,South,185,1.1,6.6,71,0.00,,,0.00,67.00,VWS V14.01,2013-05-31 22:22:00,
2013-05-31 18:23:00,82.2,72.2,30.13,SSE,166,0.0,2.2,72,0.00,,,0.00,65.00,VWS V14.01,2013-05-31 22:23:00,
2013-05-31 18:24:00,82.2,72.2,30.13,NW,312,0.0,0.0,72,0.00,,,0.00,69.00,VWS V14.01,2013-05-31 22:24:00,
2013-05-31 18:25:00,82.2,72.2,30.13,SSE,162,4.4,5.5,72,0.00,,,0.00,84.00,VWS V14.01,2013-05-31 22:25:00,
2013-05-31 18:26:00,82.2,72.2,30.13,SSE,159,1.1,7.7,72,0.00,,,0.00,120.00,VWS V14.01,2013-05-31 22:26:00,
2013-05-31 18:27:00,82.1,72.1,30.13,ESE,111,1.1,8.8,72,0.00,,,0.00,128.00,VWS V14.01,2013-05-31 22:27:00,
2013-05-31 18:28:00,81.9,72.0,30.13,SE,136,0.0,2.2,72,0.00,,,0.00,84.00,VWS V14.01,2013-05-31 22:28:00,
2013-05-31 18:29:00,81.9,72.0,30.13,SW,232,4.4,4.4,72,0.00,,,0.00,67.00,VWS V14.01,2013-05-31 22:29:00,
2013-05-31 18:30:00,81.9,72.0,30.13,South,187,2.2,5.5,72,0.00,,,0.00,65.00,VWS V14.01,2013-05-31 22:30:00,
2013-05-31 18:31:00,81.8,71.9,30.12,SE,145,5.5,5.5,72,0.00,,,0.00,56.00,VWS V14.01,2013-05-31 22:31:00,
2013-05-31 18:32:00,81.8,71.9,30.12,SW,236,1.1,5.5,72,0.00,,,0.00,54.00,VWS V14.01,2013-05-31 22:32:00,
2013-05-31 18:33:00,81.8,71.8,30.12,SSE,158,2.2,4.4,72,0.00,,,0.00,51.00,VWS V14.01,2013-05-31 22:33:00,
2013-05-31 18:34:00,81.8,71.4,30.12,ESE,115,2.2,8.8,71,0.00,,,0.00,51.00,VWS V14.01,2013-05-31 22:34:00,
2013-05-31 18:35:00,81.7,71.8,30.12,SSE,153,1.1,2.2,72,0.00,,,0.00,54.00,VWS V14.01,2013-05-31 22:35:00,
2013-05-31 18:36:00,81.7,71.8,30.13,SSW,210,0.0,1.1,72,0.00,,,0.00,53.00,VWS V14.01,2013-05-31 22:36:00,
2013-05-31 18:37:00,81.6,72.1,30.12,West,262,2.2,4.4,73,0.00,,,0.00,49.00,VWS V14.01,2013-05-31 22:37:00,
2013-05-31 18:38:00,81.4,72.0,30.12,South,179,1.1,9.9,73,0.00,,,0.00,51.00,VWS V14.01,2013-05-31 22:38:00,
2013-05-31 18:39:00,81.4,72.0,30.12,ENE,68,3.3,5.5,73,0.00,,,0.00,63.00,VWS V14.01,2013-05-31 22:39:00,
2013-05-31 18:40:00,81.4,72.0,30.12,ESE,123,1.1,6.6,73,0.00,,,0.00,69.00,VWS V14.01,2013-05-31 22:40:00,
2013-05-31 18:41:00,81.3,72.3,30.12,SSE,159,4.4,4.4,74,0.00,,,0.00,79.00,VWS V14.01,2013-05-31 22:41:00,
2013-05-31 18:42:00,81.3,72.3,30.12,SSE,150,3.3,4.4,74,0.00,,,0.00,86.00,VWS V14.01,2013-05-31 22:42:00,
2013-05-31 18:43:00,81.2,72.2,30.12,SE,141,2.2,3.3,74,0.00,,,0.00,65.00,VWS V14.01,2013-05-31 22:43:00,
2013-05-31 18:44:00,81.2,72.2,30.12,South,175,2.2,2.2,74,0.00,,,0.00,65.00,VWS V14.01,2013-05-31 22:44:00,
2013-05-31 18:45:00,81.2,72.2,30.12,SSE,164,0.0,2.2,74,0.00,,,0.00,56.00,VWS V14.01,2013-05-31 22:45:00,
2013-05-31 18:46:00,81.2,72.6,30.12,SSE,147,3.3,4.4,75,0.00,,,0.00,69.00,VWS V14.01,2013-05-31 22:46:00,
2013-05-31 18:47:00,81.2,71.8,30.12,South,186,1.1,7.7,73,0.00,,,0.00,46.00,VWS V14.01,2013-05-31 22:47:00,
2013-05-31 18:48:00,81.2,71.7,30.12,SE,126,1.1,1.1,73,0.00,,,0.00,46.00,VWS V14.01,2013-05-31 22:48:00,
2013-05-31 18:49:00,81.2,71.7,30.12,SSE,147,1.1,3.3,73,0.00,,,0.00,46.00,VWS V14.01,2013-05-31 22:49:00,
2013-05-31 18:50:00,81.2,71.7,30.12,SSW,206,0.0,1.1,73,0.00,,,0.00,46.00,VWS V14.01,2013-05-31 22:50:00,
2013-05-31 18:51:00,81.2,72.1,30.13,SW,225,1.1,2.2,74,0.00,,,0.00,44.00,VWS V14.01,2013-05-31 22:51:00,
2013-05-31 18:52:00,81.2,72.1,30.13,NNE,23,1.1,2.2,74,0.00,,,0.00,44.00,VWS V14.01,2013-05-31 22:52:00,
2013-05-31 18:53:00,81.1,72.0,30.13,SSW,207,3.3,3.3,74,0.00,,,0.00,42.00,VWS V14.01,2013-05-31 22:53:00,
2013-05-31 18:54:00,81.1,72.0,30.13,ESE,107,2.2,3.3,74,0.00,,,0.00,42.00,VWS V14.01,2013-05-31 22:54:00,
2013-05-31 18:55:00,80.8,71.8,30.13,ESE,114,1.1,2.2,74,0.00,,,0.00,40.00,VWS V14.01,2013-05-31 22:55:00,
2013-05-31 18:56:00,80.8,71.8,30.13,ESE,114,1.1,2.2,74,0.00,,,0.00,40.00,VWS V14.01,2013-05-31 22:56:00,
2013-05-31 18:57:00,80.8,71.8,30.13,SE,141,1.1,4.4,74,0.00,,,0.00,40.00,VWS V14.01,2013-05-31 22:57:00,
2013-05-31 18:58:00,80.8,72.1,30.13,SW,216,2.2,5.5,75,0.00,,,0.00,40.00,VWS V14.01,2013-05-31 22:58:00,
2013-05-31 18:59:00,80.8,71.7,30.13,SSE,150,1.1,3.3,74,0.00,,,0.00,39.00,VWS V14.01,2013-05-31 22:59:00,
2013-05-31 19:00:00,80.7,72.0,30.13,East,79,2.2,3.3,75,0.00,,,0.00,39.00,VWS V14.01,2013-05-31 23:00:00,
2013-05-31 19:01:00,80.7,72.0,30.13,ESE,106,2.2,3.3,75,0.00,,,0.00,39.00,VWS V14.01,2013-05-31 23:01:00,
2013-05-31 19:02:00,80.7,72.0,30.13,SSE,155,0.0,3.3,75,0.00,,,0.00,44.00,VWS V14.01,2013-05-31 23:02:00,
2013-05-31 19:03:00,80.7,72.0,30.13,SE,131,1.1,3.3,75,0.00,,,0.00,40.00,VWS V14.01,2013-05-31 23:03:00,
2013-05-31 19:04:00,80.6,71.9,30.13,SE,135,0.0,1.1,75,0.00,,,0.00,39.00,VWS V14.01,2013-05-31 23:04:00,
2013-05-31 19:05:00,80.4,71.4,30.13,ESE,103,5.5,11.0,74,0.00,,,0.00,42.00,VWS V14.01,2013-05-31 23:05:00,
2013-05-31 19:06:00,80.4,71.4,30.13,ESE,102,4.4,11.0,74,0.00,,,0.00,42.00,VWS V14.01,2013-05-31 23:06:00,
2013-05-31 19:07:00,80.4,71.4,30.13,ESE,120,0.0,7.7,74,0.00,,,0.00,39.00,VWS V14.01,2013-05-31 23:07:00,
2013-05-31 19:08:00,80.3,71.3,30.13,SSW,196,3.3,5.5,74,0.00,,,0.00,37.00,VWS V14.01,2013-05-31 23:08:00,
2013-05-31 19:09:00,80.2,71.2,30.13,ESE,109,7.7,7.7,74,0.00,,,0.00,40.00,VWS V14.01,2013-05-31 23:09:00,
2013-05-31 19:10:00,80.2,71.1,30.13,NNE,30,0.0,1.1,74,0.00,,,0.00,33.00,VWS V14.01,2013-05-31 23:10:00,
2013-05-31 19:11:00,80.2,71.1,30.13,NNE,30,0.0,1.1,74,0.00,,,0.00,33.00,VWS V14.01,2013-05-31 23:11:00,
2013-05-31 19:12:00,80.2,71.5,30.13,ENE,62,3.3,3.3,75,0.00,,,0.00,30.00,VWS V14.01,2013-05-31 23:12:00,
2013-05-31 19:13:00,80.2,71.5,30.13,SSE,149,2.2,4.4,75,0.00,,,0.00,32.00,VWS V14.01,2013-05-31 23:13:00,
2013-05-31 19:14:00,80.1,71.4,30.13,SSE,162,1.1,2.2,75,0.00,,,0.00,30.00,VWS V14.01,2013-05-31 23:14:00,
2013-05-31 19:15:00,79.9,71.3,30.13,SSW,203,1.1,1.1,75,0.00,,,0.00,28.00,VWS V14.01,2013-05-31 23:15:00,
2013-05-31 19:16:00,79.9,71.3,30.13,SSW,203,0.0,1.1,75,0.00,,,0.00,28.00,VWS V14.01,2013-05-31 23:16:00,
2013-05-31 19:17:00,79.9,71.7,30.13,SSE,154,0.0,4.4,76,0.00,,,0.00,30.00,VWS V14.01,2013-05-31 23:17:00,
2013-05-31 19:18:00,79.8,71.2,30.13,SE,127,2.2,8.8,75,0.00,,,0.00,28.00,VWS V14.01,2013-05-31 23:18:00,
2013-05-31 19:19:00,79.8,71.1,30.13,South,171,1.1,2.2,75,0.00,,,0.00,23.00,VWS V14.01,2013-05-31 23:19:00,
2013-05-31 19:20:00,79.7,71.4,30.13,SSW,203,0.0,1.1,76,0.00,,,0.00,28.00,VWS V14.01,2013-05-31 23:20:00,
2013-05-31 19:21:00,79.7,71.4,30.13,SSW,203,0.0,1.1,76,0.00,,,0.00,28.00,VWS V14.01,2013-05-31 23:21:00,
2013-05-31 19:22:00,79.7,71.4,30.13,SSW,203,1.1,1.1,76,0.00,,,0.00,26.00,VWS V14.01,2013-05-31 23:22:00,
2013-05-31 19:23:00,79.6,71.3,30.13,SSE,160,0.0,1.1,76,0.00,,,0.00,25.00,VWS V14.01,2013-05-31 23:23:00,
2013-05-31 19:24:00,79.6,71.3,30.13,South,173,0.0,1.1,76,0.00,,,0.00,28.00,VWS V14.01,2013-05-31 23:24:00,
2013-05-31 19:25:00,79.4,71.6,30.13,SSW,204,0.0,1.1,77,0.00,,,0.00,32.00,VWS V14.01,2013-05-31 23:25:00,
2013-05-31 19:26:00,79.4,71.6,30.13,ESE,110,1.1,1.1,77,0.00,,,0.00,32.00,VWS V14.01,2013-05-31 23:26:00,
2013-05-31 19:27:00,79.3,71.5,30.13,SSW,197,0.0,3.3,77,0.00,,,0.00,33.00,VWS V14.01,2013-05-31 23:27:00,
2013-05-31 19:28:00,79.2,71.4,30.13,ESE,116,1.1,1.1,77,0.00,,,0.00,32.00,VWS V14.01,2013-05-31 23:28:00,
2013-05-31 19:29:00,79.2,71.4,30.13,SE,144,0.0,1.1,77,0.00,,,0.00,19.00,VWS V14.01,2013-05-31 23:29:00,
2013-05-31 19:30:00,79.2,71.3,30.13,ENE,75,3.3,4.4,77,0.00,,,0.00,25.00,VWS V14.01,2013-05-31 23:30:00,
2013-05-31 19:31:00,79.2,71.4,30.13,South,172,4.4,5.5,77,0.00,,,0.00,25.00,VWS V14.01,2013-05-31 23:31:00,
2013-05-31 19:32:00,79.2,71.3,30.13,SSE,163,1.1,4.4,77,0.00,,,0.00,25.00,VWS V14.01,2013-05-31 23:32:00,
2013-05-31 19:33:00,79.2,71.3,30.13,SSE,162,0.0,1.1,77,0.00,,,0.00,25.00,VWS V14.01,2013-05-31 23:33:00,
2013-05-31 19:34:00,79.2,71.3,30.13,ENE,67,1.1,4.4,77,0.00,,,0.00,23.00,VWS V14.01,2013-05-31 23:34:00,
2013-05-31 19:35:00,79.1,71.6,30.13,SSE,154,5.5,5.5,78,0.00,,,0.00,23.00,VWS V14.01,2013-05-31 23:35:00,
2013-05-31 19:36:00,79.1,71.6,30.13,SSE,154,3.3,5.5,78,0.00,,,0.00,23.00,VWS V14.01,2013-05-31 23:36:00,
2013-05-31 19:37:00,79.1,71.6,30.13,SSE,154,3.3,3.3,78,0.00,,,0.00,23.00,VWS V14.01,2013-05-31 23:37:00,
2013-05-31 19:38:00,79.1,71.6,30.13,East,100,4.4,4.4,78,0.00,,,0.00,21.00,VWS V14.01,2013-05-31 23:38:00,
2013-05-31 19:39:00,78.9,71.5,30.13,SE,130,0.0,4.4,78,0.00,,,0.00,21.00,VWS V14.01,2013-05-31 23:39:00,
2013-05-31 19:40:00,78.9,71.9,30.14,ESE,107,0.0,1.1,79,0.00,,,0.00,21.00,VWS V14.01,2013-05-31 23:40:00,
2013-05-31 19:41:00,78.9,71.9,30.14,ESE,107,0.0,1.1,79,0.00,,,0.00,21.00,VWS V14.01,2013-05-31 23:41:00,
2013-05-31 19:42:00,78.8,71.8,30.14,SE,139,0.0,2.2,79,0.00,,,0.00,21.00,VWS V14.01,2013-05-31 23:42:00,
2013-05-31 19:43:00,78.8,71.7,30.14,East,98,4.4,4.4,79,0.00,,,0.00,21.00,VWS V14.01,2013-05-31 23:43:00,
2013-05-31 19:44:00,78.8,71.7,30.13,South,177,0.0,4.4,79,0.00,,,0.00,19.00,VWS V14.01,2013-05-31 23:44:00,
2013-05-31 19:45:00,78.7,71.6,30.13,SSW,208,0.0,0.0,79,0.00,,,0.00,19.00,VWS V14.01,2013-05-31 23:45:00,
2013-05-31 19:46:00,78.7,71.6,30.13,SSW,207,0.0,0.0,79,0.00,,,0.00,19.00,VWS V14.01,2013-05-31 23:46:00,
2013-05-31 19:47:00,78.7,71.6,30.13,NE,53,0.0,1.1,79,0.00,,,0.00,19.00,VWS V14.01,2013-05-31 23:47:00,
2013-05-31 19:48:00,78.6,71.9,30.13,NE,53,0.0,0.0,80,0.00,,,0.00,19.00,VWS V14.01,2013-05-31 23:48:00,
2013-05-31 19:49:00,78.6,71.9,30.13,SSW,206,5.5,5.5,80,0.00,,,0.00,21.00,VWS V14.01,2013-05-31 23:49:00,
2013-05-31 19:50:00,78.4,71.8,30.13,NNE,29,0.0,1.1,80,0.00,,,0.00,19.00,VWS V14.01,2013-05-31 23:50:00,
2013-05-31 19:51:00,78.4,71.8,30.13,East,83,1.1,1.1,80,0.00,,,0.00,19.00,VWS V14.01,2013-05-31 23:51:00,
2013-05-31 19:52:00,78.4,71.8,30.13,SSE,149,1.1,1.1,80,0.00,,,0.00,18.00,VWS V14.01,2013-05-31 23:52:00,
2013-05-31 19:53:00,78.4,71.8,30.13,ESE,102,1.1,1.1,80,0.00,,,0.00,19.00,VWS V14.01,2013-05-31 23:53:00,
2013-05-31 19:54:00,78.4,71.8,30.13,SSE,148,2.2,5.5,80,0.00,,,0.00,16.00,VWS V14.01,2013-05-31 23:54:00,
2013-05-31 19:55:00,78.3,71.7,30.13,SW,228,0.0,0.0,80,0.00,,,0.00,14.00,VWS V14.01,2013-05-31 23:55:00,
2013-05-31 19:56:00,78.3,71.7,30.13,SW,228,1.1,1.1,80,0.00,,,0.00,14.00,VWS V14.01,2013-05-31 23:56:00,
2013-05-31 19:57:00,78.3,71.7,30.13,SW,228,0.0,1.1,80,0.00,,,0.00,12.00,VWS V14.01,2013-05-31 23:57:00,
2013-05-31 19:58:00,78.3,71.7,30.13,SSE,166,0.0,1.1,80,0.00,,,0.00,12.00,VWS V14.01,2013-05-31 23:58:00,
2013-05-31 19:59:00,78.3,71.7,30.13,SSE,163,1.1,1.1,80,0.00,,,0.00,12.00,VWS V14.01,2013-05-31 23:59:00,
2013-05-31 20:00:00,78.2,71.9,30.13,ESE,114,0.0,5.5,81,0.00,,,0.00,11.00,VWS V14.01,2013-06-01 00:00:00,
2013-05-31 20:01:00,78.2,71.9,30.13,ESE,114,1.1,5.5,81,0.00,,,0.00,11.00,VWS V14.01,2013-06-01 00:01:00,
2013-05-31 20:02:00,78.2,71.8,30.13,ESE,114,1.1,2.2,81,0.00,,,0.00,11.00,VWS V14.01,2013-06-01 00:02:00,
2013-05-31 20:03:00,78.2,71.8,30.13,NW,310,0.0,3.3,81,0.00,,,0.00,11.00,VWS V14.01,2013-06-01 00:03:00,
2013-05-31 20:04:00,78.2,71.8,30.13,South,187,1.1,1.1,81,0.00,,,0.00,11.00,VWS V14.01,2013-06-01 00:04:00,
2013-05-31 20:05:00,78.1,71.8,30.13,SSE,159,4.4,4.4,81,0.00,,,0.00,9.00,VWS V14.01,2013-06-01 00:05:00,
2013-05-31 20:06:00,78.1,71.8,30.13,SW,223,4.4,4.4,81,0.00,,,0.00,9.00,VWS V14.01,2013-06-01 00:06:00,
2013-05-31 20:07:00,78.1,71.8,30.13,South,173,0.0,4.4,81,0.00,,,0.00,9.00,VWS V14.01,2013-06-01 00:07:00,
2013-05-31 20:08:00,78.1,71.8,30.13,ESE,102,0.0,3.3,81,0.00,,,0.00,9.00,VWS V14.01,2013-06-01 00:08:00,
2013-05-31 20:09:00,77.9,71.7,30.13,ESE,102,0.0,0.0,81,0.00,,,0.00,7.00,VWS V14.01,2013-06-01 00:09:00,
2013-05-31 20:10:00,77.9,72.0,30.13,SSW,209,0.0,0.0,82,0.00,,,0.00,7.00,VWS V14.01,2013-06-01 00:10:00,
2013-05-31 20:12:00,77.8,71.9,30.13,East,99,3.3,4.4,82,0.00,,,0.00,7.00,VWS V14.01,2013-06-01 00:12:00,
2013-05-31 20:13:00,77.8,71.9,30.13,SSE,156,0.0,6.6,82,0.00,,,0.00,5.00,VWS V14.01,2013-06-01 00:13:00,
2013-05-31 20:14:00,77.8,71.8,30.13,SSE,156,1.1,1.1,82,0.00,,,0.00,5.00,VWS V14.01,2013-06-01 00:14:00,
2013-05-31 20:15:00,77.7,71.7,30.14,SSE,155,0.0,2.2,82,0.00,,,0.00,5.00,VWS V14.01,2013-06-01 00:15:00,
2013-05-31 20:16:00,77.7,71.7,30.14,SSE,155,0.0,2.2,82,0.00,,,0.00,5.00,VWS V14.01,2013-06-01 00:16:00,
2013-05-31 20:18:00,77.6,71.6,30.14,SSW,195,0.0,1.1,82,0.00,,,0.00,0.00,VWS V14.01,2013-06-01 00:18:00,
2013-05-31 20:19:00,77.6,71.6,30.13,SSW,193,0.0,1.1,82,0.00,,,0.00,0.00,VWS V14.01,2013-06-01 00:19:00,
2013-05-31 20:20:00,77.6,71.6,30.13,South,188,1.1,1.1,82,0.00,,,0.00,0.00,VWS V14.01,2013-06-01 00:20:00,
2013-05-31 20:21:00,77.6,71.6,30.13,South,188,0.0,1.1,82,0.00,,,0.00,0.00,VWS V14.01,2013-06-01 00:21:00,
2013-05-31 20:22:00,77.4,71.5,30.13,SW,219,0.0,3.3,82,0.00,,,0.00,0.00,VWS V14.01,2013-06-01 00:22:00,
2013-05-31 20:23:00,77.4,71.5,30.13,ESE,120,0.0,1.1,82,0.00,,,0.00,0.00,VWS V14.01,2013-06-01 00:23:00,
2013-05-31 20:24:00,77.3,71.4,30.13,ESE,120,0.0,0.0,82,0.00,,,0.00,0.00,VWS V14.01,2013-06-01 00:24:00,
2013-05-31 20:25:00,77.2,71.3,30.14,ESE,120,0.0,0.0,82,0.00,,,0.00,0.00,VWS V14.01,2013-06-01 00:25:00,
2013-05-31 20:26:00,77.2,71.2,30.14,ESE,120,0.0,0.0,82,0.00,,,0.00,0.00,VWS V14.01,2013-06-01 00:26:00,
2013-05-31 20:28:00,77.2,71.6,30.14,ESE,120,0.0,1.1,83,0.00,,,0.00,0.00,VWS V14.01,2013-06-01 00:28:00,
2013-05-31 20:29:00,77.1,71.5,30.14,ESE,122,0.0,0.0,83,0.00,,,0.00,0.00,VWS V14.01,2013-06-01 00:29:00,
2013-05-31 20:30:00,76.9,71.4,30.14,ESE,122,0.0,0.0,83,0.00,,,0.00,0.00,VWS V14.01,2013-06-01 00:30:00,
2013-05-31 20:31:00,76.9,71.4,30.14,ESE,122,0.0,0.0,83,0.00,,,0.00,0.00,VWS V14.01,2013-06-01 00:31:00,
2013-05-31 20:33:00,76.8,71.6,30.14,ESE,122,0.0,0.0,84,0.00,,,0.00,0.00,VWS V14.01,2013-06-01 00:33:00,
2013-05-31 20:34:00,76.8,71.6,30.14,ESE,122,0.0,0.0,84,0.00,,,0.00,0.00,VWS V14.01,2013-06-01 00:34:00,
2013-05-31 20:35:00,76.6,71.4,30.14,ESE,122,0.0,0.0,84,0.00,,,0.00,0.00,VWS V14.01,2013-06-01 00:35:00,
2013-05-31 20:37:00,76.4,71.3,30.14,ESE,122,0.0,0.0,84,0.00,,,0.00,0.00,VWS V14.01,2013-06-01 00:37:00,
2013-05-31 20:38:00,76.4,71.3,30.14,ESE,122,0.0,0.0,84,0.00,,,0.00,0.00,VWS V14.01,2013-06-01 00:38:00,
2013-05-31 20:39:00,76.3,71.5,30.14,SW,231,2.2,2.2,85,0.00,,,0.00,0.00,VWS V14.01,2013-06-01 00:39:00,
2013-05-31 20:40:00,76.2,71.4,30.14,SW,232,0.0,0.0,85,0.00,,,0.00,0.00,VWS V14.01,2013-06-01 00:40:00,
2013-05-31 20:41:00,76.2,71.4,30.14,SW,232,0.0,0.0,85,0.00,,,0.00,0.00,VWS V14.01,2013-06-01 00:41:00,
2013-05-31 20:42:00,76.2,71.3,30.14,South,189,1.1,1.1,85,0.00,,,0.00,0.00,VWS V14.01,2013-06-01 00:42:00,
2013-05-31 20:43:00,76.2,71.3,30.14,SW,219,0.0,3.3,85,0.00,,,0.00,0.00,VWS V14.01,2013-06-01 00:43:00,
2013-05-31 20:44:00,76.1,71.2,30.14,SSW,208,0.0,1.1,85,0.00,,,0.00,0.00,VWS V14.01,2013-06-01 00:44:00,
2013-05-31 20:45:00,76.1,71.2,30.14,SSW,208,0.0,0.0,85,0.00,,,0.00,0.00,VWS V14.01,2013-06-01 00:45:00,
2013-05-31 20:46:00,76.1,71.2,30.14,SSW,208,0.0,0.0,85,0.00,,,0.00,0.00,VWS V14.01,2013-06-01 00:46:00,
2013-05-31 20:47:00,75.9,71.1,30.14,SSW,208,0.0,0.0,85,0.00,,,0.00,0.00,VWS V14.01,2013-06-01 00:47:00,
2013-05-31 20:48:00,75.9,71.1,30.14,SSW,210,0.0,0.0,85,0.00,,,0.00,0.00,VWS V14.01,2013-06-01 00:48:00,
2013-05-31 20:49:00,75.8,71.0,30.14,SSW,210,0.0,0.0,85,0.00,,,0.00,0.00,VWS V14.01,2013-06-01 00:49:00,
2013-05-31 20:50:00,75.8,71.0,30.14,SSW,210,0.0,0.0,85,0.00,,,0.00,0.00,VWS V14.01,2013-06-01 00:50:00,
2013-05-31 20:51:00,75.8,71.4,30.14,SSW,210,0.0,1.1,86,0.00,,,0.00,0.00,VWS V14.01,2013-06-01 00:51:00,
2013-05-31 20:52:00,75.8,71.3,30.14,SSW,210,0.0,0.0,86,0.00,,,0.00,0.00,VWS V14.01,2013-06-01 00:52:00,
2013-05-31 20:53:00,75.8,71.3,30.14,SSW,210,0.0,1.1,86,0.00,,,0.00,0.00,VWS V14.01,2013-06-01 00:53:00,
2013-05-31 20:54:00,75.8,71.3,30.14,SSW,210,0.0,0.0,86,0.00,,,0.00,0.00,VWS V14.01,2013-06-01 00:54:00,
2013-05-31 20:55:00,75.7,71.2,30.14,SSW,210,0.0,0.0,86,0.00,,,0.00,0.00,VWS V14.01,2013-06-01 00:55:00,
2013-05-31 20:56:00,75.7,71.2,30.14,SSW,205,1.1,1.1,86,0.00,,,0.00,0.00,VWS V14.01,2013-06-01 00:56:00,
2013-05-31 20:57:00,75.7,71.2,30.14,SSW,206,0.0,1.1,86,0.00,,,0.00,0.00,VWS V14.01,2013-06-01 00:57:00,
2013-05-31 20:58:00,75.7,71.2,30.14,SSW,206,0.0,0.0,86,0.00,,,0.00,0.00,VWS V14.01,2013-06-01 00:58:00,
2013-05-31 20:59:00,75.7,71.2,30.14,SW,214,2.2,3.3,86,0.00,,,0.00,0.00,VWS V14.01,2013-06-01 00:59:00,
2013-05-31 21:00:00,75.7,71.2,30.14,SW,214,0.0,0.0,86,0.00,,,0.00,0.00,VWS V14.01,2013-06-01 01:00:00,
2013-05-31 21:01:00,75.7,71.2,30.14,SW,214,0.0,0.0,86,0.00,,,0.00,0.00,VWS V14.01,2013-06-01 01:01:00,
2013-05-31 21:02:00,75.7,71.2,30.14,East,82,2.2,2.2,86,0.00,,,0.00,0.00,VWS V14.01,2013-06-01 01:02:00,
2013-05-31 21:03:00,75.7,71.2,30.14,ENE,73,0.0,2.2,86,0.00,,,0.00,0.00,VWS V14.01,2013-06-01 01:03:00,
2013-05-31 21:04:00,75.6,71.1,30.14,SSE,163,0.0,1.1,86,0.00,,,0.00,0.00,VWS V14.01,2013-06-01 01:04:00,
2013-05-31 21:05:00,75.6,71.1,30.14,SSE,163,0.0,0.0,86,0.00,,,0.00,0.00,VWS V14.01,2013-06-01 01:05:00,
2013-05-31 21:06:00,75.6,71.1,30.14,SSE,163,0.0,1.1,86,0.00,,,0.00,0.00,VWS V14.01,2013-06-01 01:06:00,
2013-05-31 21:07:00,75.6,71.1,30.14,SSE,163,0.0,1.1,86,0.00,,,0.00,0.00,VWS V14.01,2013-06-01 01:07:00,
2013-05-31 21:08:00,75.6,71.1,30.14,SSE,163,0.0,1.1,86,0.00,,,0.00,0.00,VWS V14.01,2013-06-01 01:08:00,
2013-05-31 21:09:00,75.6,71.1,30.14,SSE,163,0.0,0.0,86,0.00,,,0.00,0.00,VWS V14.01,2013-06-01 01:09:00,
2013-05-31 21:10:00,75.6,71.1,30.14,SSE,163,0.0,0.0,86,0.00,,,0.00,0.00,VWS V14.01,2013-06-01 01:10:00,
2013-05-31 21:11:00,75.6,71.1,30.14,SSE,163,0.0,0.0,86,0.00,,,0.00,0.00,VWS V14.01,2013-06-01 01:11:00,
2013-05-31 21:12:00,75.6,71.1,30.14,SSE,163,0.0,0.0,86,0.00,,,0.00,0.00,VWS V14.01,2013-06-01 01:12:00,
2013-05-31 21:13:00,75.6,71.1,30.14,SSE,163,2.2,2.2,86,0.00,,,0.00,0.00,VWS V14.01,2013-06-01 01:13:00,
2013-05-31 21:14:00,75.6,71.1,30.14,SSE,163,0.0,2.2,86,0.00,,,0.00,0.00,VWS V14.01,2013-06-01 01:14:00,
2013-05-31 21:15:00,75.4,71.0,30.14,ESE,104,0.0,1.1,86,0.00,,,0.00,0.00,VWS V14.01,2013-06-01 01:15:00,
2013-05-31 21:16:00,75.4,71.0,30.14,ESE,104,0.0,1.1,86,0.00,,,0.00,0.00,VWS V14.01,2013-06-01 01:16:00,
2013-05-31 21:17:00,75.4,71.0,30.14,ESE,104,0.0,0.0,86,0.00,,,0.00,0.00,VWS V14.01,2013-06-01 01:17:00,
2013-05-31 21:18:00,75.4,71.0,30.14,ESE,104,0.0,0.0,86,0.00,,,0.00,0.00,VWS V14.01,2013-06-01 01:18:00,
2013-05-31 21:19:00,75.4,71.0,30.14,ESE,104,0.0,0.0,86,0.00,,,0.00,0.00,VWS V14.01,2013-06-01 01:19:00,
2013-05-31 21:20:00,75.3,70.9,30.14,ESE,104,0.0,0.0,86,0.00,,,0.00,0.00,VWS V14.01,2013-06-01 01:20:00,
2013-05-31 21:21:00,75.3,71.2,30.14,ESE,104,0.0,0.0,87,0.00,,,0.00,0.00,VWS V14.01,2013-06-01 01:21:00,
2013-05-31 21:22:00,75.3,71.2,30.14,ESE,104,0.0,0.0,87,0.00,,,0.00,0.00,VWS V14.01,2013-06-01 01:22:00,
2013-05-31 21:23:00,75.3,71.2,30.14,ESE,104,0.0,0.0,87,0.00,,,0.00,0.00,VWS V14.01,2013-06-01 01:23:00,
2013-05-31 21:24:00,75.2,71.1,30.14,ESE,104,0.0,0.0,87,0.00,,,0.00,0.00,VWS V14.01,2013-06-01 01:24:00,
2013-05-31 21:25:00,75.2,71.0,30.14,ESE,104,0.0,0.0,87,0.00,,,0.00,0.00,VWS V14.01,2013-06-01 01:25:00,
2013-05-31 21:26:00,75.2,71.0,30.14,ESE,104,0.0,0.0,87,0.00,,,0.00,0.00,VWS V14.01,2013-06-01 01:26:00,
2013-05-31 21:27:00,75.2,71.0,30.14,ESE,104,0.0,0.0,87,0.00,,,0.00,0.00,VWS V14.01,2013-06-01 01:27:00,
2013-05-31 21:28:00,75.1,70.9,30.14,ESE,104,0.0,0.0,87,0.00,,,0.00,0.00,VWS V14.01,2013-06-01 01:28:00,
2013-05-31 21:29:00,74.9,70.8,30.14,ESE,104,0.0,0.0,87,0.00,,,0.00,0.00,VWS V14.01,2013-06-01 01:29:00,
2013-05-31 21:30:00,74.9,71.2,30.14,ESE,104,0.0,0.0,88,0.00,,,0.00,0.00,VWS V14.01,2013-06-01 01:30:00,
2013-05-31 21:31:00,74.9,71.2,30.14,ESE,104,0.0,0.0,88,0.00,,,0.00,0.00,VWS V14.01,2013-06-01 01:31:00,
2013-05-31 21:32:00,74.9,71.2,30.14,ESE,104,0.0,0.0,88,0.00,,,0.00,0.00,VWS V14.01,2013-06-01 01:32:00,
2013-05-31 21:33:00,74.8,71.1,30.14,ESE,104,0.0,0.0,88,0.00,,,0.00,0.00,VWS V14.01,2013-06-01 01:33:00,
2013-05-31 21:34:00,74.8,71.1,30.14,ESE,104,0.0,0.0,88,0.00,,,0.00,0.00,VWS V14.01,2013-06-01 01:34:00,
2013-05-31 21:35:00,74.8,71.1,30.14,ESE,104,0.0,0.0,88,0.00,,,0.00,0.00,VWS V14.01,2013-06-01 01:35:00,
2013-05-31 21:36:00,74.8,71.1,30.14,ESE,104,0.0,0.0,88,0.00,,,0.00,0.00,VWS V14.01,2013-06-01 01:36:00,
2013-05-31 21:37:00,74.8,71.1,30.14,ESE,104,0.0,0.0,88,0.00,,,0.00,0.00,VWS V14.01,2013-06-01 01:37:00,
2013-05-31 21:38:00,74.8,71.1,30.14,SE,140,0.0,1.1,88,0.00,,,0.00,0.00,VWS V14.01,2013-06-01 01:38:00,
2013-05-31 21:39:00,74.8,71.0,30.15,SE,140,0.0,0.0,88,0.00,,,0.00,0.00,VWS V14.01,2013-06-01 01:39:00,
2013-05-31 21:40:00,74.8,71.4,30.15,SE,140,0.0,0.0,89,0.00,,,0.00,0.00,VWS V14.01,2013-06-01 01:40:00,
2013-05-31 21:41:00,74.8,71.3,30.15,SE,140,0.0,0.0,89,0.00,,,0.00,0.00,VWS V14.01,2013-06-01 01:41:00,
2013-05-31 21:42:00,74.8,71.3,30.15,SE,140,0.0,0.0,89,0.00,,,0.00,0.00,VWS V14.01,2013-06-01 01:42:00,
2013-05-31 21:43:00,74.8,71.3,30.15,SE,140,0.0,1.1,89,0.00,,,0.00,0.00,VWS V14.01,2013-06-01 01:43:00,
2013-05-31 21:44:00,74.8,71.3,30.15,SE,140,0.0,0.0,89,0.00,,,0.00,0.00,VWS V14.01,2013-06-01 01:44:00,
2013-05-31 21:45:00,74.8,71.4,30.15,SE,140,0.0,0.0,89,0.00,,,0.00,0.00,VWS V14.01,2013-06-01 01:45:00,
2013-05-31 21:46:00,74.8,71.4,30.15,SE,140,0.0,0.0,89,0.00,,,0.00,0.00,VWS V14.01,2013-06-01 01:46:00,
2013-05-31 21:47:00,74.8,71.3,30.15,SE,140,0.0,0.0,89,0.00,,,0.00,0.00,VWS V14.01,2013-06-01 01:47:00,
2013-05-31 21:48:00,74.8,71.3,30.15,SE,140,0.0,0.0,89,0.00,,,0.00,0.00,VWS V14.01,2013-06-01 01:48:00,
2013-05-31 21:49:00,74.8,71.3,30.15,SE,140,0.0,0.0,89,0.00,,,0.00,0.00,VWS V14.01,2013-06-01 01:49:00,
2013-05-31 21:50:00,74.7,71.2,30.15,SE,140,0.0,0.0,89,0.00,,,0.00,0.00,VWS V14.01,2013-06-01 01:50:00,
2013-05-31 21:51:00,74.7,71.2,30.15,SE,140,0.0,0.0,89,0.00,,,0.00,0.00,VWS V14.01,2013-06-01 01:51:00,
2013-05-31 21:52:00,74.6,71.1,30.15,SE,140,0.0,0.0,89,0.00,,,0.00,0.00,VWS V14.01,2013-06-01 01:52:00,
2013-05-31 21:53:00,74.4,71.0,30.15,SE,140,0.0,0.0,89,0.00,,,0.00,0.00,VWS V14.01,2013-06-01 01:53:00,
2013-05-31 21:54:00,74.4,71.0,30.15,SE,140,0.0,0.0,89,0.00,,,0.00,0.00,VWS V14.01,2013-06-01 01:54:00,
2013-05-31 21:55:00,74.3,71.2,30.15,SE,140,0.0,0.0,90,0.00,,,0.00,0.00,VWS V14.01,2013-06-01 01:55:00,
2013-05-31 21:56:00,74.3,71.2,30.15,SE,140,0.0,0.0,90,0.00,,,0.00,0.00,VWS V14.01,2013-06-01 01:56:00,
2013-05-31 21:57:00,74.2,71.1,30.15,SE,140,0.0,0.0,90,0.00,,,0.00,0.00,VWS V14.01,2013-06-01 01:57:00,
2013-05-31 21:58:00,74.2,71.0,30.15,SE,140,0.0,0.0,90,0.00,,,0.00,0.00,VWS V14.01,2013-06-01 01:58:00,
2013-05-31 21:59:00,74.2,71.0,30.15,SE,140,0.0,0.0,90,0.00,,,0.00,0.00,VWS V14.01,2013-06-01 01:59:00,
2013-05-31 22:00:00,74.1,70.9,30.15,SE,140,0.0,0.0,90,0.00,,,0.00,0.00,VWS V14.01,2013-06-01 02:00:00,
2013-05-31 22:01:00,74.1,70.9,30.15,SE,140,0.0,0.0,90,0.00,,,0.00,0.00,VWS V14.01,2013-06-01 02:01:00,
2013-05-31 22:02:00,74.1,70.9,30.15,SE,140,0.0,0.0,90,0.00,,,0.00,0.00,VWS V14.01,2013-06-01 02:02:00,
2013-05-31 22:03:00,74.1,70.9,30.15,SE,140,0.0,0.0,90,0.00,,,0.00,0.00,VWS V14.01,2013-06-01 02:03:00,
2013-05-31 22:04:00,74.1,70.9,30.15,SE,140,0.0,0.0,90,0.00,,,0.00,0.00,VWS V14.01,2013-06-01 02:04:00,
2013-05-31 22:05:00,73.9,71.2,30.15,SE,140,0.0,0.0,91,0.00,,,0.00,0.00,VWS V14.01,2013-06-01 02:05:00,
2013-05-31 22:06:00,73.9,71.2,30.15,SE,140,0.0,0.0,91,0.00,,,0.00,0.00,VWS V14.01,2013-06-01 02:06:00,
2013-05-31 22:07:00,73.9,71.2,30.15,SE,140,0.0,0.0,91,0.00,,,0.00,0.00,VWS V14.01,2013-06-01 02:07:00,
2013-05-31 22:08:00,73.9,71.2,30.15,SE,140,0.0,0.0,91,0.00,,,0.00,0.00,VWS V14.01,2013-06-01 02:08:00,
2013-05-31 22:09:00,73.9,71.2,30.15,SE,140,0.0,0.0,91,0.00,,,0.00,0.00,VWS V14.01,2013-06-01 02:09:00,
2013-05-31 22:10:00,73.8,71.1,30.15,SE,140,0.0,0.0,91,0.00,,,0.00,0.00,VWS V14.01,2013-06-01 02:10:00,
2013-05-31 22:11:00,73.8,71.1,30.15,SE,140,0.0,0.0,91,0.00,,,0.00,0.00,VWS V14.01,2013-06-01 02:11:00,
2013-05-31 22:12:00,73.8,71.1,30.16,SE,140,0.0,0.0,91,0.00,,,0.00,0.00,VWS V14.01,2013-06-01 02:12:00,
2013-05-31 22:13:00,73.8,71.1,30.16,SE,140,0.0,0.0,91,0.00,,,0.00,0.00,VWS V14.01,2013-06-01 02:13:00,
2013-05-31 22:14:00,73.8,71.0,30.16,SE,140,0.0,0.0,91,0.00,,,0.00,0.00,VWS V14.01,2013-06-01 02:14:00,
2013-05-31 22:15:00,73.8,71.0,30.16,SE,140,0.0,0.0,91,0.00,,,0.00,0.00,VWS V14.01,2013-06-01 02:15:00,
2013-05-31 22:16:00,73.7,70.9,30.16,SE,140,0.0,0.0,91,0.00,,,0.00,0.00,VWS V14.01,2013-06-01 02:16:00,
2013-05-31 22:17:00,73.7,70.9,30.16,SE,140,0.0,0.0,91,0.00,,,0.00,0.00,VWS V14.01,2013-06-01 02:17:00,
2013-05-31 22:18:00,73.6,70.8,30.16,SE,140,0.0,0.0,91,0.00,,,0.00,0.00,VWS V14.01,2013-06-01 02:18:00,
2013-05-31 22:19:00,73.6,71.1,30.16,SE,140,0.0,0.0,92,0.00,,,0.00,0.00,VWS V14.01,2013-06-01 02:19:00,
2013-05-31 22:20:00,73.4,71.0,30.16,SE,140,0.0,0.0,92,0.00,,,0.00,0.00,VWS V14.01,2013-06-01 02:20:00,
2013-05-31 22:21:00,73.4,71.0,30.16,SE,140,0.0,0.0,92,0.00,,,0.00,0.00,VWS V14.01,2013-06-01 02:21:00,
2013-05-31 22:22:00,73.6,71.1,30.16,SE,140,0.0,0.0,92,0.00,,,0.00,0.00,VWS V14.01,2013-06-01 02:22:00,
2013-05-31 22:23:00,73.6,71.1,30.16,SE,140,0.0,0.0,92,0.00,,,0.00,0.00,VWS V14.01,2013-06-01 02:23:00,
2013-05-31 22:24:00,73.6,71.1,30.16,SE,140,0.0,0.0,92,0.00,,,0.00,0.00,VWS V14.01,2013-06-01 02:24:00,
2013-05-31 22:25:00,73.6,71.1,30.16,SE,140,0.0,0.0,92,0.00,,,0.00,0.00,VWS V14.01,2013-06-01 02:25:00,
2013-05-31 22:26:00,73.6,71.1,30.16,SE,140,0.0,0.0,92,0.00,,,0.00,0.00,VWS V14.01,2013-06-01 02:26:00,
2013-05-31 22:27:00,73.6,71.1,30.16,SE,140,0.0,0.0,92,0.00,,,0.00,0.00,VWS V14.01,2013-06-01 02:27:00,
2013-05-31 22:28:00,73.6,71.1,30.16,SE,140,0.0,0.0,92,0.00,,,0.00,0.00,VWS V14.01,2013-06-01 02:28:00,
2013-05-31 22:29:00,73.6,71.1,30.16,SE,140,0.0,0.0,92,0.00,,,0.00,0.00,VWS V14.01,2013-06-01 02:29:00,
2013-05-31 22:30:00,73.6,71.1,30.16,SE,140,0.0,0.0,92,0.00,,,0.00,0.00,VWS V14.01,2013-06-01 02:30:00,
2013-05-31 22:31:00,73.6,71.1,30.16,SE,140,0.0,0.0,92,0.00,,,0.00,0.00,VWS V14.01,2013-06-01 02:31:00,
2013-05-31 22:32:00,73.6,71.1,30.16,SE,140,0.0,0.0,92,0.00,,,0.00,0.00,VWS V14.01,2013-06-01 02:32:00,
2013-05-31 22:33:00,73.6,71.1,30.16,SE,140,0.0,0.0,92,0.00,,,0.00,0.00,VWS V14.01,2013-06-01 02:33:00,
2013-05-31 22:34:00,73.4,71.0,30.16,SE,140,0.0,0.0,92,0.00,,,0.00,0.00,VWS V14.01,2013-06-01 02:34:00,
2013-05-31 22:35:00,73.3,70.9,30.16,SE,140,0.0,0.0,92,0.00,,,0.00,0.00,VWS V14.01,2013-06-01 02:35:00,
2013-05-31 22:36:00,73.3,70.9,30.16,SE,140,0.0,0.0,92,0.00,,,0.00,0.00,VWS V14.01,2013-06-01 02:36:00,
2013-05-31 22:37:00,73.3,70.9,30.16,SE,140,0.0,0.0,92,0.00,,,0.00,0.00,VWS V14.01,2013-06-01 02:37:00,
2013-05-31 22:38:00,73.3,70.9,30.16,SE,140,0.0,0.0,92,0.00,,,0.00,0.00,VWS V14.01,2013-06-01 02:38:00,
2013-05-31 22:39:00,73.3,70.9,30.16,SE,140,0.0,0.0,92,0.00,,,0.00,0.00,VWS V14.01,2013-06-01 02:39:00,
2013-05-31 22:40:00,73.2,70.8,30.16,SE,140,0.0,0.0,92,0.00,,,0.00,0.00,VWS V14.01,2013-06-01 02:40:00,
2013-05-31 22:41:00,73.2,70.8,30.16,SE,140,0.0,0.0,92,0.00,,,0.00,0.00,VWS V14.01,2013-06-01 02:41:00,
2013-05-31 22:42:00,73.2,70.7,30.16,SE,140,0.0,0.0,92,0.00,,,0.00,0.00,VWS V14.01,2013-06-01 02:42:00,
2013-05-31 22:43:00,73.2,70.7,30.16,SE,140,0.0,1.1,92,0.00,,,0.00,0.00,VWS V14.01,2013-06-01 02:43:00,
2013-05-31 22:44:00,73.2,71.0,30.16,SE,140,0.0,0.0,93,0.00,,,0.00,0.00,VWS V14.01,2013-06-01 02:44:00,
2013-05-31 22:45:00,73.1,70.9,30.16,SE,140,0.0,0.0,93,0.00,,,0.00,0.00,VWS V14.01,2013-06-01 02:45:00,
2013-05-31 22:46:00,73.1,70.9,30.16,SE,140,0.0,0.0,93,0.00,,,0.00,0.00,VWS V14.01,2013-06-01 02:46:00,
2013-05-31 22:47:00,73.1,70.9,30.16,SE,140,0.0,0.0,93,0.00,,,0.00,0.00,VWS V14.01,2013-06-01 02:47:00,
2013-05-31 22:48:00,72.9,70.8,30.16,SSE,151,0.0,2.2,93,0.00,,,0.00,0.00,VWS V14.01,2013-06-01 02:48:00,
2013-05-31 22:49:00,72.8,70.7,30.16,SSE,151,0.0,0.0,93,0.00,,,0.00,0.00,VWS V14.01,2013-06-01 02:49:00,
2013-05-31 22:50:00,72.8,70.7,30.16,SSE,151,0.0,0.0,93,0.00,,,0.00,0.00,VWS V14.01,2013-06-01 02:50:00,
2013-05-31 22:51:00,72.8,70.7,30.16,SSE,151,0.0,0.0,93,0.00,,,0.00,0.00,VWS V14.01,2013-06-01 02:51:00,
2013-05-31 22:52:00,72.8,70.7,30.16,SSE,151,0.0,0.0,93,0.00,,,0.00,0.00,VWS V14.01,2013-06-01 02:52:00,
2013-05-31 22:53:00,72.8,70.7,30.15,SSE,151,0.0,0.0,93,0.00,,,0.00,0.00,VWS V14.01,2013-06-01 02:53:00,
2013-05-31 22:54:00,72.8,70.7,30.16,SSE,151,0.0,0.0,93,0.00,,,0.00,0.00,VWS V14.01,2013-06-01 02:54:00,
2013-05-31 22:55:00,72.8,70.6,30.15,SSE,151,0.0,0.0,93,0.00,,,0.00,0.00,VWS V14.01,2013-06-01 02:55:00,
2013-05-31 22:56:00,72.8,70.6,30.15,SSE,151,0.0,0.0,93,0.00,,,0.00,0.00,VWS V14.01,2013-06-01 02:56:00,
2013-05-31 22:57:00,72.7,70.5,30.15,SSE,151,0.0,0.0,93,0.00,,,0.00,0.00,VWS V14.01,2013-06-01 02:57:00,
2013-05-31 22:58:00,72.7,70.5,30.15,SSE,151,0.0,0.0,93,0.00,,,0.00,0.00,VWS V14.01,2013-06-01 02:58:00,
2013-05-31 22:59:00,72.7,70.5,30.15,SSE,151,0.0,0.0,93,0.00,,,0.00,0.00,VWS V14.01,2013-06-01 02:59:00,
2013-05-31 23:00:00,72.7,70.5,30.15,SSE,151,0.0,0.0,93,0.00,,,0.00,0.00,VWS V14.01,2013-06-01 03:00:00,
2013-05-31 23:01:00,72.7,70.5,30.15,SSE,151,0.0,0.0,93,0.00,,,0.00,0.00,VWS V14.01,2013-06-01 03:01:00,
2013-05-31 23:02:00,72.7,70.5,30.15,SSE,151,0.0,0.0,93,0.00,,,0.00,0.00,VWS V14.01,2013-06-01 03:02:00,
2013-05-31 23:03:00,72.7,70.5,30.15,SSE,151,0.0,0.0,93,0.00,,,0.00,0.00,VWS V14.01,2013-06-01 03:03:00,
2013-05-31 23:04:00,72.7,70.8,30.15,SSE,151,0.0,0.0,94,0.00,,,0.00,0.00,VWS V14.01,2013-06-01 03:04:00,
2013-05-31 23:05:00,72.7,70.8,30.15,SSE,151,0.0,0.0,94,0.00,,,0.00,0.00,VWS V14.01,2013-06-01 03:05:00,
2013-05-31 23:06:00,72.7,70.8,30.15,SSE,151,0.0,0.0,94,0.00,,,0.00,0.00,VWS V14.01,2013-06-01 03:06:00,
2013-05-31 23:07:00,72.7,70.8,30.15,SSE,151,0.0,0.0,94,0.00,,,0.00,0.00,VWS V14.01,2013-06-01 03:07:00,
2013-05-31 23:08:00,72.7,70.8,30.15,SSE,151,0.0,0.0,94,0.00,,,0.00,0.00,VWS V14.01,2013-06-01 03:08:00,
2013-05-31 23:09:00,72.7,70.8,30.15,SSE,151,0.0,0.0,94,0.00,,,0.00,0.00,VWS V14.01,2013-06-01 03:09:00,
2013-05-31 23:10:00,72.7,70.8,30.15,SSE,151,0.0,0.0,94,0.00,,,0.00,0.00,VWS V14.01,2013-06-01 03:10:00,
2013-05-31 23:11:00,72.7,70.8,30.15,SSE,151,0.0,0.0,94,0.00,,,0.00,0.00,VWS V14.01,2013-06-01 03:11:00,
2013-05-31 23:12:00,72.6,70.7,30.15,SSE,151,0.0,0.0,94,0.00,,,0.00,0.00,VWS V14.01,2013-06-01 03:12:00,
2013-05-31 23:13:00,72.6,70.7,30.15,SSE,151,0.0,0.0,94,0.00,,,0.00,0.00,VWS V14.01,2013-06-01 03:13:00,
2013-05-31 23:14:00,72.6,70.7,30.15,SSE,151,0.0,0.0,94,0.00,,,0.00,0.00,VWS V14.01,2013-06-01 03:14:00,
2013-05-31 23:15:00,72.4,70.6,30.15,SSE,151,0.0,0.0,94,0.00,,,0.00,0.00,VWS V14.01,2013-06-01 03:15:00,
2013-05-31 23:16:00,72.4,70.6,30.15,SSE,151,0.0,0.0,94,0.00,,,0.00,0.00,VWS V14.01,2013-06-01 03:16:00,
2013-05-31 23:17:00,72.4,70.6,30.15,SSE,151,0.0,0.0,94,0.00,,,0.00,0.00,VWS V14.01,2013-06-01 03:17:00,
2013-05-31 23:18:00,72.3,70.5,30.15,SSE,151,0.0,0.0,94,0.00,,,0.00,0.00,VWS V14.01,2013-06-01 03:18:00,
2013-05-31 23:19:00,72.2,70.4,30.15,SSE,151,0.0,0.0,94,0.00,,,0.00,0.00,VWS V14.01,2013-06-01 03:19:00,
2013-05-31 23:20:00,72.2,70.4,30.14,SSE,151,0.0,0.0,94,0.00,,,0.00,0.00,VWS V14.01,2013-06-01 03:20:00,
2013-05-31 23:21:00,72.2,70.4,30.14,SSE,151,0.0,0.0,94,0.00,,,0.00,0.00,VWS V14.01,2013-06-01 03:21:00,
2013-05-31 23:22:00,72.2,70.4,30.14,SSE,151,0.0,0.0,94,0.00,,,0.00,0.00,VWS V14.01,2013-06-01 03:22:00,
2013-05-31 23:23:00,72.2,70.4,30.14,SSE,151,0.0,0.0,94,0.00,,,0.00,0.00,VWS V14.01,2013-06-01 03:23:00,
2013-05-31 23:25:00,72.2,70.4,30.14,SSE,151,0.0,0.0,94,0.00,,,0.00,0.00,VWS V14.01,2013-06-01 03:25:00,
2013-05-31 23:26:00,72.2,70.3,30.14,SSE,151,0.0,0.0,94,0.00,,,0.00,0.00,VWS V14.01,2013-06-01 03:26:00,
2013-05-31 23:27:00,72.2,70.3,30.14,SSE,151,0.0,0.0,94,0.00,,,0.00,0.00,VWS V14.01,2013-06-01 03:27:00,
2013-05-31 23:28:00,72.1,70.2,30.14,SSE,151,0.0,0.0,94,0.00,,,0.00,0.00,VWS V14.01,2013-06-01 03:28:00,
2013-05-31 23:29:00,72.1,70.2,30.14,SSE,151,0.0,0.0,94,0.00,,,0.00,0.00,VWS V14.01,2013-06-01 03:29:00,
2013-05-31 23:30:00,71.9,70.1,30.15,SSE,151,0.0,0.0,94,0.00,,,0.00,0.00,VWS V14.01,2013-06-01 03:30:00,
2013-05-31 23:31:00,71.9,70.1,30.15,SSE,151,0.0,0.0,94,0.00,,,0.00,0.00,VWS V14.01,2013-06-01 03:31:00,
2013-05-31 23:32:00,71.8,70.0,30.15,SSE,151,0.0,0.0,94,0.00,,,0.00,0.00,VWS V14.01,2013-06-01 03:32:00,
2013-05-31 23:33:00,71.8,70.0,30.15,SSE,151,0.0,0.0,94,0.00,,,0.00,0.00,VWS V14.01,2013-06-01 03:33:00,
2013-05-31 23:34:00,71.8,70.0,30.14,SSE,151,0.0,0.0,94,0.00,,,0.00,0.00,VWS V14.01,2013-06-01 03:34:00,
2013-05-31 23:35:00,71.8,69.9,30.15,SSE,151,0.0,0.0,94,0.00,,,0.00,0.00,VWS V14.01,2013-06-01 03:35:00,
2013-05-31 23:36:00,71.8,69.9,30.15,SSE,151,0.0,0.0,94,0.00,,,0.00,0.00,VWS V14.01,2013-06-01 03:36:00,
2013-05-31 23:37:00,71.8,69.9,30.15,SSE,151,0.0,0.0,94,0.00,,,0.00,0.00,VWS V14.01,2013-06-01 03:37:00,
2013-05-31 23:38:00,71.7,69.8,30.14,SSE,151,0.0,0.0,94,0.00,,,0.00,0.00,VWS V14.01,2013-06-01 03:38:00,
2013-05-31 23:39:00,71.7,69.8,30.15,SSE,151,0.0,0.0,94,0.00,,,0.00,0.00,VWS V14.01,2013-06-01 03:39:00,
2013-05-31 23:40:00,71.6,69.7,30.15,SSE,151,0.0,0.0,94,0.00,,,0.00,0.00,VWS V14.01,2013-06-01 03:40:00,
2013-05-31 23:41:00,71.4,69.6,30.15,SSE,151,0.0,0.0,94,0.00,,,0.00,0.00,VWS V14.01,2013-06-01 03:41:00,
2013-05-31 23:42:00,71.3,69.5,30.15,SSE,151,0.0,0.0,94,0.00,,,0.00,0.00,VWS V14.01,2013-06-01 03:42:00,
2013-05-31 23:43:00,71.3,69.5,30.15,SSE,151,0.0,0.0,94,0.00,,,0.00,0.00,VWS V14.01,2013-06-01 03:43:00,
2013-05-31 23:44:00,71.2,69.4,30.15,SSE,151,0.0,0.0,94,0.00,,,0.00,0.00,VWS V14.01,2013-06-01 03:44:00,
2013-05-31 23:45:00,71.2,69.3,30.15,SSE,151,0.0,0.0,94,0.00,,,0.00,0.00,VWS V14.01,2013-06-01 03:45:00,
2013-05-31 23:46:00,71.1,69.2,30.15,SSE,151,0.0,0.0,94,0.00,,,0.00,0.00,VWS V14.01,2013-06-01 03:46:00,
2013-05-31 23:47:00,70.9,69.1,30.15,SSE,151,0.0,0.0,94,0.00,,,0.00,0.00,VWS V14.01,2013-06-01 03:47:00,
2013-05-31 23:48:00,70.9,69.4,30.15,SSE,151,0.0,0.0,95,0.00,,,0.00,0.00,VWS V14.01,2013-06-01 03:48:00,
2013-05-31 23:49:00,70.9,69.4,30.15,SSE,151,0.0,0.0,95,0.00,,,0.00,0.00,VWS V14.01,2013-06-01 03:49:00,
2013-05-31 23:50:00,70.8,69.0,30.15,SSE,151,0.0,0.0,94,0.00,,,0.00,0.00,VWS V14.01,2013-06-01 03:50:00,
2013-05-31 23:55:00,70.7,69.2,30.15,SSE,151,0.0,0.0,95,0.00,,,0.00,0.00,VWS V14.01,2013-06-01 03:55:00,